     2              OBSERVATION DATA    GPS                 RINEX VERSION / TYPE
teqc 2000Feb29 simon 20000627 23:52:20UTC                   PGM / RUN BY / DATE
                                                            COMMENT
L2: 1 -> 1; 150 -> 5; 250 -> 9                              COMMENT
L2: 1 -> 1; 150 -> 5; 250 -> 9                              COMMENT
L2: 1 -> 1; 150 -> 5; 250 -> 9                              COMMENT
L2: 1 -> 1; 150 -> 5; 250 -> 9                              COMMENT
L2: 1 -> 1; 150 -> 5; 250 -> 9                              COMMENT
Original Marker Name: GS36                                  COMMENT
Campaign Name: China Lake April 2000                        COMMENT
4-Character Station Name: GS36                              COMMENT
6-Character Antenna Code: ASHGD3                            COMMENT
Vertical Measurement Point: TGP                             COMMENT
Vertical Offset to Rinex Ref. Point: 0.0640                 COMMENT
Radial Measurement Point: OOH                               COMMENT
Radial Offset to Rinex Ref. Point: 0.1737                   COMMENT
Antenna Height from Field Measurement: 1.3800 m             COMMENT
Additional Antenna Identification Info.:                    COMMENT
The Whopper (700718AB)                                      COMMENT
Original XYZ: -2373459.5200 -4649728.0700 3653530.3200      COMMENT
New XYZ position is based on association with SCEC monument COMMENT
E1F2S2Q4+0011. Position of that monument is believed to be  COMMENT
valid to within 1 m horizontally; vertical accuracy         COMMENT
should be no worse than 3-times this value.                 COMMENT
                                                            COMMENT
Revised Rinex header created by UCSD GPS archive for        COMMENT
GSAC on 14-Sep-2001 (2001:257) 19:38:12 GMT                 COMMENT
For assistance contact dagnew@ucsd.edu                      COMMENT
or anderson@python.ucsd.edu                                 COMMENT
                                                            COMMENT
NONE                                                        MARKER NAME
gs36                                                        MARKER NUMBER
WAP US NATIONAL IMAGERY MAPPING AGENCY                      OBSERVER / AGENCY
501 ASHTECH Z-XII3 4J30                                     REC # / TYPE / VERS
108 ASHTECH GEODETIC III                                    ANT # / TYPE
 -2373517.2294 -4649764.5643  3653668.0373                  APPROX POSITION XYZ
        1.3050        0.0000        0.0000                  ANTENNA: DELTA H/E/N
     1     1     0                                          WAVELENGTH FACT L1/2
     7    L1    L2    C1    P1    P2    S1    S2            # / TYPES OF OBSERV
    30                                                      INTERVAL
  2000     5     3    15    16    0.000000                  TIME OF FIRST OBS
  2000     5     3    21    29   60.000000                  TIME OF LAST OBS
                                                            END OF HEADER
 00  5  3 15 16  0.0000000  0  7G27G 2G26G 4G 7G 8G 9
     29183.95653                  22705402.022
       199.000          74.000
     -8304.68759     -5094.37257  19486045.747    19486047.096    19486055.811
       242.000         209.000
     17519.91359      9119.35756  21312244.184    21312245.125    21312254.479
       232.000         184.000
    -82414.58559    -46329.06356  20206274.615    20206275.147    20206285.299
       230.000         187.000
     -7823.25759     -4831.63957  18640477.026    18640477.803    18640485.994
       235.000         206.000
      3582.11453                  21566287.244
       215.000          74.000
     -5642.85753                  20760532.188
       229.000          74.000
 00  5  3 15 16 30.0000000  0  7G27G 2G26G 4G 7G 8G 9
     92279.39745                  22720811.215
       204.000         150.000
    -18126.98349    -12748.18447  19484178.062    19484177.980    19484186.803
       240.000         209.000
     42928.52659     28918.15846  21317079.669    21317080.039    21317089.963
       222.000         169.000
   -210938.38959   -146477.48247  20181817.132    20181817.903    20181827.507
       232.000         191.000
    -17037.88049    -12011.94547  18638724.292    18638724.302    18638732.583
       234.000         207.000
     61797.86245                  21580508.269                    21580519.006
       214.000         158.000
   -152298.76759    -97291.13357  20738147.409    20738148.216    20738158.577
       232.000         190.000
 00  5  3 15 17  0.0010000  0  7G27G 2G26G 4G 7G 8G 9
    212421.93848    155302.89245  25134542.547    25134543.511    25134555.933
       192.000         149.000
    -27906.49949    -20368.67047  21880657.017    21880656.669    21880665.525
       241.000         208.000
     68472.06249     48822.04746  23720280.273    23720280.534    23720290.483
       230.000         182.000
   -339330.36049   -246523.06846  22555725.038    22555725.362    22555735.026
       233.000         186.000
    -26092.35249    -19067.44547  21035341.313    21035341.054    21035349.236
       236.000         206.000
    168881.56059    119999.93555  23993061.763    23993062.269    23993071.713
       213.000         156.000
   -269759.27649   -188818.77446  23114135.893    23114136.108    23114146.320
       231.000         185.000
 00  5  3 15 17 30.0010000  0  7G27G 2G26G 4G 7G 8G 9
    293247.49249    218283.60345  25149923.541    25149924.261    25149936.928
       211.000         153.000
    -37645.57949    -27957.64047  21878803.892    21878803.411    21878812.266
       241.000         207.000
     94161.10249     68839.34546  23725168.833    23725169.015    23725178.957
       228.000         181.000
   -467645.85149   -346509.11346  22531307.589    22531307.771    22531317.477
       231.000         186.000
    -34991.02449    -26001.53247  21033648.139    21033647.752    21033655.894
       237.000         207.000
    243590.99549    178214.91345  24007278.639    24007278.338    24007289.168
       217.000         158.000
   -387115.85849   -280265.45546  23091803.942    23091803.943    23091814.083
       228.000         183.000
 00  5  3 15 18  0.0010000  0  7G27G 2G26G 4G 7G 8G 9
    374021.18959    281223.95755  25165294.431    25165295.083    25165308.355
       199.000         148.000
    -47316.99349    -35493.88647  21876963.601    21876963.051    21876971.905
       241.000         207.000
    120011.16549     88982.12246  23730088.046    23730088.207    23730098.095
       229.000         181.000
   -595827.51849   -446390.87346  22506915.449    22506915.600    22506925.299
       230.000         186.000
    -43709.21549    -32794.98647  21031989.255    21031988.751    21031996.907
       236.000         207.000
    318321.88549    236446.64945  24021499.617    24021499.246    24021510.151
       218.000         161.000
   -504314.64149   -371589.13746  23069501.727    23069501.692    23069511.844
       230.000         184.000
 00  5  3 15 18 30.0010000  0  7G27G 2G26G 4G 7G 8G 9
    454763.43449    344139.80945  25180659.369    25180659.523    25180672.662
       195.000         143.000
    -56897.45149    -42959.25447  21875140.633    21875140.010    21875148.854
       241.000         207.000
    146042.18549    109265.90046  23735041.686    23735041.808    23735051.707
       230.000         180.000
   -723849.69149   -546148.35046  22482553.689    22482553.779    22482563.471
       231.000         185.000
    -52225.76949    -39431.31847  21030368.686    21030368.119    21030376.317
       237.000         207.000
    393094.82249    294711.14745  24035728.535    24035728.134    24035739.091
       217.000         160.000
   -621330.53349   -462770.31246  23047234.408    23047234.310    23047244.470
       233.000         187.000
 00  5  3 15 19  0.0010000  0  7G27G 2G26G 4G 7G 8G 9
    535509.02348    407058.28545  25196024.658    25196024.765    25196038.174
       189.000         138.000
    -66349.12249    -50324.26747  21873342.168    21873341.473    21873350.321
       241.000         207.000
    172288.69149    129717.58946  23740036.321    23740036.391    23740046.303
       228.000         181.000
   -851671.99549   -645750.08246  22458229.892    22458229.980    22458239.686
       231.000         186.000
    -60504.94149    -45882.67747  21028793.297    21028792.682    21028800.886
       237.000         207.000
    467944.95249    353035.78245  24049972.065    24049971.668    24049982.697
       215.000         161.000
   -738123.77649   -553778.01346  23025009.555    23025009.333    23025019.500
       232.000         187.000
 00  5  3 15 19 30.0010000  0  7G27G 2G26G 4G 7G 8G 9
    616268.58648    469987.54144  25211393.061    25211392.890    25211406.382
       189.000         130.000
    -75658.58549    -57578.46747  21871570.730    21871570.000    21871578.834
       241.000         207.000
    198760.44749    150344.79146  23745073.889    23745073.863    23745083.795
       228.000         180.000
   -979278.55749   -745183.70346  22433947.153    22433947.238    22433956.936
       231.000         186.000
    -68535.75949    -52140.51247  21027265.181    21027264.500    21027272.717
       236.000         207.000
    542882.61249    411428.59345  24064232.364    24064231.885    24064243.044
       216.000         161.000
   -854679.44949   -644600.58246  23002829.744    23002829.530    23002839.686
       231.000         186.000
 00  5  3 15 20  0.0010000  0  7G27G 2G26G 4G 7G 8G 9
    697004.68248    532898.63744  25226756.626    25226756.400    25226769.959
       193.000         122.000
    -84859.89249    -64748.39447  21869819.885    21869819.099    21869827.954
       241.000         207.000
    225419.93749    171118.28946  23750147.135    23750147.045    23750156.964
       228.000         180.000
  -1106701.51049   -844474.24946  22409699.378    22409699.446    22409709.161
       230.000         186.000
    -76354.65249    -58233.21147  21025777.358    21025776.659    21025784.870
       235.000         207.000
    617870.62449    469860.63945  24078502.306    24078501.754    24078512.824
       216.000         157.000
   -971029.80049   -735263.16346  22980688.963    22980688.788    22980698.963
       232.000         187.000
 00  5  3 15 20 30.0010000  0  6G 2G26G 4G 7G 8G 9
    -93961.36449    -71840.52247  21868088.042    21868087.206    21868096.078
       240.000         207.000
    252255.44949    192028.94846  23755253.855    23755253.745    23755263.687
       229.000         179.000
  -1233946.11049   -943625.81946  22385485.500    22385485.578    22385495.297
       232.000         187.000
    -83971.77549    -64168.68347  21024327.976    21024327.212    21024335.421
       236.000         206.000
    692898.63549    528323.91445  24092779.716    24092779.171    24092790.287
       213.000         160.000
  -1087181.32949   -825770.81447  22958586.081    22958585.906    22958596.055
       233.000         188.000
 00  5  3 15 21  0.0010000  0  6G 2G26G 4G 7G 8G 9
   -102960.72849    -78853.09147  21866375.630    21866374.757    21866383.646
       241.000         207.000
    279265.88849    213075.89846  23760393.894    23760393.740    23760403.676
       229.000         179.000
  -1361008.04249  -1042635.06146  22361306.399    22361306.458    22361316.174
       232.000         187.000
    -91387.34649    -69947.09947  21022916.899    21022916.113    21022924.322
       236.000         206.000
    767965.75349    586817.57545  24107064.597    24107064.027    24107075.155
       211.000         156.000
  -1203129.94049   -916120.33147  22936521.903    22936521.637    22936531.787
       235.000         189.000
 00  5  3 15 21 30.0010000  0  7G 2G26G24G 4G 7G 8G 9
   -111845.77849    -85776.58247  21864684.945    21864684.053    21864692.968
       240.000         207.000
    306460.12949    234266.07946  23765568.938    23765568.747    23765578.648
       229.000         178.000
   -231846.10555                  24963377.839
       212.000         157.000
  -1487872.38249  -1141490.34846  22337164.897    22337164.960    22337174.664
       231.000         187.000
    -98591.12849    -75560.48447  21021546.134    21021545.319    21021553.548
       236.000         207.000
    843081.51649    645349.18945  24121358.746    24121358.121    24121369.345
       212.000         155.000
  -1318861.58449  -1006300.78247  22914498.926    22914498.654    22914508.840
       233.000         189.000
 00  5  3 15 22  0.0010000  0  7G 2G26G24G 4G 7G 8G 9
   -120594.77149    -92594.05947  21863020.154    21863019.231    21863028.189
       240.000         207.000
    333856.21549    255613.52246  23770782.369    23770782.128    23770792.070
       228.000         179.000
   -465645.64649   -344475.10745  24935872.627    24935871.052    24935887.096
       212.000         155.000
  -1614515.12649  -1240172.94047  22313065.548    22313065.612    22313075.344
       231.000         188.000
   -105563.88149    -80993.85147  21020219.332    21020218.494    21020226.735
       236.000         207.000
    918264.79449    703933.35545  24135665.822    24135665.092    24135676.375
       213.000         155.000
  -1434353.07149  -1096294.11947  22892521.673    22892521.366    22892531.548
       233.000         188.000
 00  5  3 15 22 30.0010000  0  7G 2G26G24G 4G 7G 8G 9
   -129192.17749    -99293.40347  21861384.206    21861383.268    21861392.250
       241.000         207.000
    361466.28449    277127.72146  23776036.540    23776036.231    23776046.211
       228.000         178.000
   -610296.15149   -457189.97355  24908346.593    24908346.753    24908361.505
       210.000         155.000
  -1740918.28549  -1338668.85847  22289011.803    22289011.877    22289021.615
       232.000         188.000
   -112292.14449    -86236.70347  21018939.033    21018938.193    21018946.467
       237.000         207.000
    993528.39349    762580.16445  24149988.041    24149987.378    24149998.739
       214.000         154.000
  -1549587.00449  -1186086.76047  22870593.419    22870593.080    22870603.261
       233.000         189.000
 00  5  3 15 23  0.0010000  0  7G 2G26G24G 4G 7G 8G 9
   -137685.97849   -105912.01647  21859767.949    21859767.028    21859776.016
       240.000         207.000
    389238.69249    298768.41946  23781321.573    23781321.274    23781331.266
       228.000         179.000
   -755103.12559   -570026.75245  24880790.913    24880791.016    24880806.078
       211.000         153.000
  -1867127.73649  -1437013.83947  22264994.910    22264995.001    22265004.723
       232.000         190.000
   -118826.43449    -91328.40947  21017695.687    21017694.817    21017703.095
       236.000         207.000
   1068821.38049    821249.89945  24164315.887    24164315.244    24164326.697
       211.000         156.000
  -1664609.83349  -1275714.89147  22848705.266    22848704.973    22848715.165
       235.000         192.000
 00  5  3 15 23 30.0010000  0  7G 2G26G24G 4G 7G 8G 9
   -146093.28849   -112463.23547  21858168.208    21858167.247    21858176.239
       240.000         206.000
    417153.12949    320519.78646  23786633.717    23786633.352    23786643.357
       228.000         179.000
   -900081.80549   -682997.21745  24853202.420    24853202.357    24853217.554
       198.000         139.000
  -1993157.99549  -1535219.19247  22241012.190    22241012.227    22241021.923
       233.000         190.000
   -125185.93349    -96283.90447  21016485.602    21016484.709    21016492.984
       236.000         207.000
   1144123.75249    879926.91945  24178645.614    24178644.918    24178656.402
       210.000         156.000
  -1779436.70049  -1365190.35147  22826854.479    22826854.172    22826864.338
       234.000         190.000
 00  5  3 15 24  0.0010000  0  7G 2G26G24G 4G 7G 8G 9
   -154374.92849   -118916.53547  21856592.344    21856591.372    21856600.381
       240.000         206.000
    445245.08549    342409.48146  23791979.560    23791979.190    23791989.224
       228.000         178.000
  -1045190.82349   -796069.17745  24825589.163    24825589.045    24825604.055
       200.000         135.000
  -2118967.49149  -1633252.53547  22217071.443    22217071.475    22217081.152
       234.000         189.000
   -131333.80849   -101074.50547  21015315.795    21015314.877    21015323.139
       237.000         207.000
   1219472.02949    938639.72145  24192983.920    24192983.279    24192994.889
       213.000         158.000
  -1894026.85549  -1454481.36347  22805048.745    22805048.396    22805058.528
       233.000         190.000
 00  5  3 15 24 30.0010000  0  7G 2G26G24G 4G 7G 8G 9
   -162504.47849   -125251.31947  21855045.363    21855044.426    21855053.466
       240.000         206.000
    473537.43549    364455.33146  23797363.536    23797363.164    23797373.216
       227.000         177.000
  -1190401.96949   -909220.72345  24797956.542    24797956.401    24797971.242
       201.000         135.000
  -2244527.65449  -1731091.58947  22193178.179    22193178.181    22193187.820
       233.000         190.000
   -137245.88549   -105681.36047  21014190.863    21014189.909    21014198.175
       237.000         207.000
   1294889.61049    997406.54445  24207335.716    24207334.987    24207346.442
       213.000         156.000
  -2008352.13049  -1543565.96547  22783293.388    22783293.037    22783303.102
       232.000         191.000
 00  5  3 15 25  0.0010000  0  7G 2G26G24G 4G 7G 8G 9
   -170474.68849   -131461.93547  21853528.741    21853527.811    21853536.874
       240.000         206.000
    502034.02249    386660.32546  23802786.397    23802786.005    23802796.081
       227.000         178.000
  -1335706.23349  -1022444.78245  24770306.088    24770305.729    24770320.705
       206.000         137.000
  -2369828.72149  -1828728.74547  22169334.163    22169334.166    22169343.815
       233.000         191.000
   -142917.21949   -110100.62047  21013111.692    21013110.743    21013119.031
       237.000         207.000
   1370381.06949   1056230.88245  24221701.520    24221700.634    24221712.167
       215.000         158.000
  -2122403.42549  -1632437.06647  22761590.133    22761589.806    22761599.835
       233.000         192.000
 00  5  3 15 25 30.0010000  0  7G 2G26G24G 4G 7G 8G 9
   -178298.59149   -137558.55047  21852040.023    21852039.043    21852048.131
       240.000         206.000
    530718.02249    409011.35046  23808244.909    23808244.506    23808254.588
       228.000         178.000
  -1481114.76349  -1135750.05145  24742635.648    24742635.411    24742650.128
       203.000         133.000
  -2494881.51449  -1926172.44847  22145537.370    22145537.395    22145547.050
       234.000         191.000
   -148363.22049   -114344.30647  21012075.425    21012074.465    21012082.768
       237.000         207.000
   1445930.33149   1115100.27245  24236078.238    24236077.283    24236088.849
       214.000         152.000
  -2236192.35449  -1721103.73547  22739936.876    22739936.499    22739946.494
       234.000         192.000
 00  5  3 15 26  0.0010000  0  7G 2G26G24G 4G 7G 8G 9
   -185967.14349   -143534.11447  21850580.829    21850579.838    21850588.935
       239.000         205.000
    559595.04849    431512.79046  23813740.198    23813739.754    23813749.831
       228.000         177.000
  -1626616.56649  -1249127.96045  24714947.477    24714947.294    24714961.875
       210.000         138.000
  -2619674.48449  -2023413.69847  22121790.111    22121790.067    22121799.718
       233.000         191.000
   -153577.06549   -118407.09747  21011083.299    21011082.358    21011090.680
       237.000         207.000
   1521543.75949   1174019.66445  24250467.022    24250466.115    24250477.761
       214.000         151.000
  -2349707.99549  -1809557.45347  22718335.566    22718335.194    22718345.159
       233.000         192.000
 00  5  3 15 26 30.0010000  0  7G 2G26G24G 4G 7G 8G 9
   -193492.97949   -149398.46947  21849148.796    21849147.796    21849156.911
       239.000         206.000
    588649.11449    454152.17246  23819269.113    23819268.672    23819278.856
       227.000         177.000
  -1772222.16849  -1362586.70645  24687239.971    24687239.567    24687254.224
       210.000         147.000
  -2744217.98049  -2120460.54247  22098090.199    22098090.200    22098099.883
       234.000         191.000
   -158573.56349   -122300.52847  21010132.565    21010131.615    21010139.941
       238.000         208.000
   1597205.91549   1232977.05245  24264865.273    24264864.317    24264875.900
       213.000         148.000
  -2462961.31649  -1897806.76447  22696784.196    22696783.811    22696793.761
       234.000         193.000
 00  5  3 15 27  0.0000000  0  7G 2G26G24G 4G 7G 8G 9
   -200835.81949   -155120.22947  21847751.597    21847750.589    21847759.707
       240.000         206.000
    617915.59249    476957.07446  23824838.464    23824838.009    23824848.221
       226.000         174.000
  -1917884.92249  -1476089.99145  24659521.370    24659520.926    24659535.589
       209.000         149.000
  -2868465.54249  -2217276.80147  22074446.608    22074446.659    22074456.343
       234.000         192.000
   -163314.94349   -125995.16347  21009230.400    21009229.432    21009237.747
       238.000         208.000
   1672951.28749   1291999.29445  24279279.347    24279278.319    24279289.835
       213.000         151.000
  -2575906.76349  -1985816.19447  22675291.415    22675291.008    22675300.954
       234.000         193.000
 00  5  3 15 27 30.0000000  0  7G 2G26G24G 4G 7G 8G 9
   -208005.91549   -160707.38347  21846387.275    21846386.256    21846395.368
       240.000         206.000
    647383.30549    499918.77746  23830446.168    23830445.675    23830455.908
       228.000         176.000
  -2063622.10249  -1589651.19145  24631788.430    24631788.008    24631802.671
       206.000         148.000
  -2992432.73349  -2313874.57747  22050856.408    22050856.475    22050866.173
       234.000         192.000
   -167813.25949   -129500.40147  21008374.530    21008373.510    21008381.817
       239.000         208.000
   1748772.51449   1351080.61445  24293707.703    24293706.746    24293718.295
       213.000         152.000
  -2688559.90149  -2073597.81147  22653854.188    22653853.817    22653863.778
       234.000         194.000
 00  5  3 15 28  0.0000000  0  7G 2G26G24G 4G 7G 8G 9
   -215036.99649   -166186.21847  21845049.412    21845048.353    21845057.488
       240.000         205.000
    677013.69849    523007.26646  23836084.804    23836084.286    23836094.575
       228.000         177.000
  -2209461.04749  -1703291.66545  24604036.127    24604035.731    24604050.453
       209.000         150.000
  -3116147.13249  -2410275.36547  22027314.367    22027314.397    22027324.126
       234.000         192.000
   -172104.86949   -132844.57047  21007557.987    21007556.929    21007565.210
       238.000         208.000
   1824630.39949   1410190.54045  24308143.290    24308142.152    24308153.753
       215.000         153.000
  -2800949.28249  -2161173.90447  22632467.207    22632466.840    22632476.800
       234.000         194.000
 00  5  3 15 28 30.0000000  0  7G 2G26G24G 4G 7G 8G 9
   -221897.86349   -171532.41547  21843743.926    21843742.836    21843751.985
       240.000         205.000
    706834.41049    546244.05146  23841759.607    23841759.083    23841769.381
       226.000         175.000
  -2355368.53549  -1816985.57845  24576270.822    24576270.493    24576285.157
       212.000         151.000
  -3239575.03449  -2506452.90747  22003826.784    22003826.828    22003836.576
       234.000         193.000
   -176160.62549   -136004.95047  21006786.280    21006785.218    21006793.479
       238.000         208.000
   1900553.02249   1469350.85645  24322591.210    24322589.962    24322601.563
       212.000         153.000
  -2913042.09849  -2248518.91647  22611136.653    22611136.271    22611146.219
       235.000         195.000
 00  5  3 15 29  0.0000000  0  7G 2G26G24G 4G 7G 8G 9
   -228580.36049   -176739.62647  21842472.350    21842471.276    21842480.438
       239.000         205.000
    736850.07449    569632.73546  23847471.446    23847470.995    23847481.331
       225.000         175.000
  -2501334.72949  -1930725.29445  24548494.105    24548493.944    24548508.654
       211.000         150.000
  -3362706.22849  -2602399.24247  21980395.664    21980395.716    21980405.489
       234.000         193.000
   -179974.78749   -138977.08447  21006060.537    21006059.469    21006067.735
       238.000         209.000
   1976545.64749   1528565.64845  24337052.287    24337050.959    24337062.729
       207.000         149.000
  -3024828.31849  -2335625.03047  22589864.436    22589864.046    22589873.989
       236.000         195.000
 00  5  3 15 29 30.0000000  0  7G 2G26G24G 4G 7G 8G 9
   -235079.21849   -181803.73847  21841235.743    21841234.670    21841243.837
       240.000         206.000
    767062.44949    593174.71146  23853220.769    23853220.326    23853230.683
       226.000         176.000
  -2647352.12149  -2044504.88845  24520707.759    24520707.711    24520722.375
       209.000         149.000
  -3485532.94549  -2698108.32547  21957022.531    21957022.555    21957032.340
       235.000         194.000
   -183544.28249   -141758.57147  21005381.338    21005380.290    21005388.546
       238.000         209.000
   2052611.03549   1587837.19445  24351527.195    24351525.903    24351537.845
       208.000         149.000
  -3136300.94649  -2422486.77747  22568651.926    22568651.520    22568661.435
       235.000         195.000
 00  5  3 15 30  0.0000000  0  7G 2G26G24G 4G 7G 8G 9
   -241383.30349   -186716.07747  21840036.219    21840035.124    21840044.323
       240.000         206.000
    797478.95949    616875.76146  23859008.977    23859008.538    23859018.898
       226.000         175.000
  -2793407.98849  -2158314.52945  24492914.214    24492914.096    24492928.839
       213.000         151.000
  -3608041.84249  -2793569.75147  21933709.831    21933709.879    21933719.642
       234.000         193.000
   -186860.36949   -144342.60547  21004750.367    21004749.318    21004757.579
       238.000         209.000
   2128757.25749   1647171.77345  24366017.601    24366016.238    24366028.228
       206.000         154.000
  -3247447.40649  -2509094.37747  22547501.362    22547501.012    22547510.926
       234.000         194.000
 00  5  3 15 30 30.0000000  0  7G 2G26G24G 4G 7G 8G 9
   -247483.79349   -191469.76647  21838875.429    21838874.328    21838883.535
       240.000         205.000
    828104.95249    640740.03546  23864837.062    23864836.586    23864847.013
       226.000         174.000
  -2939490.85549  -2272145.06245  24465115.530    24465115.367    24465130.041
       215.000         154.000
  -3730221.96049  -2888774.97747  21910459.733    21910459.761    21910469.512
       235.000         194.000
   -189916.53849   -146724.09847  21004168.856    21004167.810    21004176.086
       238.000         209.000
   2204990.32849   1706573.97445  24380524.168    24380523.016    24380535.071
       205.000         151.000
  -3358257.13049  -2595439.57647  22526414.972    22526414.597    22526424.517
       235.000         195.000
 00  5  3 15 31  0.0000000  0  7G 2G26G24G 4G 7G 8G 9
   -253394.73149   -196075.74747  21837750.708    21837749.592    21837758.805
       240.000         205.000
    858922.82849    664753.83846  23870701.693    23870701.182    23870711.581
       226.000         174.000
  -3085613.40949  -2386006.63745  24437309.242    24437309.054    24437323.690
       212.000         151.000
  -3852085.02649  -2983733.13947  21887269.933    21887269.974    21887279.733
       235.000         194.000
   -192729.07149   -148915.75647  21003633.704    21003632.652    21003640.957
       238.000         209.000
   2281293.10849   1766030.38545  24395044.211    24395043.016    24395055.174
       208.000         148.000
  -3468742.42449  -2681531.97847  22505390.268    22505389.945    22505399.836
       236.000         195.000
 00  5  3 15 31 30.0000000  0  7G 2G26G24G 4G 7G 8G 9
   -259121.87349   -200538.51247  21836660.946    21836659.824    21836669.041
       240.000         205.000
    889923.27849    688909.89246  23876601.068    23876600.508    23876610.947
       226.000         174.000
  -3231779.15949  -2499901.89245  24409494.630    24409494.549    24409509.195
       207.000         146.000
  -3973634.43949  -3078446.90647  21864139.890    21864139.897    21864149.626
       236.000         195.000
   -195306.02349   -150923.83947  21003143.391    21003142.330    21003150.642
       239.000         209.000
   2357657.38749   1825534.84145  24409575.849    24409574.823    24409587.114
       205.000         152.000
  -3578907.44549  -2767374.83647  22484426.589    22484426.235    22484436.097
       235.000         194.000
 00  5  3 15 32  0.0000000  0  7G 2G26G24G 4G 7G 8G 9
   -264659.96349   -204853.96147  21835607.101    21835606.015    21835615.253
       239.000         204.000
    921108.06649    713209.59246  23882535.382    23882534.869    23882545.377
       225.000         174.000
  -3377980.80649  -2613825.07045  24381673.200    24381673.209    24381687.878
       210.000         148.000
  -4094862.28949  -3172910.09647  21841071.033    21841070.994    21841080.707
       236.000         195.000
   -197644.14049   -152745.80647  21002698.514    21002697.469    21002705.786
       239.000         209.000
   2434085.41149   1885088.95545  24424119.815    24424118.762    24424131.054
       209.000         154.000
  -3688745.12549  -2852962.60547  22463525.173    22463524.810    22463534.649
       236.000         195.000
 00  5  3 15 32 30.0000000  0  7G 2G26G24G 4G 7G 8G 9
   -269988.56649   -209006.17147  21834593.125    21834592.085    21834601.330
       239.000         204.000
    952494.08349    737666.07546  23888508.065    23888507.546    23888518.061
       225.000         173.000
  -3524195.86749  -2727758.75245  24353849.318    24353849.336    24353864.012
       210.000         151.000
  -4215746.10849  -3267105.21047  21818067.621    21818067.569    21818077.232
       236.000         196.000
   -199725.29949   -154367.56147  21002302.580    21002301.520    21002309.820
       239.000         209.000
   2510594.92849   1944706.57645  24438679.346    24438678.212    24438690.478
       214.000         158.000
  -3798233.28649  -2938278.02247  22442690.252    22442689.932    22442699.733
       236.000         195.000
 00  5  3 15 33  0.0000000  0  7G 2G26G24G 4G 7G 8G 9
   -275109.37449   -212996.46547  21833618.672    21833617.691    21833626.942
       239.000         204.000
    984076.18349    762275.37746  23894518.078    23894517.545    23894528.056
       226.000         172.000
  -3670424.04549  -2841702.66445  24326022.849    24326022.894    24326037.634
       208.000         150.000
  -4336285.52349  -3361031.95647  21795129.729    21795129.662    21795139.287
       237.000         196.000
   -201553.48049   -155792.18647  21001954.756    21001953.686    21001962.006
       240.000         209.000
   2587181.45949   2004384.16445  24453253.605    24453252.340    24453264.652
       216.000         158.000
  -3907372.12049  -3023321.23447  22421921.875    22421921.498    22421931.276
       235.000         194.000
 00  5  3 15 33 30.0000000  0  7G 2G26G24G 4G 7G 8G 9
   -280043.64049   -216841.40147  21832679.799    21832678.787    21832688.057
       239.000         203.000
   1015829.38749    787017.98846  23900560.575    23900560.072    23900570.617
       226.000         173.000
  -3816684.52849  -2955671.70245  24298190.403    24298190.321    24298205.154
       212.000         153.000
  -4456499.20449  -3454704.88247  21772253.863    21772253.749    21772263.343
       237.000         196.000
   -203152.06649   -157037.89947  21001650.625    21001649.555    21001657.888
       240.000         209.000
   2663821.06049   2064103.15045  24467837.803    24467836.532    24467848.844
       213.000         154.000
  -4016181.01949  -3108107.35547  22401216.236    22401215.872    22401225.599
       236.000         195.000
 00  5  3 15 34  0.0000000  0  7G 2G26G24G 4G 7G 8G 9
   -284772.16849   -220526.02947  21831780.048    21831779.043    21831788.303
       239.000         203.000
   1047769.34749    811906.12746  23906638.664    23906638.143    23906648.744
       226.000         172.000
  -3962956.10649  -3069649.46545  24270355.806    24270355.725    24270370.605
       215.000         159.000
  -4576365.98749  -3548107.50547  21749443.941    21749443.850    21749453.386
       237.000         197.000
   -204504.39049   -158091.72347  21001393.354    21001392.288    21001400.639
       240.000         210.000
   2740529.71049   2123875.96745  24482435.107    24482433.883    24482446.149
       214.000         154.000
  -4124639.17149  -3192620.17547  22380577.391    22380576.998    22380586.668
       238.000         195.000
 00  5  3 15 34 30.0000000  0  7G 2G26G24G 4G 7G 8G 9
   -289305.23749   -224058.35047  21830917.497    21830916.481    21830925.736
       239.000         203.000
   1079882.25049    836929.05446  23912749.645    23912749.140    23912759.725
       227.000         171.000
  -4109247.09249  -3183642.35945  24242517.541    24242517.393    24242532.266
       215.000         156.000
  -4695893.68149  -3641245.89747  21726698.538    21726698.475    21726707.970
       237.000         197.000
   -205622.91949   -158963.36747  21001180.605    21001179.511    21001187.871
       240.000         210.000
   2817294.34649   2183692.37545  24497043.020    24497041.786    24497054.213
       210.000         142.000
  -4232755.18749  -3276866.40547  22360003.612    22360003.204    22360012.861
       236.000         195.000
 00  5  3 15 35  0.0000000  0  7G 2G26G24G 4G 7G 8G 9
   -293578.95449   -227388.58647  21830104.287    21830103.284    21830112.533
       238.000         203.000
   1112228.47349    862133.75546  23918905.083    23918904.535    23918915.118
       225.000         170.000
  -4255491.42349  -3297598.89445  24214688.025    24214687.894    24214702.628
       212.000         149.000
  -4815016.31849  -3734068.67447  21704030.244    21704030.172    21704039.637
       237.000         198.000
   -206445.85449   -159604.68547  21001024.044    21001022.982    21001031.339
       240.000         210.000
   2894176.18449   2243600.09445  24511673.375    24511672.112    24511684.578
       211.000         152.000
  -4340463.55549  -3360794.97747  22339507.377    22339506.962    22339516.645
       237.000         196.000
 00  5  3 15 35 30.0000000  0  7G 2G26G24G 4G 7G 8G 9
   -297674.14549   -230579.70847  21829324.980    21829324.039    21829333.321
       238.000         203.000
   1144723.64749    887454.52346  23925088.751    23925088.236    23925098.886
       223.000         168.000
  -4401767.94749  -3411580.51845  24186852.401    24186852.301    24186866.868
       217.000         152.000
  -4933812.28449  -3826636.89947  21681424.041    21681424.020    21681433.482
       237.000         198.000
   -207056.38649   -160080.48847  21000907.922    21000906.868    21000915.231
       240.000         210.000
   2971091.48749   2303533.87945  24526310.295    24526308.892    24526321.147
       204.000         147.000
  -4447843.55449  -3444467.68447  22319073.715    22319073.277    22319082.902
       237.000         196.000
 00  5  3 15 36  0.0000000  0  7G 2G26G24G 4G 7G 8G 9
   -301548.42049   -233598.68947  21828587.810    21828586.837    21828596.166
       239.000         203.000
   1177406.59649    912921.60346  23931308.211    23931307.725    23931318.354
       224.000         168.000
  -4548032.17249  -3525552.57845  24159019.177    24159019.117    24159033.491
       215.000         146.000
  -5052237.08749  -3918915.91847  21658888.541    21658888.517    21658897.940
       237.000         198.000
   -207414.28149   -160359.43347  21000839.891    21000838.822    21000847.200
       240.000         210.000
   3048080.06849   2363524.82545  24540960.778    24540959.481    24540971.668
       207.000         144.000
  -4554850.80149  -3527849.93847  22298710.943    22298710.488    22298720.117
       237.000         196.000
 00  5  3 15 36 30.0000000  0  7G 2G26G24G 4G 7G 8G 9
   -305229.30849   -236466.98047  21827887.449    21827886.453    21827895.797
       239.000         203.000
   1210246.05849    938510.65046  23937557.452    23937556.959    23937567.638
       224.000         169.000
  -4694309.74849  -3639535.08545  24131183.379    24131183.330    24131197.584
       210.000         146.000
  -5170316.25249  -4010925.60447  21636418.826    21636418.791    21636428.178
       238.000         198.000
   -207549.45049   -160464.82247  21000814.258    21000813.181    21000821.550
       240.000         210.000
   3125111.16249   2423548.81545  24555619.524    24555618.206    24555630.450
       206.000         147.000
  -4661511.36849  -3610962.04447  22278414.149    22278413.675    22278423.275
       237.000         196.000
 00  5  3 15 37  0.0000000  0  7G 2G26G24G 4G 7G 8G 9
   -308714.28949   -239182.62147  21827224.391    21827223.362    21827232.682
       239.000         202.000
   1243241.04149    964220.88446  23943836.285    23943835.796    23943846.529
       223.000         168.000
  -4840595.92649  -3753524.19445  24103346.083    24103345.905    24103360.127
       215.000         151.000
  -5288044.68749  -4102661.99947  21614015.787    21614015.789    21614025.175
       237.000         198.000
   -207461.60849   -160396.43547  21000831.063    21000829.962    21000838.349
       240.000         210.000
   3202184.68649   2483605.91345  24570286.081    24570284.908    24570297.127
       207.000         138.000
  -4767821.02649  -3693800.71247  22258184.101    22258183.613    22258193.199
       237.000         196.000
 00  5  3 15 37 30.0000000  0  7G 2G26G24G 4G 7G 8G 9
   -311982.20949   -241729.13247  21826602.603    21826601.567    21826610.866
       239.000         202.000
   1276409.24049    990066.06846  23950148.116    23950147.610    23950158.390
       225.000         172.000
  -4986867.54449  -3867502.00945  24075511.570    24075511.368    24075525.437
       211.000         154.000
  -5405399.37149  -4194107.17147  21591683.910    21591683.899    21591693.263
       238.000         198.000
   -207131.68649   -160139.41747  21000893.859    21000892.804    21000901.203
       240.000         210.000
   3279318.99449   2543710.32545  24584964.501    24584963.194    24584975.643
       208.000         143.000
  -4873756.98449  -3776348.18047  22238025.113    22238024.658    22238034.251
       237.000         197.000
 00  5  3 15 38  0.0000000  0  8G 2G26G24G 4G 5G 7G 8G 9
   -315079.94549   -244143.02147  21826013.154    21826012.130    21826021.454
       238.000         202.000
   1309700.23949   1016006.93946  23956483.282    23956482.768    23956493.651
       223.000         170.000
  -5133169.21749  -3981503.19045  24047671.170    24047670.966    24047685.160
       213.000         155.000
  -5522424.80949  -4285295.79047  21569414.700    21569414.675    21569424.026
       238.000         198.000
   -291019.75859   -213454.43855  25206325.820    25206324.619    25206340.664
       203.000         137.000
   -206608.74949   -159731.99347  21000993.411    21000992.365    21001000.776
       240.000         209.000
   3356464.31249   2603823.36545  24599645.215    24599643.766    24599656.075
       210.000         153.000
  -4979364.62249  -3858639.81247  22217928.608    22217928.172    22217937.743
       238.000         197.000
 00  5  3 15 38 30.0000000  0  8G 2G26G24G 4G 5G 7G 8G 9
   -318071.16349   -246473.91047  21825444.008    21825442.979    21825452.310
       238.000         202.000
   1343046.72549   1041991.04246  23962829.037    23962828.523    23962839.494
       225.000         171.000
  -5279562.68549  -4095575.93045  24019813.386    24019813.161    24019827.294
       215.000         157.000
  -5639182.58049  -4376275.83947  21547196.337    21547196.368    21547205.718
       237.000         198.000
   -412392.12849   -308030.53555  25183229.506    25183228.404    25183241.944
       196.000         136.000
   -205958.89449   -159225.66947  21001117.112    21001116.078    21001124.486
       240.000         209.000
   3433554.21749   2663893.21645  24614315.180    24614313.689    24614326.014
       212.000         148.000
  -5084706.07949  -3940724.03847  22197882.838    22197882.379    22197891.906
       239.000         198.000
 00  5  3 15 39  0.0000000  0  8G 2G26G24G 4G 5G 7G 8G 9
   -320898.64549   -248677.21347  21824906.021    21824904.990    21824914.340
       238.000         202.000
   1376502.30849   1068060.18546  23969195.585    23969195.064    23969206.042
       226.000         171.000
  -5425988.88749  -4209674.22745  23991949.324    23991949.130    23991963.184
       212.000         154.000
  -5755613.15649  -4467000.93947  21525040.268    21525040.329    21525049.661
       238.000         198.000
   -533881.95959   -402698.06945  25160110.956    25160111.018    25160124.191
       208.000         140.000
   -205127.09849   -158577.57847  21001275.445    21001274.419    21001282.824
       240.000         210.000
   3510643.05249   2723962.25845  24628984.878    24628983.353    24628995.689
       208.000         148.000
  -5189722.32749  -4022554.85547  22177898.913    22177898.441    22177907.959
       238.000         198.000
 00  5  3 15 39 30.0000000  0  8G 2G26G24G 4G 5G 7G 8G 9
   -323526.89849   -250725.26947  21824405.983    21824404.908    21824414.294
       238.000         202.000
   1410098.87749   1094239.15746  23975588.989    23975588.405    23975599.424
       224.000         170.000
  -5572409.99249  -4323768.46845  23964086.151    23964086.025    23964100.016
       214.000         154.000
  -5871678.92749  -4557441.77547  21502953.688    21502953.730    21502963.028
       238.000         198.000
   -655453.84149   -497429.58745  25136976.833    25136976.632    25136990.309
       209.000         143.000
   -204080.14249   -157761.82547  21001474.727    21001473.705    21001482.120
       240.000         210.000
   3587763.40349   2784055.83645  24643660.488    24643659.027    24643671.392
       211.000         145.000
  -5294376.39949  -4104103.45347  22157983.902    22157983.440    22157992.947
       238.000         199.000
 00  5  3 15 40  0.0000000  0  8G 2G26G24G 4G 5G 7G 8G 9
   -325936.58349   -252603.01047  21823947.448    21823946.413    21823955.821
       237.000         202.000
   1443852.36949   1120540.43146  23982012.260    23982011.631    23982022.660
       225.000         171.000
  -5718804.42849  -4437841.94445  23936228.207    23936228.067    23936242.002
       216.000         155.000
  -5987358.50349  -4647581.68047  21480940.516    21480940.590    21480949.889
       238.000         199.000
   -777088.59349   -592210.09645  25113830.721    25113830.298    25113843.986
       210.000         142.000
   -202800.79049   -156764.97647  21001718.265    21001717.225    21001725.645
       241.000         210.000
   3664931.85949   2844186.86545  24658345.414    24658343.952    24658356.282
       207.000         143.000
  -5398647.07849  -4185353.30147  22138141.832    22138141.377    22138150.909
       238.000         199.000
 00  5  3 15 40 30.0000000  0  8G 2G26G24G 4G 5G 7G 8G 9
   -328162.76449   -254337.76947  21823523.842    21823522.838    21823532.276
       238.000         202.000
   1477724.29149   1146933.96546  23988458.112    23988457.397    23988468.408
       223.000         170.000
  -5865205.11549  -4551920.28545  23908369.036    23908368.871    23908382.833
       215.000         155.000
  -6102684.66149  -4737446.19647  21458994.671    21458994.715    21459004.016
       239.000         198.000
   -898821.63749   -687067.17145  25090665.732    25090665.200    25090678.971
       213.000         143.000
   -201326.13349   -155615.94047  21001998.954    21001997.911    21002006.338
       241.000         209.000
   3742110.71749   2904326.07445  24673032.236    24673030.767    24673043.039
       209.000         144.000
  -5502567.80749  -4266330.45647  22118366.355    22118365.920    22118375.445
       238.000         199.000
 00  5  3 15 41  0.0000000  0  8G 2G26G24G 4G 5G 7G 8G 9
   -330202.66649   -255927.37947  21823135.708    21823134.723    21823144.163
       238.000         201.000
   1511713.92249   1173419.23346  23994926.198    23994925.526    23994936.599
       224.000         171.000
  -6011607.30349  -4665999.85245  23880509.472    23880509.365    23880523.251
       214.000         155.000
  -6217652.23849  -4827031.31047  21437117.047    21437117.096    21437126.365
       238.000         199.000
  -1020650.24249   -781998.74345  25067482.762    25067482.090    25067495.837
       212.000         146.000
   -199655.66349   -154314.32447  21002316.874    21002315.841    21002324.276
       240.000         209.000
   3819299.98649   2964473.33245  24687721.274    24687719.584    24687731.987
       210.000         150.000
  -5606134.05449  -4347031.39647  22098658.335    22098657.908    22098667.439
       239.000         200.000
 00  5  3 15 41 30.0000000  0  8G 2G26G24G 4G 5G 7G 8G 9
   -332060.97149   -257375.48047  21822782.162    21822781.171    21822790.609
       238.000         202.000
   1545812.89449   1199989.69246  24001415.171    24001414.500    24001425.603
       226.000         171.000
  -6158013.41849  -4780082.44446  23852649.244    23852649.148    23852663.006
       217.000         163.000
  -6332264.07049  -4916339.21047  21415307.101    21415307.156    21415316.429
       238.000         199.000
  -1142579.72349   -877008.85245  25044280.535    25044279.767    25044293.429
       214.000         151.000
   -197796.27149   -152865.49947  21002670.748    21002669.720    21002678.167
       240.000         209.000
   3896492.05749   3024622.76345  24702410.623    24702408.965    24702421.345
       206.000         145.000
  -5709349.17549  -4427458.72047  22079017.064    22079016.695    22079026.221
       238.000         200.000
 00  5  3 15 42  0.0000000  0  8G 2G26G24G 4G 5G 7G 8G 9
   -333737.52649   -258681.95947  21822463.229    21822462.206    21822471.650
       238.000         201.000
   1580017.86249   1226642.76446  24007924.317    24007923.662    24007934.790
       227.000         170.000
  -6304421.16749  -4894166.28645  23824788.768    23824788.602    23824802.500
       216.000         160.000
  -6446517.71749  -5005368.01247  21393565.375    21393565.390    21393574.613
       238.000         199.000
  -1264610.13049   -972097.61545  25021059.025    25021058.245    25021071.889
       210.000         141.000
   -195749.99449   -151271.04447  21003060.167    21003059.158    21003067.621
       240.000         209.000
   3973684.42949   3084772.41645  24717099.986    24717098.398    24717110.821
       210.000         146.000
  -5812211.19249  -4507610.89447  22059442.997    22059442.654    22059452.220
       239.000         200.000
 00  5  3 15 42 30.0000000  0  8G 2G26G24G 4G 5G 7G 8G 9
   -335251.59849   -259861.82147  21822175.200    21822174.158    21822183.618
       237.000         201.000
   1614305.93149   1253360.57046  24014449.284    24014448.609    24014459.720
       224.000         167.000
  -6450847.83549  -5008264.91745  23796924.625    23796924.467    23796938.222
       217.000         156.000
  -6560430.29849  -5094131.04347  21371888.505    21371888.526    21371897.722
       238.000         199.000
  -1386760.96949  -1067280.15645  24997814.691    24997813.858    24997827.421
       216.000         150.000
   -193538.40449   -149547.76847  21003481.075    21003480.057    21003488.525
       241.000         209.000
   4050854.81149   3144905.02945  24731785.250    24731783.694    24731796.047
       208.000         152.000
  -5914738.03749  -4587501.90147  22039932.686    22039932.384    22039941.988
       237.000         200.000
 00  5  3 15 43  0.0000000  0  8G 2G26G24G 4G 5G 7G 8G 9
   -336591.85849   -260906.25547  21821920.223    21821919.174    21821928.670
       237.000         201.000
   1648684.63149   1280148.99746  24020991.453    24020990.782    24021001.890
       223.000         166.000
  -6597280.09349  -5122367.89445  23769059.492    23769059.263    23769072.990
       220.000         159.000
  -6673988.85449  -5182618.21547  21350278.994    21350279.035    21350288.223
       238.000         199.000
  -1509021.21449  -1162548.01245  24974549.351    24974548.579    24974562.181
       216.000         149.000
   -191152.45349   -147688.63147  21003935.160    21003934.142    21003942.598
       240.000         209.000
   4128011.91049   3205027.18945  24746467.960    24746466.387    24746478.861
       204.000         145.000
  -6016916.83749  -4667121.69847  22020488.657    22020488.364    22020498.006
       237.000         200.000
 00  5  3 15 43 30.0000000  0  8G 2G26G24G 4G 5G 7G 8G 9
   -337749.43949   -261808.34747  21821699.972    21821698.944    21821708.466
       238.000         201.000
   1683159.68149   1307012.48146  24027551.962    24027551.337    24027562.411
       223.000         168.000
  -6743706.61949  -5236466.35845  23741195.581    23741195.224    23741208.911
       217.000         158.000
  -6787181.84249  -5270820.52747  21328739.049    21328739.092    21328748.285
       238.000         199.000
  -1631382.08749  -1257894.30345  24951265.087    24951264.171    24951277.690
       215.000         150.000
   -188585.21549   -145688.22647  21004423.716    21004422.710    21004431.185
       240.000         209.000
   4205161.81249   3265143.77645  24761149.280    24761147.585    24761160.228
       211.000         148.000
  -6118736.76249  -4746461.84847  22001112.973    22001112.647    22001122.305
       238.000         200.000
 00  5  3 15 44  0.0000000  0  8G 2G26G24G 4G 5G 7G 8G 9
   -338725.79049   -262569.21047  21821514.269    21821513.227    21821522.770
       238.000         201.000
   1717726.10049   1333947.19246  24034129.837    24034129.226    24034140.330
       223.000         168.000
  -6890126.93149  -5350560.06245  23713332.545    23713332.284    23713345.876
       218.000         152.000
  -6900008.97649  -5358737.75847  21307268.778    21307268.788    21307277.968
       238.000         199.000
  -1753845.54949  -1353320.44645  24927961.241    24927960.185    24927973.674
       214.000         147.000
   -185840.35749   -143549.41647  21004946.080    21004945.082    21004953.567
       240.000         209.000
   4282300.09949   3325251.38945  24775828.278    24775826.666    24775839.326
       206.000         143.000
  -6220198.02549  -4825522.52847  21981805.505    21981805.181    21981814.808
       237.000         200.000
 00  5  3 15 44 30.0000000  0  8G 2G26G24G 4G 5G 7G 8G 9
   -339509.81749   -263180.21947  21821365.185    21821364.122    21821373.646
       238.000         201.000
   1752391.25949   1360958.84746  24040726.532    24040725.949    24040737.036
       223.000         166.000
  -7036527.65549  -5464638.49245  23685473.411    23685473.116    23685486.594
       215.000         158.000
  -7012456.98849  -5446359.56147  21285870.598    21285870.624    21285879.809
       238.000         199.000
  -1876400.45849  -1448817.94045  24904639.903    24904638.909    24904652.381
       212.000         137.000
   -182909.16649   -141265.40947  21005503.875    21005502.892    21005511.402
       241.000         208.000
   4359435.25949   3385356.51045  24790506.698    24790505.083    24790517.869
       202.000         145.000
  -6321287.78149  -4904293.72247  21962568.727    21962568.414    21962577.996
       238.000         200.000
 00  5  3 15 45  0.0000000  0  8G 2G26G24G 4G 5G 7G 8G 9
   -340125.04449   -263659.69747  21821248.210    21821247.121    21821256.657
       238.000         201.000
   1787128.02249   1388026.29346  24047336.801    24047336.259    24047347.350
       221.000         167.000
  -7182930.25049  -5578718.23245  23657613.699    23657613.531    23657627.179
       216.000         161.000
  -7124547.35149  -5533702.68547  21264540.470    21264540.526    21264549.708
       238.000         199.000
  -1999070.79549  -1544405.34645  24881296.647    24881295.670    24881308.949
       213.000         138.000
   -179817.23849   -138856.15447  21006092.271    21006091.307    21006099.834
       241.000         209.000
   4436540.77849   3445438.45345  24805179.510    24805178.056    24805190.805
       204.000         140.000
  -6422028.28949  -4982792.77647  21943398.441    21943398.116    21943407.671
       238.000         202.000
 00  5  3 15 45 30.0000000  0  8G 2G26G24G 4G 5G 7G 8G 9
   -340567.35749   -264004.43347  21821164.123    21821163.020    21821172.591
       237.000         201.000
   1821937.19449   1415150.14346  24053960.938    24053960.370    24053971.513
       223.000         167.000
  -7329328.39349  -5692794.60745  23629754.869    23629754.853    23629768.393
       215.000         154.000
  -7236273.86749  -5620762.28647  21243279.676    21243279.670    21243288.837
       238.000         200.000
  -2121852.48849  -1640079.52545  24857932.263    24857931.171    24857944.513
       213.000         148.000
   -176562.58349   -136320.09747  21006711.701    21006710.701    21006719.217
       241.000         209.000
   4513618.11548   3505498.63144  24819846.817    24819845.551    24819858.152
       191.000         126.000
  -6522413.31249  -5061014.82847  21924295.756    21924295.453    21924305.005
       237.000         201.000
 00  5  3 15 46  0.0000000  0  8G 2G26G24G 4G 5G 7G 8G 9
   -340860.77449   -264233.14247  21821108.355    21821107.257    21821116.850
       238.000         201.000
   1856791.17349   1442308.92246  24060593.530    24060593.012    24060604.136
       221.000         165.000
  -7475743.66849  -5806884.28645  23601892.803    23601892.812    23601906.381
       218.000         161.000
  -7347658.37549  -5707555.38447  21222083.875    21222083.891    21222093.055
       238.000         200.000
  -2244769.59949  -1735859.17445  24834542.002    24834540.788    24834554.199
       204.000         140.000
   -173171.24749   -133677.53647  21007357.119    21007356.096    21007364.608
       241.000         209.000
   4590640.87949   3565516.14144  24834503.960    24834502.512    24834515.597
       197.000         124.000
  -6622465.51749  -5138977.53047  21905256.462    21905256.120    21905265.708
       238.000         201.000
 00  5  3 15 46 30.0000000  0  8G 2G26G24G 4G 5G 7G 8G 9
   -340983.34249   -264328.71847  21821085.086    21821084.003    21821093.605
       237.000         200.000
   1891708.42949   1469517.01046  24067238.285    24067237.673    24067248.838
       224.000         169.000
  -7622152.27349  -5920968.71445  23574032.129    23574032.038    23574045.745
       213.000         161.000
  -7458677.10349  -5794063.45247  21200957.716    21200957.719    21200966.872
       238.000         200.000
  -2367800.36849  -1831727.40645  24811130.043    24811128.891    24811142.235
       206.000         136.000
   -169623.50649   -130913.10147  21008032.261    21008031.263    21008039.769
       240.000         209.000
   4667627.76049   3625505.75345  24849154.225    24849152.673    24849165.747
       201.000         132.000
  -6722161.74449  -5216662.86247  21886284.863    21886284.535    21886294.134
       238.000         202.000
 00  5  3 15 47  0.0000000  0  8G 2G26G24G 4G 5G 7G 8G 9
   -340930.17749   -264287.36547  21821095.262    21821094.189    21821103.804
       238.000         200.000
   1926690.32949   1496775.45846  24073895.258    24073894.667    24073905.939
       223.000         167.000
  -7768547.18549  -6035042.58645  23546174.037    23546173.929    23546187.552
       218.000         157.000
  -7569322.99649  -5880281.00447  21179902.506    21179902.505    21179911.636
       239.000         201.000
  -2490939.94949  -1927680.43545  24787697.433    24787696.216    24787709.695
       207.000         144.000
   -165916.58949   -128024.64147  21008737.690    21008736.697    21008745.207
       241.000         208.000
   4744581.04749   3685469.23844  24863797.939    24863796.427    24863809.552
       195.000         128.000
  -6821495.05349  -5294065.39747  21867382.310    21867382.003    21867391.594
       238.000         201.000
 00  5  3 15 47 30.0000000  0  8G 2G26G24G 4G 5G 7G 8G 9
   -340689.78249   -264100.11547  21821141.051    21821140.009    21821149.623
       237.000         200.000
   1961744.86649   1524090.54546  24080566.033    24080565.453    24080576.757
       221.000         166.000
  -7914914.54849  -6149094.96545  23518321.132    23518321.071    23518334.614
       215.000         161.000
  -7679582.52449  -5966197.48747  21158920.781    21158920.808    21158929.924
       239.000         201.000
  -2614177.21749  -2023709.56345  24764246.169    24764244.980    24764258.483
       207.000         140.000
   -162041.15649   -125004.86747  21009475.207    21009474.209    21009482.730
       241.000         209.000
   4821509.55349   3745413.32544  24878437.104    24878435.556    24878448.915
       208.000         123.000
  -6920452.78949  -5371175.26347  21848551.213    21848550.937    21848560.508
       238.000         201.000
 00  5  3 15 48  0.0000000  0  8G 2G26G24G 4G 5G 7G 8G 9
   -340284.68549   -263784.52347  21821218.179    21821217.171    21821226.785
       238.000         200.000
   1996846.17449   1551442.05346  24087245.702    24087245.153    24087256.509
       223.000         168.000
  -8061274.44649  -6263141.47946  23490469.676    23490469.625    23490483.220
       218.000         165.000
  -7789476.13249  -6051828.83647  21138008.777    21138008.760    21138017.865
       239.000         201.000
  -2737534.57249  -2119832.28145  24740772.292    24740771.085    24740784.453
       208.000         146.000
   -158021.70449   -121872.87047  21010240.127    21010239.140    21010247.674
       241.000         209.000
   4898388.03049   3805318.69145  24893066.791    24893065.304    24893078.309
       210.000         139.000
  -7019055.74849  -5448008.69947  21829787.740    21829787.400    21829796.928
       238.000         202.000
 00  5  3 15 48 29.9990000  0  8G 2G26G24G 4G 5G 7G 8G 9
   -339709.35949   -263336.28347  21821327.765    21821326.721    21821336.344
       237.000         199.000
   2031995.13349   1578830.67546  24093934.452    24093933.861    24093945.421
       220.000         166.000
  -8207614.09549  -6377172.27945  23462622.202    23462622.072    23462635.609
       217.000         160.000
  -7898992.39549  -6137166.14247  21117168.522    21117168.502    21117177.602
       239.000         202.000
  -2861002.28249  -2216040.92945  24717277.105    24717275.958    24717289.393
       211.000         142.000
   -153854.76949   -118625.95647  21011033.160    21011032.139    21011040.675
       241.000         209.000
   4975216.99649   3865185.30045  24907686.756    24907685.498    24907698.584
       201.000         136.000
  -7117293.18249  -5524557.30947  21811093.724    21811093.407    21811102.934
       239.000         202.000
 00  5  3 15 48 59.9990000  0  8G 2G26G24G 4G 5G 7G 8G 9
   -338968.61049   -262759.13947  21821468.747    21821467.742    21821477.378
       237.000         199.000
   2067185.47649   1606251.54246  24100630.995    24100630.443    24100642.090
       221.000         165.000
  -8353946.57749  -6491197.47445  23434775.814    23434775.786    23434789.326
       216.000         161.000
  -8008141.96649  -6222217.72647  21096398.027    21096398.029    21096407.107
       239.000         202.000
  -2984593.78249  -2312346.18345  24693758.713    24693757.452    24693770.803
       205.000         142.000
   -149547.45949   -115269.65547  21011852.890    21011851.854    21011860.390
       241.000         209.000
   5051993.57949   3925011.16545  24922296.857    24922295.684    24922308.630
       200.000         134.000
  -7215175.54749  -5600829.24447  21792467.286    21792466.985    21792476.523
       239.000         202.000
 00  5  3 15 49 29.9990000  0  8G 2G26G24G 4G 5G 7G 8G 9
   -338061.78049   -262052.58447  21821641.339    21821640.358    21821650.017
       237.000         199.000
   2102413.44149   1633701.74446  24107334.825    24107334.285    24107345.940
       220.000         166.000
  -8500263.77849  -6605210.74046  23406932.509    23406932.465    23406946.070
       221.000         169.000
  -8116918.35249  -6306978.50047  21075698.596    21075698.560    21075707.622
       239.000         202.000
  -3108304.40049  -2408744.05145  24670217.327    24670216.081    24670229.587
       208.000         144.000
   -145101.12249   -111805.02747  21012699.038    21012698.016    21012706.544
       241.000         209.000
   5128713.42549   3984792.74545  24936896.190    24936895.125    24936908.169
       206.000         140.000
  -7312697.12649  -5676820.04247  21773909.549    21773909.217    21773918.750
       239.000         202.000
 00  5  3 15 49 59.9990000  0  8G 2G26G24G 4G 5G 7G 8G 9
   -336969.08149   -261201.18947  21821849.342    21821848.355    21821858.046
       238.000         199.000
   2137695.36049   1661193.93546  24114048.761    24114048.268    24114060.044
       219.000         164.000
  -8646543.69449  -6719194.98845  23379096.289    23379096.235    23379109.859
       219.000         161.000
  -8225299.67349  -6391431.42447  21055074.291    21055074.268    21055083.321
       239.000         202.000
  -3232114.25249  -2505219.35345  24646657.174    24646655.944    24646669.462
       208.000         149.000
   -140498.11849   -108218.32647  21013575.029    21013573.982    21013582.513
       241.000         209.000
   5205393.37949   4044543.31845  24951488.035    24951486.988    24951500.019
       206.000         145.000
  -7409836.62549  -5752513.12047  21755424.480    21755424.162    21755433.673
       239.000         202.000
 00  5  3 15 50 29.9990000  0  8G 2G26G24G 4G 5G 7G 8G 9
   -335693.03849   -260206.92947  21822092.272    21822091.253    21822100.957
       237.000         199.000
   2173024.94349   1688723.35045  24120771.888    24120771.389    24120783.123
       223.000         162.000
  -8792786.53749  -6833150.34446  23351267.239    23351267.098    23351280.694
       222.000         169.000
  -8333286.73249  -6475577.12747  21034525.040    21034525.000    21034534.053
       239.000         202.000
  -3356026.36849  -2601774.26145  24623077.498    24623076.368    24623089.925
       204.000         147.000
   -135742.98449   -104513.08047  21014479.901    21014478.894    21014487.428
       241.000         209.000
   5282028.20649   4104258.65445  24966071.069    24966070.146    24966083.366
       203.000         144.000
  -7506595.29549  -5827909.43847  21737011.939    21737011.588    21737021.077
       240.000         202.000
 00  5  3 15 50 59.9990000  0  8G 2G26G24G 4G 5G 7G 8G 9
   -334233.53849   -259069.72047  21822370.117    21822369.060    21822378.780
       237.000         198.000
   2208399.01549   1716287.39746  24127503.511    24127503.017    24127514.713
       222.000         163.000
  -8938990.23049  -6947075.15945  23323445.551    23323445.396    23323459.014
       218.000         161.000
  -8440877.41749  -6559413.96947  21014051.169    21014051.151    21014060.215
       239.000         202.000
  -3480040.58749  -2698408.77445  24599478.328    24599477.258    24599490.930
       210.000         152.000
   -130837.89749   -100690.99047  21015413.346    21015412.341    21015420.888
       241.000         209.000
   5358615.37749   4163936.86145  24980645.125    24980644.245    24980657.515
       200.000         142.000
  -7602971.45949  -5903007.70047  21718672.181    21718671.804    21718681.281
       240.000         203.000
 00  5  3 15 51 29.9990000  0  8G 2G26G24G 4G 5G 7G 8G 9
   -332580.25049   -257781.50847  21822684.822    21822683.744    21822693.456
       237.000         198.000
   2243824.47049   1743891.45445  24134244.841    24134244.391    24134256.089
       221.000         161.000
  -9085141.99949  -7060959.57545  23295633.709    23295633.565    23295647.095
       222.000         162.000
  -8548059.38049  -6642932.32247  20993655.099    20993655.090    20993664.147
       239.000         202.000
  -3604146.37949  -2795114.63245  24575861.829    24575860.746    24575874.497
       216.000         160.000
   -125774.49749    -96745.54447  21016376.933    21016375.917    21016384.509
       241.000         210.000
   5435162.23649   4223583.66845  24995211.509    24995210.689    24995224.016
       199.000         139.000
  -7698953.30349  -5977798.70647  21700407.429    21700407.074    21700416.512
       240.000         202.000
 00  5  3 15 51 59.9990000  0  8G 2G26G24G 4G 5G 7G 8G 9
   -330742.45649   -256349.52547  21823034.580    21823033.521    21823043.235
       237.000         198.000
   2279288.51249   1771525.60445  24140993.534    24140993.081    24141004.787
       220.000         159.000
  -9231249.06849  -7174809.10346  23267830.446    23267830.257    23267843.812
       219.000         167.000
  -8654840.08649  -6726138.00847  20973335.379    20973335.383    20973344.422
       239.000         202.000
  -3728353.20849  -2891899.17145  24552226.111    24552225.088    24552238.865
       214.000         160.000
   -120564.13449    -92685.57947  21017368.482    21017367.479    21017376.091
       242.000         210.000
   5511656.89949   4283189.76945  25009768.289    25009767.200    25009780.725
       195.000         133.000
  -7794548.56849  -6052288.48547  21682216.264    21682215.873    21682225.289
       240.000         202.000
 00  5  3 15 52 29.9990000  0  7G 2G26G24G 4G 5G 7G 9
   -328724.42849   -254777.11047  21823418.578    21823417.569    21823427.336
       237.000         198.000
   2314783.62849   1799183.97945  24147748.092    24147747.632    24147759.456
       219.000         160.000
  -9377312.89049  -7288624.91945  23240035.409    23240035.209    23240048.750
       221.000         162.000
  -8761221.36049  -6809032.43847  20953091.655    20953091.675    20953100.695
       239.000         202.000
  -3852665.24049  -2988765.71546  24528570.382    24528569.373    24528583.226
       220.000         163.000
   -115212.87649    -88515.83047  21018386.830    21018385.834    21018394.486
       242.000         210.000
  -7889759.69349  -6126478.93447  21664098.170    21664097.776    21664107.153
       240.000         202.000
 00  5  3 15 52 59.9990000  0  7G 2G26G24G 4G 5G 7G 9
   -326504.06049   -253047.02747  21823841.144    21823840.136    21823849.943
       236.000         198.000
   2350328.38049   1826880.99545  24154512.128    24154511.684    24154523.566
       219.000         161.000
  -9523309.53649  -7402388.46746  23212253.107    23212252.894    23212266.304
       220.000         163.000
  -8867179.74749  -6891597.35747  20932928.429    20932928.438    20932937.440
       240.000         202.000
  -3977060.32949  -3085696.98046  24504898.879    24504897.847    24504911.710
       219.000         167.000
   -109700.72749    -84220.71147  21019435.805    21019434.810    21019443.483
       241.000         210.000
  -7984563.40849  -6200351.92847  21646057.573    21646057.205    21646066.583
       240.000         203.000
 00  5  3 15 53 29.9990000  0  7G 2G26G24G 4G 5G 7G 9
   -324098.54549   -251172.67847  21824298.958    21824297.954    21824307.782
       236.000         198.000
   2385901.94649   1854600.47246  24161281.693    24161281.215    24161293.197
       221.000         163.000
  -9669253.88849  -7516111.17446  23184480.779    23184480.567    23184493.992
       222.000         170.000
  -8972730.39449  -6973844.55847  20912842.794    20912842.798    20912851.771
       239.000         202.000
  -4101555.71549  -3182706.39446  24481208.254    24481207.247    24481221.133
       221.000         166.000
   -104046.97949    -79815.25647  21020511.750    21020510.731    21020519.410
       242.000         210.000
  -8078975.47149  -6273919.73447  21628091.532    21628091.176    21628100.552
       240.000         203.000
 00  5  3 15 53 59.9990000  0  7G 2G26G24G 4G 5G 7G 9
   -321501.88849   -249149.39247  21824793.213    21824792.152    21824801.985
       236.000         197.000
   2421507.06749   1882344.53845  24168057.345    24168056.803    24168068.857
       223.000         162.000
  -9815137.67849  -7629786.72545  23156719.976    23156719.777    23156733.126
       220.000         162.000
  -9077865.37749  -7055767.86047  20892836.233    20892836.256    20892845.200
       240.000         203.000
  -4226145.37349  -3279789.22746  24457499.633    24457498.650    24457512.617
       220.000         165.000
    -98247.80149    -75296.48247  21021615.353    21021614.336    21021623.000
       242.000         209.000
  -8172988.34449  -6347176.46847  21610201.516    21610201.120    21610210.490
       240.000         204.000
 00  5  3 15 54 29.9990000  0  7G 2G26G24G 4G 5G 7G 9
   -318723.49749   -246984.49947  21825322.036    21825320.927    21825330.772
       236.000         197.000
   2457130.95649   1910103.26245  24174836.584    24174835.987    24174848.012
       222.000         161.000
  -9960967.98549  -7743420.58046  23128969.385    23128969.111    23128982.453
       222.000         170.000
  -9182592.37049  -7137373.25547  20872907.349    20872907.348    20872916.258
       240.000         202.000
  -4350838.85049  -3376952.98845  24433771.319    24433770.334    24433784.370
       220.000         162.000
    -92314.50549    -70673.19947  21022744.488    21022743.456    21022752.121
       241.000         210.000
  -8266610.00349  -6420128.36447  21592385.862    21592385.496    21592394.859
       241.000         204.000
 00  5  3 15 54 59.9990000  0  7G 2G26G24G 4G 5G 7G 9
   -315756.01649   -244672.26747  21825886.756    21825885.677    21825895.524
       236.000         197.000
   2492777.45049   1937879.56745  24181619.981    24181619.407    24181631.525
       221.000         160.000
 -10106735.25549  -7857005.28946  23101230.879    23101230.488    23101243.832
       221.000         167.000
  -9286902.05049  -7218653.46547  20853057.858    20853057.851    20853066.718
       240.000         203.000
  -4475628.72249  -3474191.85245  24410024.525    24410023.652    24410037.748
       222.000         161.000
    -86241.75049    -65941.24847  21023900.164    21023899.121    21023907.785
       242.000         209.000
  -8359831.72549  -6492768.63047  21574646.336    21574645.977    21574655.313
       242.000         204.000
 00  5  3 15 55 29.9990000  0  7G 2G26G24G 4G 5G 7G 9
   -312602.83149   -242215.33547  21826486.819    21826485.764    21826495.640
       235.000         196.000
   2528439.80649   1965668.23946  24188406.551    24188405.924    24188418.024
       221.000         163.000
 -10252440.51649  -7970541.69746  23073503.956    23073503.626    23073516.795
       225.000         169.000
  -9390795.79249  -7299609.56447  20833287.488    20833287.504    20833296.334
       240.000         203.000
  -4600518.17649  -3571508.31045  24386258.991    24386258.075    24386272.198
       223.000         159.000
    -80034.82849    -61104.74747  21025081.331    21025080.303    21025088.989
       242.000         209.000
  -8452655.22749  -6565098.58847  21556982.626    21556982.229    21556991.554
       242.000         204.000
 00  5  3 15 55 59.9990000  0  7G 2G26G24G 4G 5G 7G 9
   -309231.73849   -239588.60147  21827128.384    21827127.303    21827137.199
       235.000         196.000
   2564147.02849   1993491.85045  24195201.455    24195200.887    24195213.060
       217.000         160.000
 -10398049.20249  -8084002.81146  23045795.463    23045795.129    23045808.307
       223.000         171.000
  -9494239.78549  -7380215.22847  20813602.752    20813602.742    20813611.543
       240.000         204.000
  -4725474.89149  -3668877.21345  24362480.630    24362479.625    24362493.833
       222.000         151.000
    -73663.48449    -56140.12447  21026293.827    21026292.785    21026301.466
       241.000         209.000
  -8545046.99449  -6637092.13747  21539401.029    21539400.642    21539409.965
       242.000         205.000
 00  5  3 15 56 29.9990000  0  7G 2G26G24G 4G 5G 7G 9
   -305676.84649   -236818.64547  21827804.972    21827803.846    21827813.756
       236.000         196.000
   2599861.35949   2021320.97145  24201997.670    24201997.160    24202009.448
       218.000         157.000
 -10543593.00049  -8197413.37946  23018099.178    23018098.943    23018112.086
       225.000         170.000
  -9597266.25249  -7460495.55447  20793997.403    20793997.424    20794006.211
       240.000         204.000
  -4850532.81149  -3766324.96045  24338682.923    24338681.926    24338696.052
       218.000         143.000
    -67163.95949    -51075.62447  21027530.697    21027529.655    21027538.317
       242.000         209.000
  -8637039.54849  -6708774.61247  21521895.405    21521895.023    21521904.341
       242.000         205.000
 00  5  3 15 56 59.9990000  0  7G 2G26G24G 4G 5G 7G 9
   -301922.31949   -233893.12747  21828519.535    21828518.389    21828528.302
       235.000         196.000
   2635595.25449   2049165.41845  24208797.719    24208797.250    24208809.473
       220.000         155.000
 -10689054.18449  -8310759.56646  22990418.681    22990418.509    22990431.601
       223.000         170.000
  -9699857.63749  -7540436.85647  20774474.890    20774474.908    20774483.676
       240.000         204.000
  -4975676.29449  -3863839.36745  24314868.945    24314867.996    24314882.096
       211.000         135.000
    -60522.36049    -45900.41247  21028794.610    21028793.573    21028802.197
       242.000         209.000
  -8728615.84749  -6780132.73647  21504468.983    21504468.627    21504477.918
       242.000         205.000
 00  5  3 15 57 29.9990000  0  7G 2G26G24G 4G 5G 7G 9
   -297963.86249   -230808.69147  21829272.882    21829271.721    21829281.653
       235.000         197.000
   2671349.56349   2077025.74645  24215601.718    24215601.194    24215613.474
       218.000         156.000
 -10834426.10949  -8424036.17546  22962755.212    22962755.037    22962768.132
       225.000         172.000
  -9802008.07349  -7620034.57247  20755036.260    20755036.298    20755045.061
       241.000         204.000
  -5100901.06149  -3961417.12544  24291039.351    24291038.573    24291052.496
       211.000         130.000
    -53736.40949    -40612.72047  21030086.009    21030084.948    21030093.579
       242.000         209.000
  -8819770.43149  -6851162.24847  21487122.863    21487122.451    21487131.740
       242.000         205.000
 00  5  3 15 57 59.9990000  0  7G 2G26G24G 4G 5G 7G 9
   -293816.59049   -227577.12847  21830062.153    21830060.984    21830070.960
       236.000         196.000
   2707106.03449   2104887.74545  24222406.211    24222405.579    24222417.820
       220.000         158.000
 -10979721.33249  -8537253.05746  22935106.302    22935106.175    22935119.211
       223.000         169.000
  -9903730.46949  -7699298.74847  20735679.156    20735679.148    20735687.885
       241.000         204.000
  -5226221.97249  -4059069.79344  24267191.517    24267190.902    24267204.530
       202.000         124.000
    -46823.05849    -35225.75247  21031401.591    21031400.561    21031409.211
       241.000         209.000
  -8910516.82249  -6921873.69147  21469854.369    21469853.975    21469863.252
       243.000         206.000
 00  5  3 15 58 29.9990000  0  7G 2G26G24G 4G 5G 7G 9
   -289465.44849   -224186.70347  21830890.192    21830889.035    21830899.069
       236.000         196.000
   2742876.16649   2132760.40845  24229213.151    24229212.559    24229224.774
       219.000         158.000
 -11124922.51649  -8650396.62946  22907475.282    22907475.206    22907488.198
       226.000         173.000
 -10005008.21749  -7778216.44947  20716406.630    20716406.614    20716415.316
       241.000         204.000
  -5351623.80449  -4156785.55844  24243328.311    24243327.613    24243341.347
       203.000         128.000
    -39769.28349    -29729.36447  21032743.916    21032742.892    21032751.592
       242.000         209.000
  -9000838.60049  -6992254.27147  21452666.679    21452666.282    21452675.579
       242.000         205.000
 00  5  3 15 58 59.9990000  0  7G 2G26G24G 4G 5G 7G 9
   -284873.82449   -220608.88647  21831763.961    21831762.843    21831772.946
       235.000         196.000
   2778693.33949   2160669.72145  24236029.056    24236028.480    24236040.721
       221.000         158.000
 -11269990.84849  -8763436.70046  22879869.525    22879869.472    22879882.422
       222.000         169.000
 -10105802.85349  -7856757.70947  20697226.022    20697226.000    20697234.692
       241.000         204.000
  -5477069.78949  -4254535.69145  24219456.525    24219455.849    24219469.636
       207.000         132.000
    -32540.31049    -24096.46147  21034119.621    21034118.582    21034127.295
       242.000         209.000
  -9090697.67749  -7062274.29047  21435567.041    21435566.643    21435575.943
       242.000         206.000
 00  5  3 15 59 29.9990000  0  7G 2G26G24G 4G 5G 7G 9
   -280100.00149   -216889.09347  21832672.451    21832671.346    21832681.467
       235.000         196.000
   2814495.94649   2188567.69645  24242842.339    24242841.698    24242853.930
       220.000         160.000
 -11414982.08749  -8876416.68646  22852278.398    22852278.386    22852291.336
       224.000         173.000
 -10206170.66549  -7934966.37547  20678126.624    20678126.633    20678135.293
       241.000         204.000
  -5602617.94349  -4352365.40745  24195565.531    24195564.923    24195578.607
       210.000         142.000
    -25196.27049    -18373.88547  21035517.225    21035516.179    21035524.890
       242.000         209.000
  -9180150.78449  -7131977.97747  21418544.647    21418544.273    21418553.563
       242.000         205.000
 00  5  3 15 59 59.9990000  0  7G 2G26G24G 4G 5G 7G 9
   -275133.61649   -213019.26247  21833617.610    21833616.504    21833626.626
       236.000         196.000
   2850291.05249   2216459.79946  24249654.148    24249653.484    24249665.688
       221.000         164.000
 -11559883.75449  -8989326.86446  22824704.288    22824704.319    22824717.321
       225.000         171.000
 -10306099.82449  -8012833.24247  20659110.738    20659110.710    20659119.361
       241.000         204.000
  -5728257.97949  -4450266.67045  24171657.001    24171656.445    24171670.169
       213.000         151.000
    -17728.67649    -12555.04447  21036938.327    21036937.270    21036945.986
       242.000         209.000
  -9269186.30849  -7201356.26547  21401601.732    21401601.350    21401610.624
       242.000         205.000
 00  5  3 16  0 29.9990000  0  7G 2G26G24G 4G 5G 7G 9
   -269953.91449   -208983.20247  21834603.384    21834602.246    21834612.360
       235.000         196.000
   2886096.01649   2244359.54546  24256467.823    24256467.123    24256479.376
       219.000         167.000
 -11704672.53649  -9102149.15146  22797152.081    22797151.864    22797164.677
       226.000         172.000
 -10405567.87349  -8090340.80647  20640182.604    20640182.563    20640191.184
       241.000         205.000
  -5853968.83449  -4548223.14545  24147735.052    24147734.433    24147748.241
       215.000         154.000
    -10118.82949     -6625.35047  21038386.498    21038385.430    21038394.163
       242.000         209.000
  -9357782.14349  -7270391.93647  21384742.483    21384742.101    21384751.344
       242.000         205.000
 00  5  3 16  0 59.9990000  0  7G 2G26G24G 4G 5G 7G 9
   -264535.62949   -204761.24147  21835634.513    21835633.375    21835643.504
       235.000         196.000
   2921932.84949   2272284.14146  24263287.452    24263286.814    24263299.203
       215.000         164.000
 -11849320.81949  -9214861.88346  22769626.249    22769626.074    22769638.836
       225.000         172.000
 -10504547.68949  -8167467.92847  20621347.365    20621347.316    20621355.920
       241.000         204.000
  -5979724.79149  -4646214.81245  24123804.589    24123803.871    24123817.725
       217.000         156.000
     -2343.12949      -566.42147  21039866.184    21039865.150    21039873.903
       241.000         209.000
  -9445911.68049  -7339064.26647  21367971.937    21367971.583    21367980.785
       242.000         205.000
 00  5  3 16  1 29.9990000  0  7G 2G26G24G 4G 5G 7G 9
   -258906.54449   -200375.01847  21836705.707    21836704.602    21836714.753
       234.000         196.000
   2957770.64249   2300209.47645  24270107.211    24270106.568    24270119.205
       213.000         157.000
 -11993854.17549  -9327485.12946  22742122.298    22742122.172    22742134.784
       223.000         172.000
 -10603065.30949  -8244234.89947  20602600.067    20602600.013    20602608.612
       241.000         204.000
  -6105553.32049  -4744262.96145  24099860.218    24099859.513    24099873.466
       216.000         160.000
      5568.61449      5598.51647  21041371.789    21041370.756    21041379.540
       242.000         209.000
  -9533601.49449  -7407393.95547  21351285.076    21351284.738    21351293.917
       242.000         205.000
 00  5  3 16  1 59.9990000  0  7G 2G26G24G 4G 5G 7G 9
   -253051.88849   -195813.03447  21837819.868    21837818.762    21837828.938
       235.000         196.000
   2993620.71549   2328144.39445  24276929.317    24276928.687    24276941.438
       210.000         156.000
 -12138255.22249  -9440005.24746  22714643.462    22714643.401    22714656.011
       226.000         174.000
 -10701104.40149  -8320628.98947  20583943.818    20583943.784    20583952.359
       241.000         205.000
  -6231439.60849  -4842356.16845  24075904.805    24075904.147    24075918.179
       217.000         159.000
     13629.44149     11879.62047  21042905.812    21042904.735    21042913.542
       242.000         209.000
  -9620835.26049  -7475368.28447  21334685.025    21334684.667    21334693.827
       242.000         205.000
 00  5  3 16  2 29.9990000  0  7G 2G26G24G 4G 5G 7G 9
   -246997.57449   -191095.47147  21838972.029    21838970.933    21838981.112
       235.000         195.000
   3029453.67449   2356065.99045  24283748.192    24283747.579    24283760.384
       216.000         162.000
 -12282547.81449  -9552440.88046  22687185.349    22687185.308    22687197.874
       224.000         171.000
 -10798689.37849  -8396669.21847  20565374.001    20565373.968    20565382.529
       241.000         204.000
  -6357409.57249  -4940514.56045  24051933.565    24051932.879    24051946.896
       214.000         153.000
     21811.44949     18255.14947  21044462.907    21044461.783    21044470.600
       242.000         209.000
  -9707638.10049  -7543006.82047  21318166.992    21318166.611    21318175.735
       242.000         205.000
 00  5  3 16  2 59.9990000  0  7G 2G26G24G 4G 5G 7G 9
   -240724.95449   -186207.80147  21840165.767    21840164.656    21840174.858
       235.000         195.000
   3065285.02749   2383986.30646  24290566.845    24290566.216    24290579.104
       214.000         163.000
 -12426710.82249  -9664775.54446  22659752.032    22659751.919    22659764.373
       225.000         174.000
 -10895799.94049  -8472339.77447  20546894.515    20546894.425    20546902.983
       241.000         205.000
  -6483444.18149  -5038723.30245  24027949.981    24027949.269    24027963.293
       215.000         156.000
     30131.27449     24738.06847  21046046.112    21046045.041    21046053.877
       241.000         209.000
  -9793989.70549  -7610293.74647  21301734.769    21301734.420    21301743.521
       242.000         205.000
 00  5  3 16  3 29.9990000  0  7G 2G26G24G 4G 5G 7G 9
   -234214.15049   -181134.53347  21841404.787    21841403.690    21841413.905
       234.000         194.000
   3101131.45749   2411918.36045  24297388.225    24297387.697    24297400.680
       216.000         159.000
 -12570722.09649  -9776991.94046  22632347.416    22632347.340    22632359.769
       224.000         173.000
 -10992414.17849  -8547623.58047  20528509.408    20528509.335    20528517.873
       241.000         205.000
  -6609523.15749  -5136966.60845  24003957.899    24003957.255    24003971.288
       210.000         153.000
     38607.27549     31342.68447  21047659.061    21047658.010    21047666.869
       242.000         209.000
  -9879868.62549  -7677212.34747  21285392.569    21285392.174    21285401.245
       241.000         205.000
 00  5  3 16  3 59.9990000  0  7G 2G26G24G 4G 5G 7G 9
   -227504.43349   -175906.27247  21842681.660    21842680.572    21842690.808
       234.000         194.000
   3136950.40149   2439829.00045  24304204.506    24304203.975    24304216.965
       217.000         160.000
 -12714618.31949  -9889118.72746  22604964.796    22604964.708    22604976.985
       226.000         175.000
 -11088569.97349  -8622550.16047  20510211.523    20510211.473    20510220.019
       241.000         205.000
  -6735685.44449  -5235274.93345  23979949.995    23979949.288    23979963.387
       214.000         148.000
     47198.28649     38036.91447  21049293.965    21049292.882    21049301.733
       242.000         209.000
  -9965313.15049  -7743792.46547  21269132.955    21269132.593    21269141.644
       241.000         205.000
 00  5  3 16  4 29.9990000  0  7G 2G26G24G 4G 5G 7G 9
   -220582.64649   -170512.75047  21843998.922    21843997.811    21844008.059
       234.000         193.000
   3172751.68649   2467725.87845  24311017.536    24311016.926    24311029.883
       222.000         159.000
 -12858384.12549 -10001143.87346  22577606.926    22577606.856    22577619.114
       226.000         175.000
 -11184252.61149  -8697108.04147  20492003.691    20492003.656    20492012.210
       241.000         205.000
  -6861917.57849  -5333637.51045  23955928.732    23955928.035    23955942.211
       218.000         152.000
     55915.49149     44829.48247  21050952.875    21050951.778    21050960.616
       242.000         208.000
 -10050308.76049  -7810022.77747  21252958.774    21252958.436    21252967.479
       241.000         206.000
 00  5  3 16  4 59.9990000  0  7G 2G26G24G 4G 5G 7G 9
   -213434.43649   -164942.78947  21845359.220    21845358.131    21845368.394
       234.000         194.000
   3208546.42649   2495617.73245  24317829.207    24317828.575    24317841.537
       222.000         154.000
 -13002002.86349 -10113054.43946  22550277.099    22550277.018    22550289.172
       225.000         174.000
 -11279446.34149  -8771284.94947  20473888.963    20473888.890    20473897.443
       241.000         206.000
  -6988205.26049  -5432043.50045  23931896.953    23931896.314    23931910.400
       218.000         152.000
     64771.54849     51730.24447  21052638.147    21052637.074    21052645.923
       241.000         208.000
 -10134839.78349  -7875891.07147  21236873.025    21236872.673    21236881.719
       241.000         206.000
 00  5  3 16  5 29.9990000  0  7G 2G26G24G 4G 5G 7G 9
   -206070.19449   -159204.49547  21846760.642    21846759.564    21846769.835
       233.000         193.000
   3244321.15349   2523493.98545  24324637.087    24324636.496    24324649.423
       218.000         155.000
 -13145482.24549 -10224856.40446  22522973.766    22522973.657    22522985.779
       226.000         175.000
 -11374159.49049  -8845087.38147  20455865.663    20455865.571    20455874.144
       241.000         206.000
  -7114558.23249  -5530500.32445  23907852.846    23907852.144    23907866.173
       221.000         156.000
     73754.33949     58729.75847  21054347.535    21054346.482    21054355.349
       241.000         208.000
 -10218915.10849  -7941404.27947  21220873.996    21220873.649    21220882.664
       242.000         206.000
 00  5  3 16  5 59.9990000  0  7G 2G26G24G 4G 5G 7G 9
   -198489.40749   -153297.45747  21848203.271    21848202.206    21848212.496
       233.000         193.000
   3280073.20649   2551352.56545  24331440.527    24331439.953    24331452.983
       219.000         155.000
 -13288819.44449 -10336547.58546  22495697.442    22495697.364    22495709.458
       226.000         176.000
 -11468390.09449  -8918513.80447  20437934.123    20437934.075    20437942.638
       241.000         206.000
  -7240975.86749  -5629007.56545  23883796.457    23883795.701    23883809.700
       221.000         160.000
     82862.73049     65827.14447  21056080.844    21056079.801    21056088.682
       241.000         208.000
 -10302533.05649  -8006561.08047  21204962.033    21204961.659    21204970.673
       242.000         207.000
 00  5  3 16  6 29.9990000  0  7G 2G26G24G 4G 5G 7G 9
   -190694.14149   -147223.29447  21849686.721    21849685.670    21849695.965
       233.000         192.000
   3315797.27649   2579189.31845  24338238.648    24338238.103    24338251.292
       221.000         155.000
 -13432014.14549 -10448127.73346  22468448.311    22468448.187    22468460.285
       225.000         176.000
 -11562138.80349  -8991564.72647  20420094.341    20420094.269    20420102.853
       241.000         206.000
  -7367459.63849  -5727566.31546  23859727.393    23859726.641    23859740.641
       223.000         165.000
     92092.79449     73019.33347  21057837.334    21057836.281    21057845.175
       242.000         208.000
 -10385694.74149  -8071362.35447  21189136.844    21189136.481    21189145.497
       241.000         207.000
 00  5  3 16  6 59.9990000  0  7G 2G26G24G 4G 5G 7G 9
   -182678.75049   -140977.60347  21851212.051    21851211.013    21851221.309
       233.000         192.000
   3351495.87849   2607006.28245  24345032.057    24345031.497    24345044.735
       219.000         154.000
 -13575058.40049 -10559590.66846  22441227.777    22441227.669    22441239.729
       227.000         176.000
 -11655398.50549  -9064234.60247  20402347.603    20402347.528    20402356.136
       241.000         206.000
  -7494003.56249  -5826171.92546  23835646.987    23835646.174    23835660.160
       223.000         167.000
    101448.38549     80309.33947  21059617.697    21059616.634    21059625.539
       241.000         208.000
 -10468393.34049  -8135802.77947  21173399.794    21173399.438    21173408.451
       242.000         207.000
 00  5  3 16  7 29.9990000  0  7G 2G26G24G 4G 5G 7G 9
   -174451.67449   -134566.96047  21852777.741    21852776.635    21852786.930
       234.000         192.000
   3387157.18749   2634794.15945  24351818.299    24351817.809    24351831.122
       214.000         149.000
 -13717958.19849 -10670941.02346  22414034.774    22414034.644    22414046.663
       227.000         177.000
 -11748175.90649  -9136528.65847  20384692.676    20384692.571    20384701.188
       241.000         206.000
  -7620615.74949  -5924830.73646  23811553.470    23811552.672    23811566.679
       222.000         169.000
    110919.41149     87689.29347  21061420.058    21061418.967    21061427.889
       241.000         208.000
 -10550635.96449  -8199887.90047  21157749.570    21157749.173    21157758.167
       243.000         207.000
 00  5  3 16  7 59.9980000  0  7G 2G26G24G 4G 5G 7G 9
   -166006.88849   -127986.66747  21854384.760    21854383.684    21854393.995
       234.000         191.000
   3422783.29249   2662554.53845  24358597.816    24358597.355    24358610.740
       213.000         151.000
 -13860699.91549 -10782168.21446  22386871.788    22386871.662    22386883.683
       227.000         176.000
 -11840460.14149  -9208438.43047  20367131.561    20367131.458    20367140.070
       241.000         206.000
  -7747285.29849  -6023534.21546  23787448.932    23787448.210    23787462.223
       216.000         164.000
    120510.08749     95162.48647  21063245.137    21063244.055    21063253.021
       242.000         208.000
 -10632412.25449  -8263609.64947  21142188.095    21142187.668    21142196.608
       243.000         207.000
 00  5  3 16  8 29.9980000  0  7G 2G26G24G 4G 5G 7G 9
   -157319.99349   -121217.69847  21856037.909    21856036.811    21856047.131
       233.000         192.000
   3458397.14449   2690305.41145  24365375.136    24365374.647    24365388.037
       213.000         156.000
 -14003267.14249 -10893259.43246  22359742.002    22359741.902    22359753.931
       226.000         178.000
 -11932232.18449  -9279949.08647  20349667.860    20349667.794    20349676.428
       241.000         206.000
  -7873996.19149  -6122269.91546  23763336.654    23763335.892    23763349.942
       216.000         164.000
    130243.10649    102746.58747  21065097.313    21065096.234    21065105.224
       241.000         208.000
 -10713702.83849  -8326952.92747  21126719.027    21126718.581    21126727.499
       243.000         207.000
 00  5  3 16  8 59.9980000  0  7G 2G26G24G 4G 5G 7G 9
   -148404.23249   -114270.41447  21857734.609    21857733.488    21857743.809
       233.000         191.000
   3493981.51749   2718033.26545  24372146.793    24372146.284    24372159.715
       216.000         159.000
 -14145665.34049 -11004218.97846  22332644.475    22332644.320    22332656.260
       226.000         176.000
 -12023500.34049  -9351067.10547  20332300.102    20332300.024    20332308.668
       241.000         206.000
  -8000756.90949  -6221044.43645  23739214.798    23739214.087    23739228.184
       216.000         161.000
    140103.49049    110429.93647  21066973.745    21066972.665    21066981.651
       242.000         207.000
 -10794516.27049  -8389924.39947  21111340.708    21111340.283    21111349.202
       242.000         208.000
 00  5  3 16  9 29.9980000  0  7G 2G26G24G 4G 5G 7G 9
   -139234.15549   -107124.95447  21859479.635    21859478.549    21859488.892
       232.000         191.000
   3529558.79949   2745755.61945  24378917.097    24378916.564    24378930.034
       216.000         158.000
 -14287866.86649 -11115025.22746  22305584.340    22305584.172    22305596.105
       229.000         180.000
 -12114237.69149  -9421771.51247  20315033.348    20315033.269    20315041.918
       241.000         207.000
  -8127541.56349  -6319837.57445  23715088.567    23715087.761    23715101.813
       215.000         158.000
    150115.18549    118231.18847  21068878.944    21068877.876    21068886.864
       241.000         207.000
 -10874826.20549  -8452503.54047  21096058.216    21096057.808    21096066.692
       242.000         208.000
 00  5  3 16  9 59.9980000  0  7G 2G26G24G 4G 5G 7G 9
   -129841.24049    -99805.85547  21861267.016    21861265.999    21861276.370
       232.000         191.000
   3565094.31549   2773445.42845  24385679.458    24385678.867    24385692.368
       215.000         154.000
 -14429900.53749 -11225700.72046  22278556.141    22278555.981    22278567.839
       228.000         178.000
 -12204474.14449  -9492085.61247  20297861.919    20297861.827    20297870.486
       241.000         207.000
  -8254381.08749  -6418673.49545  23690951.742    23690951.009    23690965.066
       216.000         159.000
    160244.91349    126124.41947  21070806.617    21070805.553    21070814.519
       241.000         207.000
 -10954663.10849  -8514714.08947  21080865.724    21080865.323    21080874.208
       242.000         208.000
 00  5  3 16 10 29.9980000  0  7G 2G26G24G 4G 5G 7G 9
   -120225.81649    -92313.39547  21863096.814    21863095.784    21863106.221
       232.000         191.000
   3600584.75949   2801100.15545  24392433.103    24392432.516    24392446.076
       213.000         146.000
 -14571764.21749 -11336243.73446  22251560.308    22251560.132    22251571.969
       228.000         180.000
 -12294208.66149  -9562008.59747  20280785.952    20280785.892    20280794.568
       241.000         207.000
  -8381275.26749  -6517552.00345  23666804.539    23666803.774    23666817.927
       219.000         158.000
    170490.84649    134108.19347  21072756.392    21072755.327    21072764.308
       241.000         207.000
 -11034025.73849  -8576555.07647  21065763.498    21065763.097    21065771.996
       243.000         208.000
 00  5  3 16 10 59.9980000  0  7G 2G26G24G 4G 5G 7G 9
   -110388.14449    -84647.74747  21864968.892    21864967.896    21864978.330
       232.000         191.000
   3636026.47549   2828716.90045  24399177.409    24399176.913    24399190.494
       218.000         153.000
 -14713456.02249 -11446652.84146  22224597.155    22224596.986    22224608.741
       229.000         180.000
 -12383440.30849  -9631539.73547  20263805.713    20263805.666    20263814.354
       241.000         207.000
  -8508224.15149  -6616473.16245  23642646.947    23642646.170    23642660.290
       219.000         157.000
    180850.77849    142180.80347  21074727.847    21074726.807    21074735.798
       242.000         207.000
 -11112913.60449  -8638026.11447  21050751.620    21050751.208    21050760.099
       243.000         208.000
 00  5  3 16 11 29.9980000  0  8G16G 2G26G24G 4G 5G 7G 9
  -4131087.73459  -3195623.47155  24675902.936    24675902.592    24675918.596
       212.000         150.000
   -100313.98049    -76797.83747  21866886.021    21866885.015    21866895.448
       232.000         191.000
   3671430.89549   2856304.57545  24405914.894    24405914.337    24405927.919
       223.000         161.000
 -14854958.98849 -11556914.78546  22197669.950    22197669.782    22197681.506
       228.000         180.000
 -12472153.11749  -9700666.58347  20246924.240    20246924.165    20246932.861
       241.000         207.000
  -8635212.65749  -6715425.20445  23618481.778    23618481.044    23618495.077
       220.000         156.000
    191337.68349    150352.35447  21076723.497    21076722.464    21076731.447
       241.000         207.000
 -11191310.98049  -8699114.95247  21035833.125    21035832.702    21035841.546
       243.000         208.000
 00  5  3 16 11 59.9980000  0  8G16G 2G26G24G 4G 5G 7G 9
  -4227319.10749  -3270608.76345  24657590.656    24657590.322    24657606.150
       204.000         154.000
    -90012.43349    -68770.74847  21868846.470    21868845.425    21868855.863
       233.000         191.000
   3706785.71949   2883853.57345  24412642.903    24412642.289    24412656.057
       223.000         160.000
 -14996279.62049 -11667034.67146  22170777.370    22170777.251    22170788.914
       229.000         181.000
 -12560355.02949  -9769395.33447  20230139.980    20230139.887    20230148.566
       241.000         207.000
  -8762249.42049  -6814414.82445  23594307.376    23594306.687    23594320.738
       219.000         157.000
    201940.59049    158614.29547  21078741.272    21078740.194    21078749.175
       241.000         207.000
 -11269226.17249  -8759828.06247  21021006.292    21021005.899    21021014.765
       243.000         208.000
 00  5  3 16 12 29.9980000  0  8G16G 2G26G24G 4G 5G 7G 9
  -4323327.52549  -3345420.30245  24639320.596    24639320.322    24639336.212
       209.000         154.000
    -79479.62049    -60563.43447  21870850.910    21870849.841    21870860.300
       233.000         191.000
   3742091.84149   2911364.73045  24419361.732    24419361.091    24419374.854
       220.000         155.000
 -15137412.23049 -11777008.02146  22143920.671    22143920.535    22143932.179
       229.000         183.000
 -12648040.56349  -9837721.71447  20213453.990    20213453.889    20213462.542
       241.000         207.000
  -8889330.00049  -6913438.59545  23570124.748    23570124.049    23570138.054
       220.000         158.000
    212661.81749    166968.43747  21080781.516    21080780.433    21080789.440
       241.000         206.000
 -11346654.22449  -8820161.58547  21006272.155    21006271.802    21006280.696
       243.000         209.000
 00  5  3 16 12 59.9980000  0  8G16G 2G26G24G 4G 5G 7G 9
  -4419105.28349  -3420052.09645  24621094.423    24621094.149    24621110.207
       207.000         152.000
    -68710.37749    -52171.88647  21872900.298    21872899.223    21872909.720
       233.000         191.000
   3777351.23149   2938839.33445  24426071.632    24426070.947    24426084.806
       213.000         141.000
 -15278348.64049 -11886828.50546  22117101.250    22117101.161    22117112.768
       229.000         182.000
 -12735203.38349  -9905640.78447  20196867.456    20196867.364    20196876.002
       241.000         207.000
  -9016448.68049  -7012492.07045  23545934.697    23545934.126    23545948.098
       219.000         158.000
    223504.97749    175417.58847  21082844.957    21082843.869    21082852.897
       241.000         206.000
 -11423588.65249  -8880110.46447  20991632.045    20991631.661    20991640.574
       243.000         209.000
 00  5  3 16 13 29.9980000  0  8G16G 2G26G24G 4G 5G 7G 9
  -4514642.50349  -3494496.41145  24602914.316    24602913.914    24602929.944
       204.000         151.000
    -57697.61749    -43590.60947  21874996.083    21874994.970    21875005.457
       232.000         190.000
   3812568.39649   2966281.19645  24432773.448    24432772.753    24432786.553
       209.000         135.000
 -15419079.47549 -11996488.79446  22090321.027    22090320.882    22090332.519
       230.000         182.000
 -12821834.90949  -9973145.86247  20180382.034    20180381.922    20180390.567
       241.000         207.000
  -9143597.87549  -7111569.27245  23521738.989    23521738.404    23521752.320
       218.000         159.000
    234475.58149    183966.05247  21084932.649    21084931.554    21084940.578
       241.000         206.000
 -11500021.04149  -8939668.15047  20977087.440    20977087.040    20977095.946
       243.000         208.000
 00  5  3 16 13 59.9980000  0  8G16G 2G26G24G 4G 5G 7G 9
  -4609947.27349  -3568759.65545  24584778.451    24584777.909    24584793.840
       200.000         153.000
    -46451.95949    -34827.85447  21877136.160    21877135.031    21877145.523
       233.000         190.000
   3847729.28349   2993679.16244  24439464.237    24439463.682    24439477.595
       207.000         130.000
 -15559612.91749 -12105995.29046  22063578.386    22063578.192    22063589.762
       230.000         184.000
 -12907944.53049 -10040244.26247  20163995.947    20163995.816    20164004.429
       241.000         207.000
  -9270787.51249  -7210677.99845  23497535.523    23497534.974    23497548.851
       218.000         162.000
    245561.59849    192604.44547  21087042.318    21087041.216    21087050.236
       241.000         206.000
 -11575961.08649  -8998842.18747  20962636.521    20962636.113    20962644.997
       243.000         209.000
 00  5  3 16 14 29.9980000  0  8G16G 2G26G24G 4G 5G 7G 9
  -4705014.02449  -3642837.42945  24566687.512    24566687.073    24566703.007
       206.000         148.000
    -34970.47449    -25881.33147  21879321.166    21879319.945    21879330.445
       233.000         190.000
   3882833.79449   3021033.17144  24446144.353    24446144.021    24446157.820
       207.000         131.000
 -15699943.55649 -12215343.73646  22036874.243    22036874.075    22036885.668
       231.000         183.000
 -12993527.89049 -10106932.58647  20147710.024    20147709.857    20147718.437
       242.000         207.000
  -9398014.16849  -7309815.54945  23473325.019    23473324.463    23473338.420
       218.000         161.000
    256764.24249    201333.72147  21089174.168    21089173.050    21089182.086
       241.000         206.000
 -11651404.90649  -9057629.55747  20948280.046    20948279.620    20948288.486
       244.000         208.000
 00  5  3 16 14 59.9980000  0  8G16G 2G26G24G 4G 5G 7G 9
  -4799825.61149  -3716716.34745  24548645.131    24548644.836    24548660.775
       214.000         145.000
    -23238.79549    -16739.85047  21881553.677    21881552.479    21881562.955
       232.000         190.000
   3917893.47649   3048352.24845  24452816.025    24452815.623    24452829.481
       203.000         137.000
 -15840054.48249 -12324520.99146  22010211.930    22010211.791    22010223.342
       230.000         183.000
 -13078569.43449 -10173198.71547  20131527.180    20131527.006    20131535.548
       242.000         207.000
  -9525262.62049  -7408970.12645  23449110.447    23449109.854    23449123.776
       217.000         161.000
    268096.52649    210164.01747  21091330.643    21091329.552    21091338.600
       241.000         206.000
 -11726337.07449  -9116018.23247  20934020.923    20934020.493    20934029.332
       243.000         208.000
 00  5  3 16 15 29.9980000  0  8G16G 2G26G24G 4G 5G 7G 9
  -4894406.21349  -3790415.26645  24530646.958    24530646.609    24530662.472
       212.000         148.000
    -11283.50649     -7424.13547  21883828.761    21883827.569    21883838.061
       233.000         190.000
   3952878.65649   3075613.22945  24459473.695    24459473.171    24459487.102
       205.000         136.000
 -15979969.85849 -12433545.86046  21983586.921    21983586.714    21983598.245
       230.000         183.000
 -13163094.52849 -10239062.41647  20115442.599    20115442.422    20115450.951
       242.000         207.000
  -9652558.98449  -7508161.98645  23424886.730    23424886.084    23424900.059
       219.000         161.000
    279530.06449    219073.21547  21093506.368    21093505.301    21093514.407
       241.000         206.000
 -11800783.13349  -9174028.13047  20919854.274    20919853.852    20919862.678
       243.000         209.000
 00  5  3 16 15 59.9980000  0  8G16G 2G26G24G 4G 5G 7G 9
  -4988733.90249  -3863917.18245  24512696.976    24512696.519    24512712.359
       202.000         149.000
       914.53949      2080.73147  21886150.030    21886148.867    21886159.360
       233.000         189.000
   3987805.66749   3102828.86445  24466120.431    24466119.760    24466133.692
       208.000         141.000
 -16119667.93649 -12542401.41446  21957003.163    21957002.973    21957014.497
       231.000         184.000
 -13247082.52249 -10304507.59347  20099460.235    20099460.045    20099468.538
       241.000         207.000
  -9779883.31849  -7607375.66845  23400657.746    23400657.010    23400670.953
       219.000         160.000
    291082.66749    228075.18547  21095704.840    21095703.754    21095712.845
       241.000         205.000
 -11874722.67549  -9231643.32847  20905784.042    20905783.606    20905792.416
       243.000         209.000
 00  5  3 16 16 29.9980000  0  8G16G 2G26G24G 4G 5G 7G 9
  -5082834.62449  -3937242.20145  24494789.925    24494789.496    24494805.363
       198.000         149.000
     13326.75649     11752.49047  21888512.030    21888510.897    21888521.394
       232.000         190.000
   4022642.83949   3129974.48345  24472749.829    24472749.111    24472763.148
       211.000         150.000
 -16259174.89549 -12651108.04246  21930455.845    21930455.619    21930467.129
       231.000         184.000
 -13330560.86849 -10369555.64247  20083574.845    20083574.630    20083583.120
       243.000         207.000
  -9907263.59549  -7706632.95745  23376417.971    23376417.263    23376431.222
       220.000         158.000
    302724.26649    237146.49947  21097920.284    21097919.151    21097928.230
       241.000         206.000
 -11948183.49649  -9288885.50847  20891804.891    20891804.459    20891813.258
       243.000         209.000
 00  5  3 16 16 59.9980000  0  8G16G 2G26G24G 4G 5G 7G 9
  -5176696.12449  -4010380.81445  24476928.445    24476928.068    24476943.850
       204.000         147.000
     25962.85549     21598.69247  21890916.640    21890915.525    21890926.067
       232.000         189.000
   4057397.03949   3157055.44345  24479363.559    24479362.784    24479376.899
       221.000         160.000
 -16398478.47649 -12759656.20446  21903947.240    21903946.999    21903958.408
       229.000         183.000
 -13413518.54949 -10434197.98447  20067788.512    20067788.317    20067796.781
       243.000         207.000
 -10034689.21349  -7805925.57545  23352169.645    23352168.892    23352182.847
       221.000         160.000
    314463.29049    246293.72547  21100154.201    21100153.064    21100162.140
       240.000         205.000
 -12021154.43649  -9345745.96847  20877918.962    20877918.533    20877927.327
       243.000         209.000
 00  5  3 16 17 29.9980000  0  8G16G 2G26G24G 4G 5G 7G 9
  -5270309.01349  -4083325.67945  24459114.206    24459113.924    24459129.729
       205.000         144.000
     38829.51549     31624.55447  21893365.176    21893364.036    21893374.613
       233.000         189.000
   4092072.01249   3184074.71546  24485962.190    24485961.413    24485975.543
       221.000         163.000
 -16537569.66849 -12868038.86446  21877478.983    21877478.755    21877490.137
       230.000         183.000
 -13495947.64749 -10498428.43447  20052102.770    20052102.573    20052111.028
       243.000         207.000
 -10162153.05549  -7905247.98145  23327914.134    23327913.315    23327927.193
       221.000         158.000
    326304.81249    255520.82547  21102407.583    21102406.472    21102415.583
       240.000         205.000
 -12093628.01249  -9402218.86147  20864127.676    20864127.243    20864136.044
       243.000         209.000
 00  5  3 16 17 59.9980000  0  8G16G 2G26G24G 4G 5G 7G 9
  -5363666.55849  -4156071.63745  24441348.672    24441348.501    24441364.100
       199.000         145.000
     51931.16549     41833.52347  21895858.425    21895857.273    21895867.882
       231.000         189.000
   4126669.07249   3211033.25446  24492545.782    24492545.145    24492559.383
       221.000         163.000
 -16676441.58349 -12976250.66046  21851052.360    21851052.205    21851063.630
       232.000         185.000
 -13577842.93549 -10562242.93147  20036518.628    20036518.428    20036526.857
       243.000         207.000
 -10289650.06549  -8004596.23745  23303652.209    23303651.429    23303665.188
       223.000         160.000
    338251.59449    264829.94447  21104680.993    21104679.914    21104689.068
       240.000         205.000
 -12165599.05149  -9458300.17747  20850432.057    20850431.604    20850440.377
       243.000         209.000
 00  5  3 16 18 29.9980000  0  8G16G 2G26G24G 4G 5G 7G 9
  -5456783.15149  -4228629.83845  24423629.028    24423628.839    24423644.322
       208.000         146.000
     65250.51549     52212.12647  21898393.122    21898391.945    21898402.594
       232.000         188.000
   4161168.13849   3237915.48946  24499110.854    24499110.254    24499124.538
       222.000         164.000
 -16815108.96149 -13084303.07846  21824664.702    21824664.588    21824676.049
       230.000         184.000
 -13659220.17949 -10625653.75747  20021033.068    20021032.874    20021041.266
       243.000         207.000
 -10417196.94849  -8103983.35045  23279380.766    23279380.037    23279393.733
       222.000         159.000
    350284.89649    274206.48047  21106970.850    21106969.809    21106979.031
       240.000         205.000
 -12237083.83949  -9514002.59547  20836828.931    20836828.489    20836837.232
       243.000         209.000
 00  5  3 16 18 59.9980000  0  8G16G 2G26G24G 4G 5G 7G 9
  -5549651.46449  -4300994.50945  24405956.861    24405956.518    24405971.878
       207.000         149.000
     78792.25749     62764.02647  21900970.133    21900968.939    21900979.609
       231.000         188.000
   4195571.22749   3264722.92345  24505657.672    24505657.038    24505671.503
       218.000         162.000
 -16953564.53449 -13192190.45446  21798317.466    21798317.306    21798328.747
       230.000         184.000
 -13740073.40449 -10688656.25347  20005647.234    20005647.027    20005655.393
       243.000         207.000
 -10544787.83649  -8203404.73345  23255100.853    23255100.241    23255113.876
       220.000         159.000
    362408.36649    283653.27547  21109277.957    21109276.886    21109286.151
       240.000         205.000
 -12308076.60049  -9569321.61247  20823319.507    20823319.032    20823327.730
       244.000         209.000
 00  5  3 16 19 29.9980000  0  8G16G 2G26G24G 4G 5G 7G 9
  -5642243.57749  -4373144.02845  24388336.908    24388336.581    24388352.067
       202.000         146.000
     92581.71449     73508.94246  21903594.337    21903593.084    21903603.758
       231.000         187.000
   4229900.56549   3291472.80446  24512190.524    24512189.833    24512204.388
       216.000         164.000
 -17091780.44849 -13299891.08346  21772015.809    21772015.627    21772027.053
       232.000         185.000
 -13820376.24649 -10751229.88247  19990366.088    19990365.894    19990374.251
       243.000         207.000
 -10672396.75949  -8302840.17746  23230817.594    23230817.030    23230830.608
       221.000         163.000
    374645.69949    293188.79747  21111606.707    21111605.611    21111614.909
       240.000         205.000
 -12378551.04649  -9624236.75247  20809908.673    20809908.187    20809916.857
       244.000         209.000
 00  5  3 16 19 59.9980000  0  8G16G 2G26G24G 4G 5G 7G 9
  -5734568.71948  -4445085.47145  24370768.087    24370767.611    24370782.952
       194.000         148.000
    106606.89249     84437.54146  21906263.325    21906262.065    21906272.748
       231.000         187.000
   4264141.32249   3318153.64046  24518706.618    24518705.841    24518720.375
       217.000         166.000
 -17229766.28349 -13407412.43146  21745757.884    21745757.699    21745769.153
       232.000         185.000
 -13900139.63649 -10813383.15747  19975187.586    19975187.419    19975195.768
       243.000         207.000
 -10800034.89749  -8402298.34646  23206528.779    23206528.227    23206541.846
       222.000         167.000
    386983.70649    302802.76047  21113954.585    21113953.497    21113962.803
       240.000         204.000
 -12448518.33149  -9678756.70047  20796594.312    20796593.860    20796602.493
       244.000         209.000
 00  5  3 16 20 29.9980000  0  8G16G 2G26G24G 4G 5G 7G 9
  -5826638.25249  -4516827.74745  24353247.822    24353247.269    24353262.448
       210.000         149.000
    120854.04249     95539.11646  21908974.531    21908973.284    21908983.983
       231.000         186.000
   4298277.21649   3344752.83045  24525202.599    24525201.865    24525216.493
       212.000         157.000
 -17367533.20849 -13514763.18946  21719541.644    21719541.451    21719552.954
       231.000         185.000
 -13979376.03949 -10875125.78947  19960109.367    19960109.216    19960117.553
       243.000         207.000
 -10927715.01549  -8501789.23346  23182232.015    23182231.420    23182245.111
       226.000         169.000
    399407.19649    312483.33747  21116318.748    21116317.660    21116326.978
       240.000         204.000
 -12517991.06149  -9732891.28247  20783374.132    20783373.640    20783382.247
       244.000         209.000
 00  5  3 16 20 59.9980000  0  8G16G 2G26G24G 4G 5G 7G 9
  -5918411.64749  -4588339.25745  24335783.996    24335783.278    24335798.490
       211.000         148.000
    135360.93449    106843.07046  21911735.152    21911733.944    21911744.645
       231.000         186.000
   4332342.90649   3371297.33145  24531685.247    24531684.528    24531699.257
       213.000         158.000
 -17505041.03349 -13621912.06446  21693374.790    21693374.541    21693386.017
       232.000         187.000
 -14058046.73549 -10936427.61247  19945138.809    19945138.670    19945147.002
       242.000         207.000
 -11055398.76949  -8601282.97746  23157934.656    23157934.029    23157947.685
       224.000         168.000
    411952.23649    322258.63047  21118706.051    21118704.961    21118714.283
       240.000         205.000
 -12586930.83049  -9786610.57047  20770255.307    20770254.829    20770263.413
       244.000         209.000
 00  5  3 16 21 29.9980000  0  8G16G 2G26G24G 4G 5G 7G 9
  -6009914.42349  -4659639.91445  24318371.466    24318370.774    24318385.952
       212.000         148.000
    150099.47849    118327.53546  21914539.859    21914538.671    21914549.385
       231.000         186.000
   4366307.50149   3397763.07545  24538148.570    24538147.951    24538162.762
       211.000         153.000
 -17642315.44549 -13728879.05346  21667252.309    21667252.020    21667263.492
       232.000         187.000
 -14136178.74249 -10997309.68147  19930270.780    19930270.630    19930278.971
       243.000         207.000
 -11183113.33449  -8700800.73246  23133631.502    23133630.754    23133644.308
       223.000         166.000
    424589.75749    332105.98047  21121110.986    21121109.863    21121119.206
       239.000         205.000
 -12655364.45549  -9839935.45747  20757232.830    20757232.337    20757240.900
       243.000         209.000
 00  5  3 16 21 59.9980000  0  8G16G 2G26G24G 4G 5G 7G 9
  -6101167.77049  -4730746.20445  24301006.333    24301005.713    24301020.887
       211.000         145.000
    165046.04049    129974.10546  21917384.199    21917382.964    21917393.722
       231.000         185.000
   4400144.48849   3424129.36045  24544587.578    24544587.045    24544601.943
       208.000         139.000
 -17779377.36649 -13835680.46846  21641170.234    21641169.939    21641181.391
       233.000         187.000
 -14213794.64449 -11057789.58747  19915500.946    19915500.831    19915509.148
       243.000         207.000
 -11310881.67849  -8800360.38445  23109317.972    23109317.188    23109330.724
       221.000         162.000
    437294.58649    342005.78447  21123528.710    21123527.569    21123536.944
       239.000         205.000
 -12723314.74649  -9892883.71847  20744302.313    20744301.830    20744310.364
       244.000         210.000
 00  5  3 16 22 29.9980000  0  8G16G 2G26G24G 4G 5G 7G 9
  -6192100.46249  -4801602.66345  24283702.203    24283701.562    24283716.657
       211.000         148.000
    180268.88149    141835.95746  21920281.109    21920279.851    21920290.658
       231.000         186.000
   4433919.55049   3450447.40744  24551014.969    24551014.304    24551029.300
       205.000         127.000
 -17916156.14449 -13942261.25047  21615141.983    21615141.727    21615153.180
       233.000         188.000
 -14290825.01149 -11117813.23247  19900842.598    19900842.441    19900850.740
       244.000         207.000
 -11438634.49549  -8899907.91345  23085007.266    23085006.556    23085020.042
       223.000         159.000
    450133.78349    352010.28447  21125971.972    21125970.845    21125980.247
       240.000         205.000
 -12790712.79049  -9945401.65947  20731476.880    20731476.393    20731484.932
       244.000         210.000
 00  5  3 16 22 59.9980000  0  8G16G 2G26G24G 4G 5G 7G 9
  -6282752.45049  -4872240.37845  24266451.348    24266450.926    24266465.935
       213.000         148.000
    195725.85249    153880.23246  21923222.511    21923221.291    21923232.151
       230.000         186.000
                   3476681.85044  24557421.972
       198.000         107.000
 -18052691.49249 -14048652.34447  21589160.079    21589159.858    21589171.332
       233.000         188.000
 -14367311.20849 -11177412.84947  19886287.724    19886287.586    19886295.897
       243.000         208.000
 -11566413.15649  -8999475.61745  23060691.570    23060690.953    23060704.391
       221.000         159.000
    463063.75749    362085.51447  21128432.518    21128431.391    21128440.812
       240.000         205.000
 -12857599.90949  -9997521.48347  20718748.701    20718748.201    20718756.710
       244.000         210.000
 00  5  3 16 23 29.9980000  0  8G16G 2G26G24G 4G 5G 7G 9
  -6373117.94449  -4942654.86945  24249255.126    24249254.747    24249269.739
       209.000         148.000
    211419.78349    166109.15946  21926209.061    21926207.828    21926218.731
       231.000         185.000
                   3502833.42044  24563808.713
       195.000          96.000
 -18188978.07249 -14154849.59747  21563225.629    21563225.342    21563236.801
       235.000         190.000
 -14443249.14449 -11236585.25847  19871837.219    19871837.063    19871845.364
       243.000         207.000
 -11694213.65149  -9099060.30846  23036371.850    23036371.233    23036384.641
       224.000         165.000
    476086.12049    372232.73147  21130910.639    21130909.523    21130918.940
       240.000         205.000
 -12923972.26449 -10049240.19047  20706118.456    20706117.962    20706126.458
       244.000         210.000
 00  5  3 16 23 59.9980000  0  8G16G 2G26G24G 4G 5G 7G 9
  -6463203.54049  -5012851.22045  24232111.901    24232111.824    24232126.875
       210.000         146.000
    227341.62649    178515.69146  21929238.901    21929237.706    21929248.672
       230.000         184.000
   4534590.81049   3528892.18244  24570172.602    24570170.230    24570186.873
       204.000         121.000
 -18325022.13049 -14260857.86147  21537337.290    21537336.953    21537348.400
       235.000         189.000
 -14518647.04549 -11295336.85547  19857489.448    19857489.314    19857497.616
       243.000         208.000
 -11822044.21749  -9198668.42046  23012046.442    23012045.794    23012059.236
       223.000         169.000
    489190.74049    382444.05547  21133404.449    21133403.303    21133412.726
       240.000         205.000
 -12989837.89649 -10100564.04247  20693584.587    20693584.125    20693592.644
       244.000         209.000
 00  5  3 16 24 29.9980000  0  8G16G 2G26G24G 4G 5G 7G 9
  -6552988.92349  -5082813.68445  24215026.088    24215026.108    24215041.131
       210.000         145.000
    243509.00949    191113.55046  21932315.512    21932314.320    21932325.329
       229.000         184.000
   4567929.36549   3554870.07245  24576516.985    24576516.698    24576532.665
       211.000         135.000
 -18460803.79949 -14366661.67247  21511498.804    21511498.486    21511509.927
       235.000         190.000
 -14593486.26149 -11353653.12447  19843248.005    19843247.878    19843256.183
       243.000         208.000
 -11949886.40249  -9298285.59346  22987718.859    22987718.183    22987731.587
       223.000         170.000
    502393.72149    392732.01747  21135916.896    21135915.797    21135925.244
       240.000         205.000
 -13055178.62349 -10151478.88147  20681150.658    20681150.182    20681158.705
       244.000         210.000
 00  5  3 16 24 59.9980000  0  8G16G 2G26G24G 4G 5G 7G 9
  -6642479.51349  -5152546.43745  24197996.451    24197996.430    24198011.281
       212.000         147.000
    259913.79149    203896.40446  21935437.315    21935436.116    21935447.144
       229.000         184.000
   4601153.29049   3580758.68345  24582839.382    24582839.222    24582854.642
       215.000         147.000
 -18596328.54749 -14472265.28647  21485709.226    21485708.937    21485720.333
       234.000         190.000
 -14667773.67849 -11411539.42247  19829111.590    19829111.448    19829119.754
       243.000         208.000
 -12077747.20749  -9397917.23446  22963387.714    22963387.013    22963400.451
       221.000         168.000
    515685.99949    403089.56147  21138446.396    21138445.289    21138454.770
       239.000         205.000
 -13120001.61349 -10201990.29147  20668815.242    20668814.772    20668823.295
       244.000         210.000
 00  5  3 16 25 29.9980000  0  8G16G 2G26G24G 4G 5G 7G 9
  -6731666.23849  -5222042.42045  24181024.784    24181024.624    24181039.460
       212.000         149.000
    276562.64749    216869.43746  21938605.552    21938604.367    21938615.404
       229.000         183.000
   4634266.71249   3606561.16345  24589140.794    24589140.717    24589155.787
       217.000         148.000
 -18731587.15449 -14577661.50947  21459970.324    21459970.025    21459981.403
       234.000         190.000
 -14741501.98749 -11468990.04447  19815081.529    19815081.413    19815089.715
       243.000         208.000
 -12205618.93749  -9497557.39446  22939054.270    22939053.654    22939067.264
       221.000         167.000
    529072.86849    413520.80347  21140993.949    21140992.805    21141002.303
       240.000         205.000
 -13184299.38849 -10252092.44047  20656579.746    20656579.313    20656587.830
       244.000         210.000
 00  5  3 16 25 59.9980000  0  8G16G 2G26G24G 4G 5G 7G 9
  -6820568.64849  -5291316.87045  24164107.135    24164106.934    24164121.642
       208.000         149.000
    293433.12249    230015.16146  21941815.997    21941814.808    21941825.844
       229.000         184.000
   4667244.19149   3632257.72045  24595416.253    24595416.362    24595431.354
       211.000         142.000
 -18866599.72049 -14682866.01047  21434278.196    21434277.916    21434289.276
       234.000         190.000
 -14814692.78049 -11526021.81947  19801153.801    19801153.665    19801161.990
       243.000         208.000
 -12333523.16749  -9597222.90646  22914714.796    22914714.198    22914727.838
       222.000         166.000
    542530.54449    424007.22047  21143554.951    21143553.782    21143563.266
       240.000         204.000
 -13248093.79049 -10301802.34947  20644440.113    20644439.639    20644448.171
       244.000         210.000
 00  5  3 16 26 29.9980000  0  8G16G 2G26G24G 4G 5G 7G 9
  -6909141.45949  -5360334.50745  24147252.150    24147252.003    24147266.617
       212.000         151.000
    310568.27049    243367.11146  21945076.793    21945075.595    21945086.659
       228.000         183.000
   4700126.37349   3657880.05645  24601673.600    24601673.743    24601688.513
       206.000         133.000
 -19001320.68449 -14787843.29947  21408641.535    21408641.286    21408652.612
       234.000         190.000
 -14887301.81349 -11582600.27647  19787336.766    19787336.627    19787344.962
       241.000         208.000
 -12461415.91149  -9696879.48045  22890377.507    22890376.945    22890390.529
       223.000         162.000
    556101.04049    434581.54647  21146137.359    21146136.206    21146145.687
       240.000         204.000
 -13311340.88649 -10351085.78647  20632404.622    20632404.115    20632412.632
       244.000         210.000
 00  5  3 16 26 59.9970000  0  8G16G 2G26G24G 4G 5G 7G 9
  -6997418.71449  -5429121.81045  24130453.420    24130453.186    24130467.833
       216.000         149.000
    327927.65349    256893.79046  21948380.247    21948379.060    21948390.136
       228.000         183.000
   4732869.65749   3683394.17644  24607904.530    24607904.565    24607919.256
       203.000         130.000
 -19135782.63049 -14892618.74947  21383054.217    21383053.972    21383065.243
       235.000         191.000
 -14959365.60449 -11638753.87547  19773623.449    19773623.324    19773631.685
       241.000         208.000
 -12589331.69749  -9796554.02545  22866035.998    22866035.321    22866048.882
       223.000         161.000
    569742.90549    445211.47947  21148733.383    21148732.222    21148741.699
       240.000         204.000
 -13374077.66549 -10399971.57947  20620466.234    20620465.711    20620474.200
       244.000         210.000
 00  5  3 16 27 29.9970000  0  8G16G 2G26G24G 4G 5G 7G 9
  -7085352.31949  -5497641.37845  24113720.237    24113719.845    24113734.428
       215.000         150.000
    345563.81749    270636.14046  21951736.370    21951735.209    21951746.294
       228.000         183.000
   4765525.06749   3708839.78645  24614118.651    24614118.729    24614133.415
       211.000         139.000
 -19269940.62249 -14997157.35347  21357524.827    21357524.521    21357535.713
       234.000         191.000
 -15030836.81149 -11694445.71847  19760022.890    19760022.796    19760031.175
       241.000         208.000
 -12717226.57649  -9896212.26345  22841698.284    22841697.655    22841711.120
       219.000         162.000
    583507.40349    455936.98047  21151352.774    21151351.605    21151361.088
       239.000         204.000
 -13436256.12649 -10448422.31047  20608634.047    20608633.534    20608642.032
       244.000         210.000
 00  5  3 16 27 59.9970000  0  8G16G 2G26G24G 4G 5G 7G 9
  -7172991.54549  -5565931.53145  24097042.963    24097042.500    24097057.050
       214.000         146.000
    363421.16049    284550.84046  21955134.660    21955133.442    21955144.544
       228.000         183.000
   4798033.74949   3734171.08145  24620304.971    24620304.927    24620319.886
       211.000         150.000
 -19403842.63449 -15101496.49547  21332044.063    21332043.751    21332054.912
       234.000         191.000
 -15101767.01049 -11749716.01147  19746525.350    19746525.231    19746533.616
       241.000         208.000
 -12845150.16849  -9995892.88446  22817355.069    22817354.481    22817367.888
       222.000         166.000
    597337.70849    466713.75247  21153984.694    21153983.500    21153993.003
       240.000         204.000
 -13497928.25749 -10496478.50747  20596898.220    20596897.710    20596906.194
       244.000         210.000
 00  5  3 16 28 29.9970000  0  8G16G 2G26G24G 4G 5G 7G 9
  -7260280.24749  -5633948.55745  24080432.276    24080431.842    24080446.372
       213.000         151.000
    381553.75449    298680.02446  21958585.294    21958584.049    21958595.206
       228.000         182.000
   4830447.19049   3759428.14045  24626473.216    24626473.055    24626488.072
       214.000         156.000
 -19537432.30349 -15205592.24447  21306622.701    21306622.395    21306633.546
       235.000         191.000
 -15172101.67549 -11804522.23547  19733141.161    19733140.995    19733149.368
       241.000         208.000
 -12973047.30949 -10095552.86946  22793017.083    22793016.404    22793029.823
       224.000         167.000
    611286.86049    477583.13247  21156639.150    21156637.990    21156647.522
       240.000         203.000
 -13559039.44949 -10544097.60747  20585269.115    20585268.629    20585277.122
       244.000         210.000
 00  5  3 16 28 59.9970000  0  8G16G 2G26G24G 4G 5G 7G 9
  -7347240.82849  -5701709.90145  24063884.005    24063883.693    24063898.109
       213.000         150.000
    399936.11349    313003.81846  21962083.435    21962082.184    21962093.365
       228.000         183.000
   4862737.34649   3784589.13445  24632618.102    24632617.806    24632632.859
       214.000         159.000
 -19670732.47449 -15309462.41047  21281256.460    21281256.152    21281267.291
       234.000         192.000
 -15241865.16249 -11858883.39047  19719865.617    19719865.456    19719873.799
       241.000         208.000
 -13100942.39849 -10195211.26646  22768679.342    22768678.673    22768692.072
       220.000         167.000
    625328.36949    488524.47447  21159311.190    21159310.054    21159319.620
       239.000         203.000
 -13619614.30349 -10591298.77247  20573742.091    20573741.619    20573750.106
       244.000         210.000
 00  5  3 16 29 29.9970000  0  8G16G 2G26G24G 4G 5G 7G 9
  -7433874.94249  -5769216.86145  24047397.961    24047397.715    24047411.995
       215.000         146.000
    418564.15249    327519.05246  21965628.310    21965627.068    21965638.284
       228.000         182.000
   4894897.70149   3809648.96745  24638738.285    24638737.833    24638753.006
       214.000         159.000
 -19803744.65449 -15413108.18347  21255945.011    21255944.719    21255955.834
       234.000         191.000
 -15311060.70349 -11912801.99347  19706698.163    19706697.994    19706706.333
       241.000         209.000
 -13228838.37849 -10294870.36846  22744341.458    22744340.784    22744354.161
       221.000         164.000
    639456.95049    499533.66447  21161999.834    21161998.699    21162008.243
       240.000         202.000
 -13679656.24749 -10638084.69047  20562316.489    20562315.990    20562324.488
       244.000         210.000
 00  5  3 16 29 59.9970000  0  8G16G 2G26G24G 4G 5G 7G 9
  -7520192.97249  -5836477.50645  24030972.091    24030971.789    24030986.080
       213.000         148.000
    437424.54149    342215.34646  21969217.365    21969216.168    21969227.434
       228.000         182.000
   4926912.26849   3834595.22945  24644830.726    24644830.111    24644845.332
       210.000         151.000
 -19936479.47849 -15516537.82047  21230686.312    21230686.038    21230697.133
       234.000         192.000
 -15379700.93549 -11966287.89047  19693636.377    19693636.183    19693644.537
       241.000         209.000
 -13356747.58749 -10394539.75546  22720001.012    22720000.369    22720013.727
       224.000         165.000
    653658.25249    510599.53347  21164702.353    21164701.203    21164710.723
       240.000         203.000
 -13739177.81149 -10684465.11247  20550989.931    20550989.418    20550997.888
       244.000         210.000
 00  5  3 16 30 29.9970000  0  8G16G 2G26G24G 4G 5G 7G 9
  -7606149.92849  -5903456.80945  24014615.072    24014614.630    24014628.856
       211.000         148.000
    456560.39049    357126.27146  21972858.814    21972857.670    21972869.027
       227.000         181.000
   4958821.51949   3859459.40445  24650902.956    24650902.416    24650917.597
       197.000         140.000
 -20068891.82349 -15619716.18547  21205488.945    21205488.708    21205499.809
       234.000         192.000
 -15447742.11849 -12019306.99847  19680688.570    19680688.401    19680696.729
       241.000         209.000
 -13484625.89549 -10494185.08846  22695666.490    22695665.856    22695679.210
       224.000         167.000
    667974.09049    521754.64647  21167426.646    21167425.487    21167435.019
       240.000         203.000
 -13798135.63449 -10730406.26047  20539770.608    20539770.102    20539778.570
       244.000         210.000
 00  5  3 16 30 59.9970000  0  8G16G 2G26G24G 4G 5G 7G 9
  -7691783.48049  -5970184.12745  23998319.497    23998318.879    23998333.062
       216.000         147.000
    475930.70649    372219.90646  21976544.888    21976543.770    21976555.226
       226.000         182.000
   4990582.27649   3884207.79945  24656946.761    24656946.350    24656961.623
       202.000         137.000
 -20201019.45849 -15722672.69247  21180345.841    21180345.588    21180356.647
       235.000         193.000
 -15515224.19949 -12071890.43447  19667847.184    19667846.998    19667855.312
       241.000         209.000
 -13612512.60049 -10593836.96346  22671330.398    22671329.771    22671343.043
       224.000         169.000
    682362.66849    532966.44347  21170164.792    21170163.608    21170173.195
       240.000         202.000
 -13856569.70049 -10775939.28347  20528650.968    20528650.457    20528658.962
       244.000         210.000
 00  5  3 16 31 29.9970000  0  8G16G 2G26G24G 4G 5G 7G 9
  -7777103.49549  -6036667.10445  23982083.601    23982082.912    23982097.080
       210.000         150.000
    495523.55149    387486.93246  21980273.278    21980272.207    21980283.755
       226.000         181.000
   5022179.68649   3908828.98545  24662959.736    24662959.250    24662974.573
       210.000         146.000
 -20332872.23049 -15825415.02547  21155255.028    21155254.770    21155265.826
       235.000         193.000
 -15582158.62049 -12124047.12347  19655110.014    19655109.806    19655118.109
       241.000         209.000
 -13740418.51749 -10693503.80446  22646990.646    22646990.026    22647003.239
       225.000         168.000
    696810.93349    544224.75347  21172914.231    21172913.067    21172922.707
       239.000         202.000
 -13914491.53449 -10821073.16947  20517628.786    20517628.286    20517636.796
       244.000         210.000
 00  5  3 16 31 59.9970000  0  8G16G 2G26G24G 4G 5G 7G 9
  -7862061.66849  -6102868.08245  23965916.362    23965915.715    23965929.968
       211.000         146.000
    515384.70649    402963.04146  21984052.741    21984051.721    21984063.348
       225.000         180.000
   5053657.07549   3933356.67145  24668949.770    24668949.319    24668964.667
       215.000         144.000
 -20464401.77549 -15927905.49847  21130225.696    21130225.469    21130236.507
       235.000         194.000
 -15648498.81249 -12175740.78747  19642485.919    19642485.706    19642493.992
       241.000         209.000
 -13868296.98549 -10793149.25846  22622656.113    22622655.492    22622668.637
       224.000         166.000
    711363.65249    555564.44947  21175683.623    21175682.427    21175692.080
       239.000         202.000
 -13971854.43349 -10865771.51547  20506712.963    20506712.474    20506720.993
       244.000         210.000
 00  5  3 16 32 29.9970000  0  8G16G 2G26G24G 4G 5G 7G 9
  -7946677.28149  -6168802.15145  23949814.240    23949813.795    23949828.031
       209.000         147.000
    535492.01849    418630.96046  21987879.199    21987878.085    21987889.780
       226.000         180.000
   5084990.01949   3957771.81545  24674912.412    24674911.863    24674927.330
       218.000         142.000
 -20595627.59949 -16030159.30247  21105254.256    21105253.980    21105265.004
       236.000         194.000
 -15714266.20649 -12226988.11947  19629970.811    19629970.618    19629978.851
       241.000         208.000
 -13996168.82849 -10892789.54646  22598322.812    22598322.199    22598335.262
       224.000         167.000
    725997.89449    566967.67147  21178468.529    21178467.304    21178476.942
       240.000         201.000
 -14028680.00149 -10910051.16047  20495899.400    20495898.915    20495907.457
       244.000         210.000
 00  5  3 16 32 59.9970000  0  8G16G 2G26G24G 4G 5G 7G 9
  -8030943.66649  -6234464.06545  23933778.780    23933778.343    23933792.506
       210.000         149.000
    555849.34949    434493.70346  21991753.182    21991752.059    21991763.766
       226.000         180.000
   5116180.25649   3982075.82745  24680847.811    24680847.235    24680862.805
       216.000         143.000
 -20726543.06749 -16132171.28047  21080341.829    21080341.536    21080352.519
       237.000         194.000
 -15779455.87349 -12277785.26347  19617565.621    19617565.442    19617573.676
       241.000         208.000
 -14124028.73349 -10992420.52046  22573991.714    22573991.170    22574004.230
       226.000         171.000
    740716.64949    578436.74947  21181269.471    21181268.263    21181277.893
       240.000         201.000
 -14084963.58849 -10953908.47847  20485188.962    20485188.492    20485197.046
       244.000         210.000
 00  5  3 16 33 29.9970000  0  8G16G 2G26G24G 4G 5G 7G 9
  -8114829.14949  -6299829.20145  23917815.937    23917815.353    23917829.505
       210.000         152.000
    576486.02449    450574.10946  21995680.380    21995679.201    21995690.909
       227.000         180.000
   5147254.44149   4006289.40145  24686761.109    24686760.545    24686776.243
       214.000         139.000
 -20857116.61449 -16233916.82347  21055494.494    21055494.172    21055505.097
       237.000         194.000
 -15844038.18949 -12328109.15647  19605276.007    19605275.832    19605284.059
       241.000         208.000
 -14251846.24949 -11092018.47946  22549668.860    22549668.258    22549681.292
       226.000         174.000
    755547.96249    589993.53547  21184091.832    21184090.628    21184100.293
       239.000         201.000
 -14140675.67149 -10997320.47047  20474587.340    20474586.823    20474595.380
       244.000         210.000
 00  5  3 16 33 59.9970000  0  8G16G 2G26G24G 4G 5G 7G 9
  -8198366.89749  -6364923.36645  23901919.149    23901918.499    23901932.656
       212.000         151.000
    597366.33449    466844.36546  21999653.920    21999652.687    21999664.406
       226.000         180.000
   5178174.26849   4030382.55945  24692645.055    24692644.463    24692660.236
       215.000         143.000
 -20987381.56049 -16335421.90847  21030705.898    21030705.542    21030716.397
       237.000         195.000
 -15908048.21049 -12377987.10447  19593095.335    19593095.144    19593103.358
       240.000         208.000
 -14379655.90349 -11191610.27746  22525347.481    22525346.788    22525359.831
       221.000         173.000
    770455.25749    601609.52547  21186928.663    21186927.465    21186937.148
       240.000         201.000
 -14195851.32249 -11040314.46947  20464087.749    20464087.240    20464095.794
       244.000         210.000
 00  5  3 16 34 29.9970000  0  7G16G 2G24G 4G 5G 7G 9
  -8281562.59949  -6429751.00645  23886087.478    23886086.834    23886100.874
       212.000         151.000
    618482.12349    483298.11946  22003672.230    22003670.987    22003682.735
       227.000         179.000
 -21117343.31649 -16436690.73047  21005974.949    21005974.601    21005985.402
       237.000         195.000
 -15971493.38149 -12427424.91147  19581022.138    19581021.936    19581030.139
       241.000         208.000
 -14507464.44649 -11291201.20546  22501026.163    22501025.545    22501038.542
       225.000         170.000
    785429.46249    613277.65947  21189778.265    21189777.045    21189786.729
       239.000         201.000
 -14250498.10549 -11082896.36247  20453688.818    20453688.305    20453696.837
       245.000         210.000
 00  5  3 16 34 59.9970000  0  7G16G 2G24G 4G 5G 7G 9
  -8364379.92849  -6494283.77845  23870327.692    23870327.070    23870341.110
       211.000         151.000
    639867.15449    499961.66046  22007741.709    22007740.512    22007752.274
       226.000         179.000
 -21246965.60349 -16537695.04047  20981308.592    20981308.255    20981319.021
       238.000         195.000
 -16034339.43049 -12476395.86347  19569062.976    19569062.746    19569070.937
       241.000         208.000
 -14635236.67749 -11390763.88446  22476711.873    22476711.207    22476724.163
       226.000         170.000
    800503.31949    625023.44747  21192646.843    21192645.589    21192655.246
       239.000         200.000
 -14304581.64549 -11125039.36647  20443397.068    20443396.546    20443405.070
       244.000         211.000
 00  5  3 16 35 29.9970000  0  7G16G 2G24G 4G 5G 7G 9
  -8446797.31949  -6558504.95545  23854644.076    23854643.449    23854657.465
       210.000         151.000
    661540.53049    516849.87446  22011866.135    22011864.908    22011876.683
       226.000         179.000
 -21376227.00449 -16638418.14347  20956710.947    20956710.580    20956721.321
       238.000         196.000
 -16096566.73849 -12524884.68747  19557221.477    19557221.275    19557229.472
       240.000         208.000
 -14762952.45249 -11490282.55346  22452408.356    22452407.631    22452420.532
       223.000         170.000
    815695.07549    636861.09847  21195537.763    21195536.535    21195546.206
       238.000         200.000
 -14358082.50949 -11166728.35047  20433216.163    20433215.660    20433224.205
       244.000         210.000
 00  5  3 16 35 59.9970000  0  7G16G 2G24G 4G 5G 7G 9
  -8528844.68249  -6622437.81545  23839030.893    23839030.247    23839044.152
       213.000         151.000
    683469.69349    533937.41846  22016039.252    22016038.004    22016049.805
       225.000         179.000
 -21505157.16949 -16738883.14047  20932176.342    20932175.944    20932186.626
       238.000         196.000
 -16158207.07549 -12572916.13047  19545491.706    19545491.519    19545499.712
       240.000         207.000
 -14890642.67249 -11589781.31446  22428109.532    22428108.927    22428121.775
       227.000         172.000
    830971.49249    648764.72547  21198444.810    21198443.595    21198453.279
       239.000         200.000
 -14411032.58749 -11207988.14547  20423140.131    20423139.596    20423148.106
       244.000         210.000
 00  5  3 16 36 29.9970000  0  7G16G 2G24G 4G 5G 7G 9
  -8610499.60149  -6686064.91645  23823492.344    23823491.726    23823505.450
       208.000         149.000
    705674.31649    551239.59746  22020264.831    22020263.505    22020275.329
       226.000         179.000
 -21633733.89949 -16839072.73547  20907708.934    20907708.553    20907719.201
       238.000         196.000
 -16219240.12749 -12620474.36547  19533877.503    19533877.319    19533885.499
       240.000         207.000
 -15018286.40449 -11689243.82746  22403819.610    22403819.051    22403831.910
       224.000         174.000
    846351.26949    660748.89247  21201371.584    21201370.350    21201380.062
       239.000         200.000
 -14463411.39649 -11248802.79947  20413172.759    20413172.254    20413180.735
       245.000         210.000
 00  5  3 16 36 59.9970000  0  7G16G 2G24G 4G 5G 7G 9
  -8691777.22449  -6749398.03145  23808025.528    23808024.956    23808038.652
       210.000         151.000
    728136.50949    568742.48446  22024539.427    22024538.046    22024549.862
       227.000         178.000
 -21761972.62849 -16938998.95547  20883305.827    20883305.477    20883316.122
       238.000         196.000
 -16279683.23449 -12667572.90147  19522375.578    19522375.392    19522383.566
       240.000         207.000
 -15145899.92949 -11788682.80046  22379535.426    22379534.887    22379547.803
       225.000         176.000
    861815.98349    672799.24147  21204314.496    21204313.256    21204323.025
       238.000         200.000
 -14515236.32849 -11289185.86147  20403310.801    20403310.282    20403318.761
       245.000         210.000
 00  5  3 16 37 29.9970000  0  7G16G 2G24G 4G 5G 7G 9
  -8772679.41449  -6812438.56245  23792630.170    23792629.668    23792643.308
       208.000         153.000
    750852.52349    586443.15146  22028862.281    22028860.876    22028872.682
       226.000         178.000
 -21889874.48649 -17038662.67747  20858966.901    20858966.524    20858977.167
       239.000         196.000
 -16339539.51249 -12714214.16847  19510985.320    19510985.117    19510993.291
       240.000         207.000
 -15273485.77349 -11888100.21046  22355256.700    22355256.034    22355268.908
       231.000         177.000
    877360.61149    684911.86547  21207272.540    21207271.359    21207281.188
       238.000         200.000
 -14566510.97749 -11329140.12947  20393553.556    20393553.039    20393561.498
       245.000         210.000
 00  5  3 16 37 59.9970000  0  7G16G 2G24G 4G 5G 7G 9
  -8853199.62949  -6875181.49845  23777307.509    23777307.011    23777320.708
       209.000         156.000
    773826.07549    604344.51046  22033234.109    22033232.716    22033244.522
       225.000         177.000
 -22017433.67349 -17138059.38447  20834693.208    20834692.801    20834703.401
       238.000         197.000
 -16398805.22449 -12760395.25747  19499707.458    19499707.248    19499715.405
       240.000         208.000
 -15401038.83449 -11987492.10346  22330984.075    22330983.414    22330996.253
       227.000         175.000
    892988.07849    697089.04347  21210246.379    21210245.206    21210255.074
       238.000         200.000
 -14617231.25549 -11368662.42147  20383901.802    20383901.281    20383909.741
       244.000         210.000
 00  5  3 16 38 29.9970000  0  7G16G 2G24G 4G 5G 7G 9
  -8933348.91649  -6937635.40745  23762055.532    23762054.979    23762068.628
       213.000         157.000
    797043.57949    622435.94346  22037652.390    22037650.981    22037662.774
       225.000         177.000
 -22144660.90849 -17237197.43047  20810482.636    20810482.213    20810492.794
       238.000         197.000
 -16457493.17749 -12806126.13847  19488539.553    19488539.317    19488547.473
       240.000         207.000
 -15528571.27249 -12086867.92746  22306715.361    22306714.728    22306727.474
       228.000         174.000
    908684.21249    709319.72147  21213233.311    21213232.134    21213242.036
       238.000         200.000
 -14667410.24349 -11407762.92947  20374353.025    20374352.518    20374360.990
       245.000         210.000
 00  5  3 16 38 59.9970000  0  7G16G 2G24G 4G 5G 7G 9
  -9013117.16249  -6999792.41445  23746876.087    23746875.437    23746889.113
       211.000         155.000
    820512.69749    640723.43646  22042118.484    22042117.107    22042128.920
       225.000         177.000
 -22271546.12749 -17336068.97147  20786337.146    20786336.716    20786347.253
       238.000         197.000
 -16515595.41449 -12851400.62347  19477483.084    19477482.853    19477491.005
       239.000         207.000
 -15656073.92849 -12186220.51346  22282452.250    22282451.683    22282464.400
       227.000         174.000
    924455.79849    721609.20047  21216234.687    21216233.459    21216243.350
       238.000         200.000
 -14717039.85749 -11446435.36047  20364908.802    20364908.303    20364916.769
       244.000         210.000
 00  5  3 16 39 29.9970000  0  7G16G 2G24G 4G 5G 7G 9
  -9092502.64249  -7061651.16545  23731769.377    23731768.790    23731782.408
       212.000         158.000
    844232.58349    659206.35146  22046632.380    22046630.948    22046642.791
       225.000         176.000
 -22398087.43449 -17434672.52647  20762257.124    20762256.681    20762267.188
       239.000         198.000
 -16573111.95549 -12896218.72147  19466538.053    19466537.834    19466545.975
       240.000         207.000
 -15783546.01949 -12285549.30946  22258195.058    22258194.441    22258207.177
       227.000         176.000
    940301.39849    733956.35047  21219250.083    21219248.843    21219258.748
       237.000         199.000
 -14766120.12749 -11484679.72747  20355569.101    20355568.621    20355577.106
       244.000         210.000
 00  5  3 16 39 59.9970000  0  7G16G 2G24G 4G 5G 7G 9
  -9171514.34649  -7123218.67245  23716733.974    23716733.336    23716746.883
       215.000         157.000
    868191.60349    677875.60546  22051191.794    22051190.324    22051202.149
       226.000         176.000
 -22524293.93049 -17533015.18447  20738240.800    20738240.345    20738250.828
       239.000         198.000
 -16630054.19349 -12940589.30647  19455702.328    19455702.094    19455710.232
       240.000         207.000
 -15910997.82349 -12384862.27846  22233941.694    22233941.078    22233953.804
       230.000         176.000
    956208.45949    746351.40347  21222277.115    21222275.909    21222285.841
       237.000         199.000
 -14814662.30249 -11522504.79847  20346331.814    20346331.354    20346339.816
       244.000         210.000
 00  5  3 16 40 29.9970000  0  7G16G 2G24G 4G 5G 7G 9
  -9250151.05749  -7184493.98145  23701769.824    23701769.162    23701782.736
       208.000         156.000
    892388.50949    696730.20846  22055796.384    22055794.973    22055806.752
       226.000         176.000
 -22650164.57349 -17631096.14847  20714288.343    20714287.928    20714298.372
       238.000         198.000
 -16686422.90249 -12984512.98447  19444975.744    19444975.507    19444983.643
       240.000         207.000
 -16038429.05149 -12484159.24646  22209692.270    22209691.657    22209704.339
       228.000         175.000
    972175.10049    758792.88147  21225315.484    21225314.303    21225324.280
       238.000         199.000
 -14862667.55349 -11559911.48447  20337196.774    20337196.256    20337204.703
       245.000         210.000
 00  5  3 16 40 59.9970000  0  7G16G 2G24G 4G 5G 7G 9
  -9328364.82249  -7245439.68045  23686886.181    23686885.465    23686898.968
       210.000         155.000
    916868.93649    715805.72946  22060455.014    22060453.564    22060465.339
       225.000         176.000
 -22775651.13249 -17728877.82247  20690408.989    20690408.593    20690418.990
       238.000         198.000
 -16742172.13949 -13027953.96147  19434367.069    19434366.783    19434374.928
       240.000         207.000
 -16165792.63849 -12583403.48046  22185455.717    22185455.076    22185467.720
       229.000         175.000
    988246.13949    771315.69847  21228373.771    21228372.582    21228382.587
       238.000         199.000
 -14910089.77249 -11596863.86747  20328172.600    20328172.088    20328180.550
       244.000         210.000
 00  5  3 16 41 29.9970000  0  7G16G 2G24G 4G 5G 7G 9
  -9406192.39049  -7306084.39445  23672075.989    23672075.305    23672088.806
       213.000         157.000
    941593.28649    735071.32346  22065160.043    22065158.560    22065170.344
       226.000         176.000
 -22900790.61449 -17826389.04347  20666595.639    20666595.280    20666605.674
       239.000         198.000
 -16797340.88749 -13070942.60347  19423868.798    19423868.537    19423876.690
       240.000         207.000
 -16293126.35249 -12682624.45146  22161224.757    22161224.163    22161236.784
       229.000         176.000
   1004381.48049    783888.62947  21231444.303    21231443.081    21231453.122
       237.000         198.000
 -14956967.96649 -11633392.33047  20319251.994    20319251.479    20319259.920
       244.000         210.000
 00  5  3 16 41 59.9970000  0  7G16G 2G24G 4G 5G 7G 9
  -9483637.02449  -7366430.73345  23657338.753    23657338.027    23657351.529
       212.000         159.000
    966555.79249    754522.48746  22069910.272    22069908.854    22069920.684
       225.000         174.000
 -23025586.21549 -17923632.30447  20642847.779    20642847.405    20642857.795
       239.000         199.000
 -16851934.60149 -13113483.16247  19413479.999    19413479.723    19413487.860
       239.000         207.000
 -16420434.34749 -12781825.35646  22136998.711    22136998.152    22137010.775
       226.000         177.000
   1020574.73849    796506.68847  21234525.802    21234524.608    21234534.660
       237.000         198.000
 -15003307.83849 -11669501.32547  20310433.864    20310433.318    20310441.733
       245.000         211.000
 00  5  3 16 42 29.9970000  0  7G16G 2G24G 4G 5G 7G 9
  -9560691.93449  -7426473.36345  23642675.537    23642674.936    23642688.446
       215.000         159.000
    991761.17049    774162.90346  22074706.784    22074705.374    22074717.201
       225.000         175.000
 -23150030.94249 -18020602.16447  20619166.732    20619166.329    20619176.694
       239.000         199.000
 -16905948.58649 -13155571.98247  19403201.442    19403201.196    19403209.347
       239.000         207.000
 -16547710.65249 -12881001.57446  22112778.732    22112778.181    22112790.782
       227.000         176.000
   1036829.64849    809172.79047  21237619.062    21237617.868    21237627.924
       237.000         198.000
 -15049104.41849 -11705186.97647  20301719.074    20301718.517    20301726.935
       245.000         210.000
 00  5  3 16 42 59.9970000  0  7G16G 2G24G 4G 5G 7G 9
  -9637379.14249  -7486229.48245  23628082.618    23628081.855    23628095.232
       214.000         160.000
   1017184.64849    793973.25846  22079544.734    22079543.386    22079555.244
       226.000         175.000
 -23274146.56949 -18117315.58447  20595548.281    20595547.858    20595558.195
       240.000         200.000
 -16959406.75549 -13197227.70247  19393028.700    19393028.468    19393036.594
       239.000         207.000
 -16674978.21549 -12980170.99146  22088560.470    22088559.912    22088572.431
       229.000         176.000
   1053121.06349    821867.33947  21240719.266    21240718.075    21240728.140
       237.000         198.000
 -15094381.98749 -11740468.20447  20293103.016    20293102.481    20293110.876
       245.000         210.000
 00  5  3 16 43 29.9970000  0  7G16G 2G24G 4G 5G 7G 9
  -9713644.48149  -7545656.85345  23613569.595    23613568.918    23613582.242
       212.000         156.000
   1042877.98349    813993.88146  22084434.128    22084432.759    22084444.641
       225.000         175.000
 -23397879.26349 -18213730.60647  20572002.677    20572002.255    20572012.591
       240.000         200.000
 -17012257.33649 -13238409.97147  19382971.576    19382971.333    19382979.480
       239.000         207.000
 -16802183.57149 -13079291.95546  22064354.064    22064353.457    22064365.913
       228.000         176.000
   1069500.11349    834630.17447  21243836.171    21243834.974    21243845.041
       238.000         198.000
 -15139088.56949 -11775304.50547  20284595.642    20284595.109    20284603.512
       245.000         210.000
 00  5  3 16 43 59.9970000  0  7G16G 2G24G 4G 5G 7G 9
  -9789493.30449  -7604759.66145  23599135.794    23599135.206    23599148.534
       213.000         157.000
   1068833.31349    834218.65946  22089373.399    22089371.993    22089383.914
       226.000         176.000
 -23521234.15049 -18309851.22347  20548528.965    20548528.554    20548538.874
       239.000         201.000
 -17064507.72049 -13279124.56047  19373028.661    19373028.424    19373036.549
       239.000         207.000
 -16929332.94849 -13178369.28746  22040158.339    22040157.683    22040170.070
       227.000         177.000
   1085958.27749    847454.65647  21246968.131    21246966.923    21246976.996
       237.000         198.000
 -15183231.63049 -11809701.70147  20276195.520    20276194.958    20276203.348
       245.000         210.000
 00  5  3 16 44 29.9970000  0  7G16G 2G24G 4G 5G 7G 9
  -9864941.46149  -7663550.24445  23584778.428    23584777.823    23584791.096
       216.000         161.000
   1095032.49249    854633.44146  22094359.020    22094357.627    22094369.591
       226.000         176.000
 -23644226.92349 -18405689.68447  20525124.136    20525123.765    20525134.081
       240.000         200.000
 -17116175.82449 -13319385.42747  19363196.563    19363196.321    19363204.447
       239.000         207.000
 -17056442.89249 -13277415.85146  22015969.890    22015969.346    22015981.771
       228.000         178.000
   1102476.95449    860326.28247  21250111.551    21250110.367    21250120.464
       237.000         198.000
 -15226828.84049 -11843673.56247  20267899.248    20267898.701    20267907.083
       245.000         211.000
 00  5  3 16 44 59.9970000  0  7G16G 2G24G 4G 5G 7G 9
  -9939972.94549  -7722016.17745  23570500.427    23570499.758    23570513.025
       215.000         160.000
   1121488.94549    875248.71046  22099393.516    22099392.205    22099404.225
       226.000         176.000
 -23766841.80249 -18501233.68347  20501791.244    20501790.871    20501801.193
       240.000         201.000
 -17167248.00649 -13359181.93547  19353477.821    19353477.623    19353485.739
       239.000         207.000
 -17183498.31949 -13376419.97946  21991792.025    21991791.436    21991803.828
       231.000         179.000
   1119068.82749    873254.94047  21253268.919    21253267.734    21253277.870
       237.000         198.000
 -15269866.77949 -11877209.61647  20259709.433    20259708.873    20259717.239
       245.000         210.000
 00  5  3 16 45 29.9960000  0  7G16G 2G24G 4G 5G 7G 9
 -10014585.80749  -7780155.87545  23556301.996    23556301.295    23556314.498
       214.000         161.000
   1148198.88649    896061.48946  22104476.403    22104475.061    22104487.135
       226.000         177.000
 -23889075.05949 -18596480.31347  20478531.016    20478530.628    20478540.917
       241.000         201.000
 -17217725.27249 -13398514.87647  19343872.328    19343872.130    19343880.237
       239.000         207.000
 -17310496.40949 -13475379.42846  21967625.139    21967624.458    21967636.787
       230.000         178.000
   1135729.95249    886237.56247  21256439.489    21256438.294    21256448.454
       236.000         198.000
 -15312346.50349 -11910310.71247  20251625.844    20251625.271    20251633.622
       245.000         211.000
 00  5  3 16 45 59.9960000  0  7G16G 2G24G 4G 5G 7G 9
 -10088783.56049  -7837972.14445  23542182.514    23542181.818    23542194.991
       216.000         162.000
   1175163.19049    917072.48046  22109607.639    22109606.308    22109618.437
       226.000         177.000
 -24010933.16249 -18691434.61547  20455342.137    20455341.747    20455352.025
       240.000         201.000
 -17267611.79849 -13437387.49347  19334379.250    19334379.043    19334387.152
       239.000         207.000
 -17437444.57949 -13574299.97146  21943467.609    21943466.960    21943479.212
       230.000         177.000
   1152459.88449    899273.80147  21259623.101    21259621.941    21259632.153
       237.000         198.000
 -15354271.61349 -11942979.63447  20243647.785    20243647.193    20243655.557
       245.000         211.000
 00  5  3 16 46 29.9960000  0  7G16G 2G24G 4G 5G 7G 9
 -10162549.67049  -7895452.08346  23528145.343    23528144.514    23528157.598
       219.000         164.000
   1202392.19049    938289.72546  22114789.324    22114787.930    22114800.108
       226.000         177.000
 -24132398.14849 -18786082.58547  20432228.037    20432227.667    20432237.933
       240.000         201.000
 -17316893.98249 -13475789.20247  19325001.159    19325000.959    19325009.076
       239.000         207.000
 -17564325.40349 -13673168.05846  21919322.896    21919322.233    21919334.465
       227.000         176.000
   1169269.08349    912371.80147  21262821.903    21262820.681    21262830.924
       237.000         198.000
 -15395629.35949 -11975206.45847  20235777.676    20235777.092    20235785.451
       246.000         211.000
 00  5  3 16 46 59.9960000  0  7G16G 2G24G 4G 5G 7G 9
 -10235884.09749  -7952595.62446  23514190.230    23514189.370    23514202.326
       217.000         163.000
   1229883.82249    959711.62346  22120020.896    22120019.529    22120031.759
       226.000         177.000
 -24253469.76549 -18880424.05347  20409188.835    20409188.452    20409198.714
       240.000         201.000
 -17365573.98249 -13513721.67047  19315737.704    19315737.474    19315745.577
       239.000         207.000
 -17691139.25349 -13771983.91846  21895190.882    21895190.270    21895202.477
       228.000         176.000
   1186154.90149    925529.51647  21266035.225    21266034.005    21266044.259
       237.000         198.000
 -15436421.45749 -12006992.51747  20228015.193    20228014.630    20228022.989
       245.000         211.000
 00  5  3 16 47 29.9960000  0  7G16G 2G24G 4G 5G 7G 9
 -10308826.47749  -8009433.67445  23500309.570    23500308.774    23500321.686
       215.000         160.000
   1257596.06349    981305.40046  22125294.485    22125293.096    22125305.391
       225.000         176.000
 -24374187.53449 -18974489.76647  20386216.930    20386216.571    20386226.834
       240.000         202.000
 -17413693.67249 -13551217.53847  19306580.806    19306580.604    19306588.712
       239.000         207.000
 -17817926.45049 -13870779.02446  21871063.962    21871063.373    21871075.571
       228.000         176.000
   1203074.71749    938713.71647  21269255.049    21269253.812    21269264.060
       237.000         198.000
 -15476689.58149 -12038370.28847  20220352.452    20220351.868    20220360.219
       245.000         211.000
 00  5  3 16 47 59.9960000  0  7G16G 2G24G 4G 5G 7G 9
 -10381295.56249  -8065902.93246  23486518.968    23486518.253    23486531.120
       217.000         163.000
   1285607.77349   1003132.53946  22130625.093    22130623.687    22130636.001
       223.000         174.000
 -24494470.24649 -19068216.47247  20363327.803    20363327.464    20363337.725
       240.000         201.000
 -17461173.96649 -13588215.17847  19297545.583    19297545.391    19297553.495
       239.000         207.000
 -17944606.39249 -13969490.55746  21846957.506    21846956.881    21846969.037
       228.000         177.000
   1220106.89949    951985.47247  21272496.239    21272494.993    21272505.240
       237.000         197.000
 -15516354.84449 -12069278.29947  20212804.425    20212803.837    20212812.181
       245.000         211.000
 00  5  3 16 48 29.9960000  0  7G16G 2G24G 4G 5G 7G 9
 -10453314.69149  -8122021.58746  23472814.143    23472813.377    23472826.156
       217.000         163.000
   1313893.21849   1025172.97446  22136007.662    22136006.303    22136018.718
       223.000         175.000
 -24614341.14049 -19161622.29747  20340517.138    20340516.746    20340526.966
       241.000         202.000
 -17508040.60849 -13624734.64947  19288627.170    19288626.958    19288635.067
       239.000         207.000
 -18071203.02449 -14068137.17346  21822866.808    21822866.238    21822878.386
       228.000         178.000
   1237225.20849    965324.34047  21275753.778    21275752.541    21275762.818
       236.000         197.000
 -15555443.18149 -12099736.75447  20205366.144    20205365.578    20205373.935
       245.000         211.000
 00  5  3 16 48 59.9960000  0  7G16G 2G24G 4G 5G 7G 9
 -10524890.63249  -8177794.88846  23459193.511    23459192.833    23459205.642
       215.000         163.000
   1342443.21749   1047419.56746  22141440.663    22141439.309    22141451.783
       222.000         173.000
 -24733806.60249 -19254712.21547  20317783.587    20317783.188    20317793.358
       241.000         202.000
 -17554302.45049 -13660782.84847  19279823.847    19279823.634    19279831.737
       239.000         207.000
 -18197723.53049 -14166724.46246  21798790.714    21798790.087    21798802.232
       230.000         177.000
   1254420.31049    978723.05347  21279025.907    21279024.698    21279035.001
       236.000         197.000
 -15593963.14849 -12129752.33347  20198036.073    20198035.477    20198043.847
       245.000         211.000
 00  5  3 16 49 29.9960000  0  7G16G 2G24G 4G 5G 7G 9
 -10596006.72249  -8233209.85045  23445660.315    23445659.731    23445672.555
       212.000         162.000
   1371271.76749   1069883.18446  22146926.639    22146925.313    22146937.827
       223.000         173.000
 -24852850.34549 -19347473.51247  20295130.245    20295129.873    20295140.031
       241.000         202.000
 -17599945.29749 -13696348.71847  19271138.357    19271138.107    19271146.193
       240.000         207.000
 -18324152.29749 -14265240.28746  21774731.999    21774731.390    21774743.510
       229.000         176.000
   1271705.82149    992192.20347  21282315.288    21282314.059    21282324.393
       236.000         196.000
 -15631900.69349 -12159314.06847  20190816.815    20190816.219    20190824.568
       245.000         211.000
 00  5  3 16 49 59.9960000  0  7G16G 2G24G 4G 5G 7G 9
 -10666679.48849  -8288279.36645  23432211.462    23432210.970    23432223.902
       216.000         162.000
   1400359.99049   1092549.16546  22152462.158    22152460.766    22152473.280
       223.000         172.000
 -24971488.54249 -19439918.81247  20272554.105    20272553.722    20272563.864
       241.000         202.000
 -17644987.96049 -13731446.91247  19262567.037    19262566.779    19262574.877
       239.000         207.000
 -18450506.13049 -14363697.72146  21750687.461    21750686.949    21750699.022
       227.000         176.000
   1289062.45349   1005716.78447  21285618.174    21285616.966    21285627.307
       236.000         196.000
 -15669274.34249 -12188436.40547  20183704.837    20183704.256    20183712.598
       245.000         211.000
 00  5  3 16 50 29.9960000  0  7G16G 2G24G 4G 5G 7G 9
 -10736905.60549  -8343000.88045  23418847.729    23418847.286    23418860.126
       217.000         162.000
   1429709.05949   1115418.38746  22158047.280    22158045.839    22158058.358
       223.000         171.000
 -25089717.78249 -19532045.42947  20250055.816    20250055.403    20250065.522
       241.000         202.000
 -17689429.34249 -13766076.58047  19254110.136    19254109.893    19254117.959
       239.000         208.000
 -18576782.07749 -14462094.45346  21726657.829    21726657.343    21726669.427
       229.000         179.000
   1306490.84349   1019297.27347  21288934.790    21288933.539    21288943.870
       237.000         196.000
 -15706083.08449 -12217118.55947  20176700.387    20176699.797    20176708.150
       245.000         211.000
 00  5  3 16 50 59.9960000  0  7G16G 2G24G 4G 5G 7G 9
 -10806696.24749  -8397383.07245  23405566.995    23405566.534    23405579.107
       215.000         157.000
   1459305.53649   1138480.40046  22163679.467    22163678.000    22163690.544
       223.000         171.000
 -25207548.97449 -19623861.88847  20227633.236    20227632.828    20227642.922
       241.000         202.000
 -17733282.62349 -13800247.98247  19245765.130    19245764.900    19245772.994
       239.000         207.000
 -18702991.52149 -14560439.36046  21702640.970    21702640.441    21702652.486
       228.000         178.000
   1323977.39949   1032923.09447  21292262.418    21292261.185    21292271.522
       237.000         196.000
 -15742340.21149 -12245370.87847  20169800.892    20169800.305    20169808.686
       245.000         211.000
 00  5  3 16 51 29.9960000  0  7G16G 2G24G 4G 5G 7G 9
 -10876082.51549  -8451450.18845  23392363.238    23392362.701    23392375.057
       218.000         158.000
   1489115.69349   1161708.92046  22169352.315    22169350.841    22169363.388
       223.000         172.000
 -25325013.40549 -19715392.55847  20205280.454    20205280.031    20205290.149
       241.000         202.000
 -17776581.49449 -13833987.38747  19237525.658    19237525.406    19237533.506
       239.000         208.000
 -18829166.34949 -14658757.31846  21678630.661    21678630.084    21678642.121
       228.000         178.000
   1341487.93549   1046567.59047  21295594.631    21295593.405    21295603.723
       237.000         195.000
 -15778079.34149 -12273219.56647  20162999.946    20162999.355    20163007.755
       245.000         211.000
 00  5  3 16 51 59.9960000  0  7G16G 2G24G 4G 5G 7G 9
 -10945045.26049  -8505187.25245  23379239.893    23379239.406    23379251.740
       214.000         160.000
   1519156.51649   1185117.17346  22175069.064    22175067.564    22175080.112
       223.000         172.000
 -25442091.54649 -19806622.22047  20183001.208    20183000.756    20183010.870
       241.000         202.000
 -17819308.93849 -13867281.52347  19229394.905    19229394.663    19229402.777
       239.000         208.000
 -18955287.51949 -14757033.44546  21654630.634    21654629.962    21654641.959
       230.000         180.000
   1359039.32149   1060243.92447  21298934.603    21298933.380    21298943.707
       236.000         195.000
 -15813283.46749 -12300651.36247  20156300.836    20156300.244    20156308.640
       245.000         211.000
 00  5  3 16 52 29.9960000  0  7G16G 2G24G 4G 5G 7G 9
 -11013578.07349  -8558589.29745  23366198.379    23366197.913    23366210.336
       212.000         160.000
   1549431.98949   1208708.26046  22180830.384    22180828.926    22180841.534
       223.000         172.000
 -25558776.96949 -19897545.87247  20160796.682    20160796.219    20160806.306
       241.000         202.000
 -17861460.98549 -13900127.29947  19221373.666    19221373.414    19221381.529
       239.000         207.000
 -19081349.01349 -14855263.08146  21630641.876    21630641.216    21630653.203
       228.000         180.000
   1376635.17249   1073954.90347  21302283.057    21302281.819    21302292.157
       237.000         194.000
 -15847948.47449 -12327663.07047  20149704.323    20149703.733    20149712.100
       245.000         210.000
 00  5  3 16 52 59.9960000  0  7G16G 2G24G 4G 5G 7G 9
 -11081666.71049  -8611645.23645  23353241.375    23353240.931    23353253.487
       213.000         160.000
   1579953.98049   1232491.44246  22186638.680    22186637.226    22186649.880
       223.000         172.000
 -25675055.40549 -19988152.40747  20138669.585    20138669.120    20138679.170
       241.000         202.000
 -17903025.65549 -13932515.37747  19213464.183    19213463.940    19213472.054
       239.000         208.000
 -19207336.98749 -14953435.42546  21606667.082    21606666.439    21606678.407
       230.000         180.000
   1394286.97149   1087709.47747  21305642.183    21305640.889    21305651.237
       235.000         194.000
 -15882062.40249 -12354245.37247  20143212.652    20143212.067    20143220.450
       245.000         210.000
 00  5  3 16 53 29.9960000  0  7G16G 2G24G 4G 5G 7G 9
 -11149310.38349  -8664354.48345  23340369.146    23340368.664    23340381.153
       215.000         161.000
   1610721.20649   1256465.72046  22192493.628    22192492.175    22192504.866
       223.000         172.000
 -25790925.94649 -20078441.09247  20116620.133    20116619.654    20116629.675
       241.000         202.000
 -17944004.60849 -13964447.05347  19205666.201    19205665.923    19205674.036
       239.000         208.000
 -19333250.90549 -15051550.06146  21582706.460    21582705.729    21582717.667
       232.000         180.000
   1411993.04249   1101506.33947  21309011.569    21309010.308    21309020.644
       236.000         193.000
 -15915626.83149 -12380399.48647  20136825.541    20136824.967    20136833.350
       245.000         210.000
 00  5  3 16 53 59.9960000  0  7G16G 2G24G 4G 5G 7G 9
 -11216488.09849  -8716700.64945  23327585.473    23327585.065    23327597.525
       215.000         159.000
   1641752.36149   1280645.64846  22198398.792    22198397.336    22198410.104
       222.000         171.000
 -25906367.18449 -20168395.25747  20094652.355    20094651.882    20094661.855
       241.000         203.000
 -17984379.07949 -13995907.70747  19197983.186    19197982.924    19197991.043
       239.000         208.000
 -19459069.95649 -15149590.78246  21558763.854    21558763.113    21558774.955
       230.000         180.000
   1429771.93049   1115359.94447  21312394.845    21312393.577    21312403.900
       236.000         193.000
 -15948622.84849 -12406110.68347  20130546.644    20130546.055    20130554.427
       245.000         210.000
 00  5  3 16 54 29.9960000  0  7G16G 2G24G 4G 5G 7G 9
 -11283219.72749  -8768699.20845  23314886.772    23314886.351    23314898.764
       218.000         160.000
   1673025.14149   1305013.86346  22204350.022    22204348.508    22204361.291
       223.000         172.000
 -26021399.07349 -20258030.46047  20072762.450    20072761.992    20072771.947
       242.000         203.000
 -18024171.25349 -14026914.62547  19190411.020    19190410.743    19190418.857
       239.000         208.000
 -19584814.45449 -15247573.42046  21534835.420    21534834.658    21534846.493
       231.000         182.000
   1447601.15649   1129252.76847  21315787.672    21315786.416    21315796.743
       235.000         193.000
 -15981072.64149 -12431396.25747  20124371.655    20124371.077    20124379.440
       245.000         210.000
 00  5  3 16 54 59.9960000  0  7G16G 2G24G 4G 5G 7G 9
 -11349501.01449  -8820346.90045  23302273.881    23302273.375    23302285.653
       217.000         160.000
   1704541.54049   1329571.90146  22210347.533    22210346.009    22210358.856
       223.000         172.000
 -26136017.32749 -20347343.34447  20050951.307    20050950.835    20050960.770
       242.000         203.000
 -18063379.13849 -14057466.24747  19182950.023    19182949.756    19182957.870
       239.000         208.000
 -19710480.41749 -15345494.85046  21510921.914    21510921.151    21510932.974
       231.000         182.000
   1465482.35449   1143186.09147  21319190.336    21319189.145    21319199.508
       235.000         193.000
 -16012974.52049 -12456254.88647  20118300.927    20118300.358    20118308.734
       245.000         210.000
 00  5  3 16 55 29.9960000  0  7G16G 2G24G 4G 5G 7G 9
 -11415339.30549  -8871649.40445  23289745.117    23289744.676    23289756.855
       215.000         159.000
   1736291.95549   1354312.29046  22216389.582    22216388.062    22216400.941
       222.000         171.000
 -26250228.88949 -20436339.32447  20029217.554    20029217.069    20029226.980
       243.000         204.000
 -18102012.66649 -14087570.31447  19175598.351    19175598.064    19175606.177
       239.000         208.000
 -19836075.12349 -15443360.74446  21487021.896    21487021.203    21487032.988
       230.000         182.000
   1483405.92849   1157152.44047  21322601.208    21322599.968    21322610.323
       236.000         193.000
 -16044337.90849 -12480693.91247  20112332.686    20112332.101    20112340.495
       245.000         210.000
 00  5  3 16 55 59.9960000  0  7G16G 2G24G 4G 5G 7G 9
 -11480716.01049  -8922592.23645  23277303.985    23277303.671    23277315.971
       215.000         159.000
   1768292.83149   1379247.84246  22222479.305    22222477.773    22222490.712
       221.000         171.000
 -26364015.18149 -20525003.92447  20007564.694    20007564.224    20007574.136
       243.000         204.000
 -18140055.52949 -14117214.13247  19168359.064    19168358.780    19168366.875
       239.000         208.000
 -19961580.32749 -15541156.91846  21463138.954    21463138.293    21463150.047
       230.000         182.000
   1501387.91249   1171164.30547  21326023.144    21326021.899    21326032.256
       236.000         192.000
 -16075146.83549 -12504700.88947  20106469.975    20106469.396    20106477.761
       245.000         210.000
 00  5  3 16 56 29.9960000  0  7G16G 2G24G 4G 5G 7G 9
 -11545622.56849  -8973168.73245  23264952.547    23264952.206    23264964.513
       215.000         160.000
   1800550.35949   1404383.38746  22228617.847    22228616.307    22228629.279
       220.000         170.000
 -26477367.34949 -20613330.24747  19985994.472    19985993.991    19986003.896
       243.000         204.000
 -18177501.50449 -14146392.84847  19161233.384    19161233.071    19161241.152
       240.000         208.000
 -20086987.61249 -15638876.77246  21439274.664    21439274.003    21439285.733
       232.000         183.000
   1519434.45849   1185226.47447  21329457.344    21329456.113    21329466.441
       236.000         192.000
 -16105394.73149 -12528270.70147  20100714.039    20100713.433    20100721.784
       245.000         210.000
 00  5  3 16 56 59.9960000  0  7G16G 2G24G 4G 5G 7G 9
 -11610076.78849  -9023392.75345  23252687.207    23252686.919    23252699.115
       213.000         160.000
   1833044.34849   1429703.17046  22234801.437    22234799.883    22234812.861
       221.000         171.000
 -26590303.22149 -20701332.19047  19964503.477    19964502.976    19964512.868
       243.000         204.000
 -18214370.77649 -14175122.18547  19154217.422    19154217.109    19154225.184
       240.000         208.000
 -20212315.03249 -15736534.39846  21415425.570    21415424.918    21415436.593
       235.000         183.000
   1537525.38049   1199323.21647  21332899.969    21332898.749    21332909.093
       235.000         192.000
 -16135101.64049 -12551418.96847  20095061.034    20095060.412    20095068.765
       245.000         210.000
 00  5  3 16 57 29.9960000  0  7G16G 2G24G 4G 5G 7G 9
 -11674077.37949  -9073263.30245  23240508.141    23240507.883    23240520.100
       215.000         162.000
   1865774.12649   1455206.69646  22241029.741    22241028.283    22241041.330
       219.000         169.000
 -26702821.14949 -20789008.46447  19943092.024    19943091.505    19943101.387
       244.000         205.000
 -18250664.26149 -14203402.85847  19147311.041    19147310.724    19147318.768
       240.000         207.000
 -20337560.97849 -15834128.56246  21391592.117    21391591.378    21391602.950
       233.000         183.000
   1555659.69849   1213453.77147  21336350.876    21336349.649    21336360.024
       235.000         192.000
 -16164268.73249 -12574146.60047  20089510.742    20089510.121    20089518.477
       245.000         210.000
 00  5  3 16 57 59.9960000  0  7G16G 2G24G 4G 5G 7G 9
 -11737621.32349  -9122778.04246  23228416.119    23228415.793    23228428.015
       217.000         163.000
   1898740.35849   1480894.46246  22247303.121    22247301.653    22247314.803
       220.000         170.000
 -26814917.86049 -20876356.50547  19921760.710    19921760.193    19921770.054
       244.000         205.000
 -18286381.24549 -14231234.30347  19140514.353    19140514.034    19140522.057
       240.000         208.000
 -20462722.44849 -15931656.87846  21367774.516    21367773.844    21367785.412
       232.000         183.000
   1573838.18549   1227618.74347  21339810.155    21339808.951    21339819.358
       235.000         192.000
 -16192895.14449 -12596452.91847  20084063.373    20084062.715    20084071.076
       246.000         210.000
 00  5  3 16 58 29.9960000  0  7G16G 2G24G 4G 5G 7G 9
 -11800708.26849  -9171936.67146  23216411.146    23216410.706    23216422.937
       217.000         164.000
   1931940.81749   1506764.74446  22253621.037    22253619.606    22253632.830
       219.000         169.000
 -26926593.30549 -20963376.29447  19900509.579    19900509.041    19900518.877
       243.000         205.000
 -18321524.21049 -14258618.46347  19133826.924    19133826.577    19133834.590
       240.000         207.000
 -20587799.67749 -16029119.55546  21343973.014    21343972.354    21343983.898
       231.000         183.000
   1592058.52049   1241816.32347  21343277.404    21343276.220    21343286.668
       235.000         192.000
 -16220983.32449 -12618339.84147  20078718.386    20078717.732    20078726.088
       246.000         210.000
 00  5  3 16 58 59.9960000  0  7G16G 2G24G 4G 5G 7G 9
 -11863334.28349  -9220736.12646  23204493.853    23204493.352    23204505.623
       217.000         163.000
   1965377.77149   1532819.30546  22259983.971    22259982.568    22259995.853
       217.000         168.000
 -27037843.04249 -21050064.36147  19879339.387    19879338.888    19879348.723
       243.000         205.000
 -18356091.36049 -14285553.93947  19127249.011    19127248.696    19127256.674
       240.000         207.000
 -20712788.48449 -16126513.33446  21320188.317    21320187.679    21320199.196
       232.000         183.000
   1610322.77249   1256048.12947  21346753.030    21346751.841    21346762.335
       234.000         191.000
 -16248531.42849 -12639805.92647  20073476.190    20073475.517    20073483.885
       246.000         210.000
 00  5  3 16 59 29.9960000  0  7G16G 2G24G 4G 5G 7G 9
 -11925517.49249  -9269190.56345  23192660.765    23192660.225    23192672.477
       217.000         162.000
   1999030.78849   1559042.22346  22266388.071    22266386.666    22266399.980
       220.000         168.000
 -27148684.91649 -21136434.61747  19858246.849    19858246.344    19858256.187
       244.000         205.000
 -18390103.28649 -14312056.77047  19120776.790    19120776.463    19120784.440
       240.000         207.000
 -20837706.77849 -16223852.17346  21296417.073    21296416.414    21296427.910
       232.000         184.000
   1628610.32849   1270298.09847  21350233.138    21350231.908    21350242.418
       234.000         191.000
 -16275559.72549 -12660866.96847  20068332.907    20068332.231    20068340.610
       246.000         210.000
 00  5  3 16 59 59.9960000  0  7G16G 2G24G 4G 5G 7G 9
 -11987245.34049  -9317290.18346  23180914.410    23180913.812    23180926.014
       220.000         164.000
   2032909.93149   1585441.34446  22272835.309    22272833.809    22272847.160
       219.000         169.000
 -27259106.37049 -21222477.27147  19837234.301    19837233.808    19837243.647
       243.000         205.000
 -18423549.92849 -14338119.12247  19114412.105    19114411.796    19114419.776
       240.000         207.000
 -20962542.43249 -16321126.59846  21272661.550    21272660.894    21272672.384
       231.000         184.000
   1646931.39149   1284574.16247  21353719.619    21353718.372    21353728.904
       234.000         191.000
 -16302058.53549 -12681515.42147  20063290.369    20063289.711    20063298.090
       246.000         210.000
 00  5  3 17  0 29.9960000  0  7G16G 2G24G 4G 5G 7G 9
 -12048508.79449  -9365027.91346  23169256.476    23169255.749    23169267.990
       217.000         163.000
   2067022.26649   1612022.17346  22279326.818    22279325.333    22279338.743
       221.000         169.000
 -27369098.34849 -21308185.27047  19816303.483    19816302.992    19816312.831
       243.000         205.000
 -18456424.57249 -14363735.75947  19108156.310    19108155.989    19108163.968
       239.000         207.000
 -21087285.99249 -16418329.27746  21248923.572    21248922.918    21248934.365
       233.000         186.000
   1665292.89749   1298881.74847  21357213.794    21357212.536    21357223.064
       234.000         191.000
 -16328021.03349 -12701745.97347  20058349.900    20058349.228    20058357.609
       245.000         210.000
 00  5  3 17  0 59.9960000  0  7G16G 2G24G 4G 5G 7G 9
 -12109284.32649  -9412385.42646  23157691.322    23157690.492    23157702.857
       217.000         165.000
   2101389.07249   1638801.28546  22285866.775    22285865.304    22285878.733
       219.000         169.000
 -27478636.92149 -21393539.96647  19795458.932    19795458.460    19795468.296
       243.000         205.000
 -18488705.94349 -14388890.10247  19102013.392    19102013.062    19102021.061
       240.000         207.000
 -21211913.66649 -16515441.65446  21225207.622    21225206.985    21225218.411
       233.000         186.000
   1683716.37349   1313237.62147  21360719.726    21360718.465    21360729.030
       233.000         190.000
 -16353425.60849 -12721541.77947  20053515.601    20053514.917    20053523.280
       246.000         210.000
 00  5  3 17  1 29.9960000  0  7G16G 2G24G 4G 5G 7G 9
 -12169601.58949  -9459385.85046  23146213.325    23146212.432    23146224.876
       218.000         163.000
   2135978.76449   1665754.05646  22292449.232    22292447.671    22292461.152
       218.000         168.000
 -27587751.27549 -21478564.10947  19774695.140    19774694.652    19774704.479
       242.000         205.000
 -18520426.17849 -14413607.20047  19095977.296    19095976.920    19095984.914
       240.000         207.000
 -21336454.93649 -16612486.69546  21201508.169    21201507.481    21201518.914
       233.000         187.000
   1702170.16749   1327617.11847  21364231.389    21364230.154    21364240.759
       234.000         190.000
 -16378304.26249 -12740927.77347  20048781.401    20048780.707    20048789.056
       246.000         210.000
 00  5  3 17  1 59.9960000  0  7G16G 2G24G 4G 5G 7G 9
 -12229463.22149  -9506031.24046  23134822.197    23134821.204    23134833.461
       220.000         163.000
   2170786.20149   1692876.52046  22299073.028    22299071.483    22299084.951
       216.000         165.000
 -27696444.28349 -21563259.93247  19754011.506    19754011.029    19754020.849
       242.000         205.000
 -18551590.55349 -14437891.16147  19090046.935    19090046.573    19090054.564
       239.000         207.000
 -21460912.62549 -16709466.61246  21177824.617    21177823.895    21177835.326
       232.000         187.000
   1720649.05349   1342016.17447  21367747.854    21367746.629    21367757.249
       233.000         189.000
 -16402662.45449 -12759908.22147  20044146.178    20044145.490    20044153.879
       245.000         210.000
 00  5  3 17  2 29.9960000  0  7G16G 2G24G 4G 5G 7G 9
 -12288858.58749  -9552313.30946  23123519.728    23123518.659    23123530.799
       219.000         163.000
   2205820.16349   1720175.48946  22305739.868    22305738.349    22305751.861
       219.000         166.000
 -27804705.01349 -21647618.91547  19733410.166    19733409.671    19733419.479
       242.000         205.000
 -18582190.59049 -14461735.37547  19084223.957    19084223.597    19084231.597
       239.000         208.000
 -21585275.62649 -16806372.74246  21154158.997    21154158.308    21154169.758
       234.000         187.000
   1739161.97949   1356441.75547  21371270.788    21371269.576    21371280.215
       234.000         189.000
 -16426491.43149 -12778476.28847  20039611.670    20039611.014    20039619.419
       246.000         210.000
 00  5  3 17  2 59.9960000  0  7G16G 2G24G 4G 5G 7G 9
 -12347787.27649  -9598231.70545  23112305.950    23112304.868    23112316.965
       216.000         161.000
   2241078.96249   1747649.67146  22312449.426    22312447.993    22312461.593
       218.000         166.000
 -27912532.64949 -21731640.42047  19712891.227    19712890.716    19712900.540
       242.000         205.000
 -18612228.29549 -14485141.40847  19078507.983    19078507.640    19078515.658
       239.000         208.000
 -21709543.26549 -16903204.58147  21130511.556    21130510.873    21130522.320
       232.000         188.000
   1757707.26049   1370892.54247  21374799.907    21374798.679    21374809.363
       234.000         189.000
 -16449793.09349 -12796633.46247  20035177.568    20035176.890    20035185.287
       246.000         210.000
 00  5  3 17  3 29.9950000  0  7G16G 2G24G 4G 5G 7G 9
 -12406234.51349  -9643774.93745  23101183.667    23101182.691    23101194.759
       216.000         161.000
   2276571.93149   1775306.31146  22319203.713    22319202.271    22319215.872
       216.000         164.000
 -28019910.74349 -21815311.63847  19692457.805    19692457.313    19692467.129
       242.000         205.000
 -18641692.43749 -14508100.51247  19072901.168    19072900.819    19072908.861
       240.000         208.000
 -21833698.54549 -16999948.86047  21106885.569    21106884.857    21106896.258
       233.000         188.000
   1776295.03949   1385376.44747  21378337.161    21378335.872    21378346.579
       233.000         189.000
 -16472556.48249 -12814371.20747  20030845.868    20030845.193    20030853.605
       246.000         210.000
 00  5  3 17  3 59.9950000  0  7G16G 2G24G 4G 5G 7G 9
 -12464186.36849  -9688932.18345  23090155.618    23090154.731    23090166.827
       216.000         162.000
   2312317.48349   1803159.78046  22326006.049    22326004.538    22326018.202
       216.000         165.000
 -28126828.20049 -21898623.91647  19672112.080    19672111.578    19672121.366
       242.000         205.000
 -18670569.42949 -14530602.09747  19067406.072    19067405.735    19067413.788
       239.000         208.000
 -21957731.42549 -17096597.76046  21083282.826    21083282.097    21083293.524
       231.000         187.000
   1794942.56249   1399906.90647  21381885.686    21381884.439    21381895.175
       233.000         188.000
 -16494767.59149 -12831678.59747  20026619.259    20026618.580    20026627.007
       246.000         210.000
 00  5  3 17  4 29.9950000  0  7G16G 2G24G 4G 5G 7G 9
 -12521655.52349  -9733713.25445  23079219.506    23079218.663    23079230.807
       217.000         162.000
   2348297.57449   1831196.01946  22332853.133    22332851.530    22332865.212
       216.000         164.000
 -28233296.04749 -21981585.84747  19651851.932    19651851.408    19651861.183
       242.000         205.000
 -18698875.33249 -14552658.67747  19062019.682    19062019.335    19062027.396
       240.000         208.000
 -22081652.09049 -17193159.22146  21059701.357    21059700.665    21059712.128
       234.000         187.000
   1813632.31649   1414470.28347  21385442.303    21385441.033    21385451.833
       232.000         189.000
 -16516442.86749 -12848568.45547  20022494.631    20022493.950    20022502.361
       246.000         210.000
 00  5  3 17  4 59.9950000  0  7G16G 2G24G 4G 5G 7G 9
 -12578652.21049  -9778126.20145  23068373.382    23068372.534    23068384.691
       220.000         162.000
   2384499.75649   1859405.27246  22339742.316    22339740.722    22339754.500
       218.000         164.000
 -28339324.34449 -22064205.27347  19631675.394    19631674.868    19631684.640
       242.000         205.000
 -18726623.09549 -14574280.34647  19056739.461    19056739.131    19056747.211
       239.000         208.000
 -22205470.58249 -17289641.07047  21036139.434    21036138.719    21036150.163
       233.000         188.000
   1832352.14949   1429057.09847  21389004.565    21389003.338    21389014.198
       232.000         188.000
 -16537594.82049 -12865050.53447  20018469.562    20018468.889    20018477.311
       246.000         210.000
 00  5  3 17  5 29.9950000  0  7G16G 2G24G 4G 5G 7G 9
 -12635179.93749  -9822173.71645  23057616.459    23057615.621    23057627.759
       221.000         162.000
   2420918.71349   1887783.49245  22346672.824    22346671.169    22346684.980
       218.000         162.000
 -28444916.12849 -22146484.56047  19611581.925    19611581.389    19611591.158
       242.000         205.000
 -18753818.42149 -14595471.54547  19051564.382    19051564.065    19051572.152
       240.000         208.000
 -22329189.87149 -17386045.62647  21012596.332    21012595.649    21012607.049
       233.000         188.000
   1851097.04549   1443663.44147  21392571.671    21392570.422    21392581.346
       233.000         188.000
 -16558228.94049 -12881129.10347  20014543.036    20014542.364    20014550.798
       246.000         210.000
 00  5  3 17  5 59.9950000  0  7G16G 2G24G 4G 5G 7G 9
 -12691240.64149  -9865857.31045  23046948.355    23046947.587    23046959.640
       218.000         159.000
   2457550.43549   1916327.47845  22353643.679    22353642.089    22353655.958
       214.000         161.000
 -28550073.20449 -22228425.11347  19591571.215    19591570.659    19591580.393
       243.000         205.000
 -18780465.60349 -14616235.61547  19046493.594    19046493.281    19046501.398
       239.000         208.000
 -22452811.64149 -17482374.18747  20989071.809    20989071.139    20989082.509
       232.000         188.000
   1869862.91449   1458286.13747  21396142.733    21396141.505    21396152.449
       233.000         188.000
 -16578349.76649 -12896807.70547  20010714.213    20010713.538    20010721.946
       246.000         210.000
 00  5  3 17  6 29.9950000  0  7G16G 2G24G 4G 5G 7G 9
 -12746804.12949  -9909153.48145  23036374.901    23036374.131    23036386.108
       220.000         159.000
   2494422.75349   1945058.93445  22360660.268    22360658.777    22360672.740
       215.000         160.000
 -28654765.36049 -22310003.39347  19571648.967    19571648.398    19571658.104
       243.000         205.000
 -18806537.15049 -14636551.14347  19041532.365    19041532.047    19041540.191
       240.000         208.000
 -22576305.44749 -17578603.03147  20965571.616    20965570.964    20965582.326
       232.000         188.000
   1888677.98649   1472947.15447  21399723.161    21399721.951    21399732.913
       233.000         188.000
 -16597929.58049 -12912064.73747  20006988.332    20006987.648    20006996.059
       246.000         210.000
 00  5  3 17  6 59.9950000  0  7G16G 2G24G 4G 5G 7G 9
 -12801884.60949  -9952073.27345  23025893.404    23025892.603    23025904.472
       220.000         160.000
   2531519.81749   1973965.55245  22367719.819    22367718.280    22367732.265
       220.000         159.000
 -28759006.01849 -22391229.85547  19551812.624    19551812.048    19551821.733
       243.000         206.000
 -18832049.29949 -14656430.77647  19036677.600    19036677.279    19036685.431
       240.000         208.000
 -22699684.35849 -17674742.34547  20942093.271    20942092.662    20942104.018
       233.000         188.000
   1907526.65049   1487634.35446  21403309.960    21403308.795    21403319.759
       232.000         187.000
 -16616984.40049 -12926912.68647  20003362.358    20003361.670    20003370.093
       246.000         210.000
 00  5  3 17  7 29.9950000  0  7G16G 2G24G 4G 5G 7G 9
 -12856496.70249  -9994628.11445  23015501.075    23015500.277    23015512.082
       218.000         159.000
   2568824.70449   2003034.08945  22374819.014    22374817.360    22374831.406
       217.000         161.000
 -28862810.13649 -22472116.15447  19532059.312    19532058.757    19532068.444
       243.000         206.000
 -18857019.52749 -14675888.12747  19031925.938    19031925.631    19031933.787
       240.000         208.000
 -22822963.02549 -17770803.56047  20918634.063    20918633.431    20918644.749
       233.000         188.000
   1926392.00749   1502334.56346  21406899.949    21406898.800    21406909.759
       232.000         187.000
 -16635531.74849 -12941365.19947  19999832.967    19999832.258    19999840.689
       246.000         209.000
 00  5  3 17  7 59.9950000  0  7G16G 2G24G 4G 5G 7G 9
 -12910608.13249 -10036792.80345  23005203.882    23005203.156    23005215.061
       219.000         162.000
   2606367.91649   2032288.30545  22381963.408    22381961.780    22381975.871
       217.000         162.000
 -28966144.81249 -22552636.64547  19512395.381    19512394.828    19512404.471
       243.000         206.000
 -18881417.60449 -14694899.64447  19027283.176    19027282.854    19027291.025
       240.000         208.000
 -22946108.23349 -17866760.77547  20895200.237    20895199.626    20895210.874
       233.000         188.000
   1945305.06549   1517071.94546  21410499.004    21410497.877    21410508.824
       232.000         186.000
 -16653541.48649 -12955398.79747  19996405.804    19996405.133    19996413.550
       245.000         209.000
 00  5  3 17  8 29.9950000  0  7G16G 2G24G 4G 5G 7G 9
 -12964253.05349 -10078593.99045  22994995.618    22994994.799    22995006.708
       219.000         161.000
   2644113.55749   2061700.29845  22389146.252    22389144.673    22389158.759
       218.000         159.000
 -29069043.86749 -22632817.69547  19492814.356    19492813.771    19492823.422
       243.000         206.000
 -18905280.31649 -14713493.99947  19022742.277    19022741.959    19022750.138
       240.000         208.000
 -23069153.66949 -17962640.24247  20871785.484    20871784.794    20871795.978
       234.000         188.000
   1964229.89249   1531818.50246  21414100.399    21414099.197    21414110.140
       232.000         186.000
 -16671050.25949 -12969042.03147  19993074.027    19993073.340    19993081.762
       246.000         209.000
 00  5  3 17  8 59.9950000  0  7G16G 2G24G 4G 5G 7G 9
 -13017393.79849 -10120002.32245  22984883.263    22984882.421    22984894.242
       219.000         160.000
   2682097.07749   2091297.66845  22396374.338    22396372.826    22396386.936
       210.000         156.000
 -29171469.56649 -22712629.89647  19473323.363    19473322.802    19473332.432
       243.000         206.000
 -18928572.35049 -14731643.66547  19018309.973    19018309.661    19018317.832
       240.000         208.000
 -23192061.35549 -18058412.36547  20848396.921    20848396.195    20848407.326
       235.000         188.000
   1983202.26649   1546602.08846  21417710.751    21417709.563    21417720.527
       232.000         186.000
 -16688022.81749 -12982267.43847  19989844.311    19989843.603    19989852.026
       246.000         209.000
 00  5  3 17  9 29.9950000  0  7G16G 2G24G 4G 5G 7G 9
 -13070023.08549 -10161012.12845  22974868.054    22974867.287    22974879.136
       214.000         157.000
   2720323.67349   2121084.38346  22403648.865    22403647.274    22403661.460
       218.000         163.000
 -29273414.47349 -22792067.45647  19453923.927    19453923.323    19453932.932
       243.000         206.000
 -18951288.99449 -14749344.97747  19013987.203    19013986.853    19013995.040
       240.000         209.000
 -23314823.39249 -18154071.01447  20825036.076    20825035.322    20825046.344
       235.000         188.000
   2002227.90449   1561427.19446  21421331.318    21421330.098    21421341.070
       232.000         186.000
 -16704454.04949 -12995071.03247  19986717.557    19986716.867    19986725.312
       245.000         209.000
 00  5  3 17  9 59.9950000  0  7G16G 2G24G 4G 5G 7G 9
 -13122162.21049 -10201639.98045  22964946.213    22964945.479    22964957.311
       215.000         157.000
   2758770.19149   2151042.46345  22410965.005    22410963.584    22410977.844
       210.000         158.000
 -29374899.45249 -22871146.62947  19434611.964    19434611.372    19434620.958
       243.000         206.000
 -18973453.87949 -14766616.34247  19009769.375    19009769.032    19009777.241
       241.000         209.000
 -23437460.25049 -18249632.11147  20801699.020    20801698.257    20801709.196
       234.000         189.000
   2021283.74149   1576275.81346  21424957.652    21424956.383    21424967.349
       233.000         186.000
 -16720367.80149 -13007471.40047  19983689.288    19983688.611    19983697.053
       246.000         209.000
 00  5  3 17 10 29.9950000  0  7G16G 2G24G 4G 5G 7G 9
 -13173808.62549 -10241883.90545  22955118.121    22955117.390    22955129.292
       216.000         158.000
   2797437.38649   2181172.52045  22418323.373    22418321.883    22418336.206
       215.000         157.000
 -29475921.72349 -22949865.25047  19415388.061    19415387.452    19415397.026
       243.000         206.000
 -18995066.96249 -14783457.73747  19005656.599    19005656.237    19005664.446
       240.000         209.000
 -23559968.65349 -18345093.11047  20778386.437    20778385.622    20778396.537
       235.000         188.000
   2040370.84449   1591148.80746  21428589.906    21428588.625    21428599.579
       232.000         186.000
 -16735763.49449 -13019468.08447  19980759.635    19980758.942    19980767.381
       246.000         209.000
 00  5  3 17 10 59.9950000  0  7G16G 2G24G 4G 5G 7G 9
 -13224954.31549 -10281737.68045  22945385.362    22945384.651    22945396.570
       219.000         157.000
   2836331.27849   2211479.24545  22425724.881    22425723.312    22425737.647
       216.000         159.000
 -29576472.88549 -23028216.77247  19396253.783    19396253.188    19396262.762
       243.000         206.000
 -19016122.55749 -14799864.72247  19001649.896    19001649.522    19001657.732
       240.000         209.000
 -23682339.92749 -18440447.25947  20755099.813    20755099.064    20755109.971
       235.000         189.000
   2059495.76349   1606051.26146  21432229.293    21432228.032    21432239.019
       232.000         186.000
 -16750635.68349 -13031056.84047  19977929.551    19977928.869    19977937.327
       246.000         209.000
 00  5  3 17 11 29.9950000  0  7G16G 2G24G 4G 5G 7G 9
 -13275621.27949 -10321218.41245  22935743.779    22935743.041    22935754.951
       218.000         157.000
   2875428.10749   2241944.08145  22433164.992    22433163.418    22433177.720
       216.000         161.000
 -29676574.81449 -23106218.24047  19377204.992    19377204.404    19377213.995
       243.000         207.000
 -19036645.24249 -14815856.45147  18997744.583    18997744.211    18997752.430
       241.000         209.000
 -23804595.45549 -18535711.22247  20731835.301    20731834.560    20731845.432
       235.000         189.000
   2078634.77549   1620964.69146  21435871.384    21435870.117    21435881.118
       231.000         184.000
 -16765008.92449 -13042256.81047  19975194.420    19975193.750    19975202.221
       246.000         209.000
 00  5  3 17 11 59.9950000  0  7G16G 2G24G 4G 5G 7G 9
 -13325781.36749 -10360304.14245  22926198.735    22926197.894    22926209.827
       220.000         159.000
   2914753.98449   2272587.39945  22440648.611    22440647.036    22440661.413
       214.000         159.000
 -29776199.04949 -23183847.48247  19358247.116    19358246.525    19358256.117
       243.000         207.000
 -19056609.15149 -14831412.77447  18993945.606    18993945.235    18993953.449
       241.000         209.000
 -23926706.24449 -18630862.39847  20708598.360    20708597.590    20708608.418
       234.000         189.000
   2097814.58249   1635909.90846  21439521.171    21439519.947    21439530.986
       231.000         185.000
 -16778857.33649 -13053047.82147  19972559.210    19972558.517    19972566.998
       246.000         209.000
 00  5  3 17 12 29.9950000  0  7G16G 2G24G 4G 5G 7G 9
 -13375431.48149 -10398992.53945  22916750.687    22916749.794    22916761.629
       220.000         155.000
   2954310.05649   2303410.10845  22448176.133    22448174.512    22448188.891
       214.000         160.000
 -29875342.22749 -23261101.88147  19339380.756    19339380.202    19339389.763
       243.000         207.000
 -19076013.82749 -14846533.33247  18990253.030    18990252.679    18990260.893
       241.000         209.000
 -24048668.64449 -18725897.94947  20685389.622    20685388.854    20685399.640
       235.000         189.000
   2117036.70549   1650888.10546  21443179.119    21443177.864    21443188.945
       230.000         184.000
 -16792180.19549 -13063429.31547  19970023.932    19970023.275    19970031.786
       245.000         209.000
 00  5  3 17 12 59.9950000  0  7G16G 2G24G 4G 5G 7G 9
 -13424578.65449 -10437289.01145  22907398.376    22907397.412    22907408.972
       222.000         159.000
   2994087.50649   2334405.26945  22455745.667    22455744.073    22455758.483
       213.000         159.000
 -29974011.12149 -23337986.70547  19320604.691    19320604.135    19320613.664
       244.000         207.000
 -19094868.78149 -14861225.52947  18986665.094    18986664.731    18986672.942
       241.000         209.000
 -24170488.39749 -18820822.34847  20662208.053    20662207.265    20662218.026
       236.000         191.000
   2136292.68549   1665892.67446  21446843.499    21446842.213    21446853.312
       231.000         184.000
 -16804986.69349 -13073408.44847  19967586.974    19967586.301    19967594.823
       245.000         209.000
 00  5  3 17 13 29.9950000  0  7G16G 2G24G 4G 5G 7G 9
 -13473193.79349 -10475170.92945  22898147.258    22898146.258    22898157.804
       221.000         161.000
   3034113.86949   2365594.41245  22463362.584    22463361.009    22463375.472
       216.000         160.000
 -30072176.13349 -23414478.89747  19301924.484    19301923.920    19301933.483
       243.000         207.000
 -19113146.89249 -14875468.24747  18983186.894    18983186.552    18983194.748
       241.000         209.000
 -24292135.29349 -18915612.05847  20639059.308    20639058.565    20639069.314
       236.000         190.000
   2155610.58849   1680945.49646  21450519.641    21450518.363    21450529.464
       231.000         184.000
 -16817250.42149 -13082964.64047  19965253.340    19965252.629    19965261.148
       246.000         209.000
 00  5  3 17 13 59.9950000  0  7G16G 2G24G 4G 5G 7G 9
 -13521302.00549 -10512657.80645  22888992.583    22888991.577    22889003.106
       220.000         161.000
   3074362.00449   2396956.38945  22471021.596    22471020.166    22471034.681
       211.000         151.000
 -30169862.19149 -23490597.87947  19283335.439    19283334.874    19283344.409
       243.000         207.000
 -19130875.82349 -14889283.03047  18979813.238    18979812.881    18979821.076
       242.000         209.000
 -24413633.83349 -19010286.17547  20615938.867    20615938.100    20615948.821
       235.000         191.000
   2174963.53349   1696025.62846  21454202.491    21454201.186    21454212.296
       231.000         184.000
 -16828998.58449 -13092119.09747  19963017.777    19963017.069    19963025.581
       245.000         209.000
 00  5  3 17 14 29.9950000  0  7G16G 2G24G 4G 5G 7G 9
 -13568905.82249 -10549751.65145  22879933.833    22879932.842    22879944.427
       222.000         162.000
   3114827.30549   2428487.56445  22478722.092    22478720.522    22478735.130
       216.000         152.000
 -30267071.61249 -23566345.45847  19264837.068    19264836.520    19264846.058
       243.000         207.000
 -19148060.82849 -14902673.98047  18976543.097    18976542.718    18976550.899
       241.000         209.000
 -24534985.86849 -19104846.12347  20592846.286    20592845.526    20592856.225
       235.000         191.000
   2194347.52649   1711129.93946  21457891.138    21457889.881    21457901.053
       230.000         185.000
 -16840236.29649 -13100875.80147  19960879.325    19960878.630    19960887.174
       246.000         209.000
 00  5  3 17 14 59.9950000  0  7G16G 2G24G 4G 5G 7G 9
 -13615997.55849 -10586446.47445  22870972.647    22870971.582    22870983.149
       220.000         162.000
   3155515.68749   2460192.61645  22486465.078    22486463.530    22486478.096
       215.000         156.000
 -30363796.13049 -23641715.19147  19246430.994    19246430.437    19246439.962
       243.000         207.000
 -19164696.35249 -14915636.76047  18973377.473    18973377.118    18973385.284
       241.000         209.000
 -24656182.59349 -19199285.04847  20569783.244    20569782.487    20569793.221
       235.000         191.000
   2213769.32249   1726263.72146  21461587.061    21461585.818    21461596.969
       231.000         184.000
 -16850957.63749 -13109230.13747  19958839.138    19958838.448    19958847.012
       245.000         208.000
 00  5  3 17 15 29.9950000  0  7G16G 2G24G 4G 5G 7G 9
 -13662583.16649 -10622746.90346  22862107.602    22862106.655    22862118.165
       222.000         165.000
   3196419.52749   2492065.50045  22494248.976    22494247.465    22494262.104
       209.000         150.000
 -30460041.65149 -23716711.68047  19228116.038    19228115.492    19228125.026
       242.000         207.000
 -19180791.02549 -14928178.09947  18970314.796    18970314.442    18970322.590
       242.000         209.000
 -24777229.12449 -19293606.94847  20546748.748    20546748.035    20546758.766
       236.000         191.000
   2233221.54349   1741421.21746  21465288.857    21465287.526    21465298.679
       232.000         185.000
 -16861171.33649 -13117188.91147  19956895.557    19956894.864    19956903.443
       245.000         208.000
 00  5  3 17 15 59.9950000  0  7G16G 2G24G 4G 5G 7G 9
 -13708672.50849 -10658660.61246  22853337.196    22853336.196    22853347.705
       222.000         165.000
   3237527.07449   2524097.13345  22502071.741    22502070.125    22502084.769
       214.000         152.000
 -30555817.63749 -23791342.29547  19209890.428    19209889.915    19209899.456
       243.000         207.000
 -19196356.76549 -14940307.27647  18967352.772    18967352.414    18967360.562
       242.000         209.000
 -24898134.31049 -19387818.70247  20523741.188    20523740.475    20523751.204
       236.000         192.000
   2252692.89049   1756593.62546  21468994.183    21468992.878    21469004.072
       231.000         185.000
 -16870889.49249 -13124761.54147  19955046.281    19955045.591    19955054.166
       245.000         208.000
 00  5  3 17 16 29.9950000  0  7G16G 2G24G 4G 5G 7G 9
 -13754212.28549 -10694146.11546  22844671.445    22844670.307    22844681.813
       223.000         166.000
   3278890.07449   2556327.81845  22509942.988    22509941.413    22509956.085
       213.000         157.000
 -30651070.55549 -23865565.33147  19191764.401    19191763.860    19191773.404
       242.000         207.000
 -19211343.12949 -14951985.00547  18964500.988    18964500.631    18964508.775
       242.000         209.000
 -25018843.64549 -19481877.85747  20500770.893    20500770.181    20500780.938
       235.000         192.000
   2272235.46049   1771821.50846  21472713.094    21472711.767    21472722.990
       230.000         184.000
 -16880061.37449 -13131908.51247  19953300.978    19953300.275    19953308.845
       246.000         209.000
 00  5  3 17 16 59.9950000  0  7G16G 2G24G 4G 5G 7G 9
 -13799253.90849 -10729243.42246  22836100.226    22836099.185    22836110.733
       221.000         165.000
   3320455.17349   2588715.96345  22517852.772    22517851.137    22517865.931
       209.000         155.000
 -30745851.35849 -23939420.49147  19173728.180    19173727.650    19173737.194
       242.000         207.000
 -19225803.45049 -14963252.83247  18961749.329    18961748.957    18961757.095
       242.000         209.000
 -25139407.56549 -19575823.69847  20477828.266    20477827.546    20477838.323
       236.000         192.000
   2291796.71549   1787063.95346  21476435.573    21476434.214    21476445.449
       230.000         183.000
 -16888740.44949 -13138671.48247  19951649.463    19951648.734    19951657.297
       245.000         208.000
 00  5  3 17 17 29.9950000  0  7G16G 2G24G 4G 5G 7G 9
 -13843793.51449 -10763949.55246  22827624.518    22827623.532    22827635.169
       221.000         167.000
   3362224.75049   2621263.41245  22525801.313    22525799.805    22525814.642
       210.000         153.000
 -30840155.86049 -24012904.50247  19155782.622    19155782.082    19155791.624
       242.000         207.000
 -19239736.62949 -14974109.89247  18959097.967    18959097.580    18959105.716
       242.000         209.000
 -25259820.97549 -19669652.24947  20454914.334    20454913.572    20454924.322
       235.000         192.000
   2311379.30649   1802323.03046  21480162.008    21480160.714    21480171.967
       230.000         183.000
 -16896925.36049 -13145049.38347  19950091.936    19950091.217    19950099.796
       245.000         208.000
 00  5  3 17 17 59.9950000  0  7G16G 2G24G 4G 5G 7G 9
 -13887828.01349 -10798262.08846  22819244.855    22819244.011    22819255.744
       220.000         167.000
   3404199.99149   2653971.16345  22533789.283    22533787.586    22533802.526
       212.000         153.000
 -30933980.68649 -24086014.73547  19137928.330    19137927.788    19137937.335
       243.000         207.000
 -19253141.74649 -14984555.48147  18956547.064    18956546.702    18956554.844
       242.000         209.000
 -25380079.95949 -19763360.47747  20432029.649    20432028.958    20432039.711
       235.000         192.000
   2330985.28249   1817600.32846  21483892.978    21483891.673    21483902.946
       229.000         183.000
 -16904615.21349 -13151041.53247  19948628.624    19948627.915    19948636.497
       245.000         208.000
 00  5  3 17 18 29.9950000  0  7G16G 2G24G 4G 5G 7G 9
 -13931350.30349 -10832175.48046  22810962.764    22810961.970    22810973.635
       223.000         164.000
   3446386.39949   2686843.45645  22541817.297    22541815.612    22541830.628
       211.000         154.000
 -31027318.35749 -24158745.37547  19120166.751    19120166.211    19120175.740
       242.000         207.000
 -19266013.98949 -14994585.84547  18954097.543    18954097.210    18954105.365
       242.000         209.000
 -25500176.05449 -19856941.77947  20409176.144    20409175.381    20409186.082
       236.000         192.000
   2350620.59149   1832900.47246  21487629.570    21487628.238    21487639.533
       230.000         183.000
 -16911805.22049 -13156644.18847  19947260.485    19947259.742    19947268.333
       245.000         208.000
 00  5  3 17 18 59.9950000  0  7G16G 2G24G 4G 5G 7G 9
 -13974400.94949 -10865721.37145  22802770.394    22802769.669    22802781.189
       220.000         161.000
   3488741.70749   2719847.28345  22549877.433    22549875.739    22549890.898
       215.000         154.000
 -31120208.93449 -24231127.62947  19102490.254    19102489.701    19102499.239
       242.000         207.000
 -19278396.60949 -15004234.68447  18951741.248    18951740.896    18951749.057
       242.000         209.000
 -25620148.60749 -19950426.81147  20386346.027    20386345.303    20386355.979
       235.000         193.000
   2370243.62949   1848191.06346  21491363.792    21491362.472    21491373.766
       230.000         183.000
 -16918538.30649 -13161890.80947  19945979.219    19945978.508    19945987.123
       245.000         208.000
 00  5  3 17 19 29.9950000  0  7G16G 2G24G 4G 5G 7G 9
 -14016892.66549 -10898831.73245  22794684.563    22794683.748    22794695.139
       221.000         161.000
   3531351.37349   2753049.38745  22557986.049    22557984.287    22557999.411
       218.000         154.000
 -31212565.04149 -24303093.41147  19084915.510    19084914.921    19084924.436
       242.000         207.000
 -19290204.54149 -15013435.71247  18949494.321    18949493.962    18949502.119
       242.000         209.000
 -25739909.00849 -20043746.52947  20363556.294    20363555.591    20363566.259
       236.000         193.000
   2389940.54649   1863539.22846  21495112.097    21495110.747    21495122.070
       229.000         183.000
 -16924729.52249 -13166715.19147  19944801.123    19944800.390    19944809.024
       246.000         208.000
 00  5  3 17 19 59.9950000  0  7G16G 2G24G 4G 5G 7G 9
 -14058859.39049 -10931533.00445  22786698.492    22786697.657    22786709.001
       216.000         161.000
   3574180.04049   2786422.20245  22566136.352    22566134.534    22566149.551
       213.000         145.000
 -31304419.99749 -24374668.68547  19067436.092    19067435.493    19067445.000
       242.000         207.000
 -19301473.98349 -15022217.13947  18947349.857    18947349.488    18947357.652
       242.000         209.000
 -25859489.86849 -20136926.34147  20340800.779    20340800.051    20340810.694
       236.000         193.000
   2409676.60649   1878917.89246  21498867.817    21498866.483    21498877.828
       228.000         182.000
 -16930414.70449 -13171145.25847  19943719.376    19943718.593    19943727.219
       245.000         208.000
 00  5  3 17 20 29.9950000  0  7G16G 2G24G 4G 5G 7G 9
 -14100312.92049 -10963834.39445  22778809.971    22778809.184    22778820.555
       216.000         159.000
   3617214.23549   2819955.09645  22574325.427    22574323.832    22574338.848
       210.000         144.000
 -31395785.51549 -24445862.57547  19050049.784    19050049.193    19050058.718
       242.000         207.000
 -19312219.26949 -15030590.13847  18945305.160    18945304.766    18945312.932
       242.000         209.000
 -25978901.86849 -20229974.58047  20318077.428    20318076.649    20318087.265
       236.000         194.000
   2429438.79849   1894316.91546  21502628.459    21502627.141    21502638.547
       228.000         182.000
 -16935608.34649 -13175192.31447  19942731.051    19942730.305    19942738.946
       245.000         208.000
 00  5  3 17 20 59.9950000  0  7G16G 2G24G 4G 5G 7G 9
 -14141275.05349 -10995752.89045  22771014.989    22771014.227    22771025.595
       217.000         160.000
   3660430.50349   2853629.83645  22582549.398    22582547.796    22582562.904
       209.000         146.000
 -31486682.93249 -24516691.71747  19032752.521    19032751.983    19032761.478
       242.000         206.000
 -19322464.57849 -15038573.54647  18943355.563    18943355.180    18943363.350
       242.000         209.000
 -26098165.53449 -20322907.24147  20295382.224    20295381.450    20295392.069
       235.000         193.000
   2449204.48149   1909718.67346  21506389.706    21506388.475    21506399.925
       228.000         180.000
 -16940334.50549 -13178875.09947  19941831.719    19941830.989    19941839.645
       246.000         208.000
 00  5  3 17 21 29.9940000  0  8G16G 2G30G24G 4G 5G 7G 9
 -14181699.38949 -11027252.30945  22763322.296    22763321.655    22763333.067
       214.000         159.000
   3703870.72649   2887479.11845  22590815.960    22590814.375    22590829.601
       208.000         145.000
   -383405.21759   -277480.67255  23387550.421    23387549.090    23387566.510
       219.000         153.000
 -31577064.01449 -24587118.51647  19015553.570    19015553.004    19015562.509
       242.000         207.000
 -19332167.03549 -15046133.95247  18941509.299    18941508.902    18941517.063
       243.000         208.000
 -26217230.47949 -20415685.05147  20272724.828    20272724.082    20272734.674
       236.000         194.000
   2469016.98849   1925156.90746  21510159.842    21510158.675    21510170.178
       227.000         179.000
 -16944550.41349 -13182160.28647  19941029.495    19941028.766    19941037.434
       245.000         208.000
 00  5  3 17 21 59.9940000  0  8G16G 2G30G24G 4G 5G 7G 9
 -14221607.37749 -11058349.39645  22755728.036    22755727.278    22755738.800
       213.000         158.000
   3747517.58149   2921489.39345  22599121.853    22599120.215    22599135.619
       205.000         140.000
   -528167.92149   -390282.70955  23360003.016    23360002.774    23360018.098
       215.000         150.000
 -31666952.89549 -24657161.78547  18998448.254    18998447.716    18998457.211
       242.000         207.000
 -19341348.02749 -15053288.02547  18939762.228    18939761.846    18939770.022
       242.000         209.000
 -26336121.88749 -20508327.64547  20250100.460    20250099.717    20250110.285
       236.000         193.000
   2488858.19549   1940617.48946  21513935.505    21513934.377    21513945.905
       229.000         182.000
 -16948277.34049 -13185064.45447  19940320.356    19940319.605    19940328.294
       246.000         208.000
 00  5  3 17 22 29.9940000  0  8G16G 2G30G24G 4G 5G 7G 9
 -14261011.11149 -11089053.56045  22748229.643    22748228.887    22748240.542
       215.000         161.000
   3791354.48349   2955647.71445  22607463.891    22607462.241    22607477.734
       210.000         145.000
   -672993.03159   -503133.36945  23332443.775    23332443.407    23332459.549
       213.000         144.000
 -31756359.88849 -24726829.55747  18981434.710    18981434.127    18981443.608
       242.000         206.000
 -19350023.18349 -15060047.94247  18938111.440    18938111.050    18938119.218
       243.000         208.000
 -26454848.06749 -20600841.48647  20227507.556    20227506.808    20227517.349
       236.000         194.000
   2508712.92949   1956088.61746  21517713.842    21517712.688    21517724.260
       228.000         181.000
 -16951530.77249 -13187599.67147  19939701.295    19939700.542    19939709.250
       245.000         209.000
 00  5  3 17 22 59.9940000  0  8G16G 2G30G24G 4G 5G 7G 9
 -14299905.00449 -11119360.42445  22740828.354    22740827.575    22740839.277
       217.000         160.000
   3835385.47549   2989957.33945  22615842.890    22615841.207    22615856.856
       213.000         149.000
   -817874.04549   -616027.61445  23304873.813    23304873.541    23304889.438
       215.000         145.000
 -31845278.83349 -24796117.02747  18964513.982    18964513.411    18964522.886
       242.000         206.000
 -19358189.30049 -15066411.20247  18936557.550    18936557.124    18936565.295
       242.000         208.000
 -26573401.87349 -20693221.00547  20204947.538    20204946.743    20204957.243
       236.000         194.000
   2528585.97849   1971574.01446  21521495.727    21521494.484    21521506.038
       228.000         181.000
 -16954307.12749 -13189763.12947  19939173.061    19939172.278    19939180.985
       246.000         208.000
 00  5  3 17 23 29.9940000  0  8G16G 2G30G24G 4G 5G 7G 9
 -14338300.31349 -11149278.79145  22733522.001    22733521.137    22733532.863
       218.000         162.000
   3879597.91549   3024408.31245  22624256.488    22624254.737    22624270.413
       204.000         146.000
   -962820.92649   -728973.12245  23277291.231    23277290.917    23277307.104
       216.000         149.000
 -31933720.47749 -24865032.57547  18947684.130    18947683.517    18947692.983
       241.000         206.000
 -19365859.75949 -15072388.24647  18935097.932    18935097.525    18935105.693
       242.000         208.000
 -26691792.91949 -20785473.70447  20182418.394    20182417.617    20182428.117
       236.000         195.000
   2548465.46749   1987064.45446  21525278.769    21525277.499    21525289.093
       228.000         180.000
 -16956620.32349 -13191565.69047  19938732.941    19938732.139    19938740.856
       245.000         208.000
 00  5  3 17 23 59.9940000  0  8G16G 2G30G24G 4G 5G 7G 9
 -14376157.14249 -11178777.56746  22726318.029    22726317.215    22726328.938
       218.000         163.000
   3924030.08149   3059030.50945  22632711.642    22632710.001    22632725.765
       212.000         151.000
  -1107793.47249   -841938.63745  23249703.848    23249703.604    23249719.752
       217.000         147.000
 -32021644.71249 -24933544.94947  18930952.680    18930952.089    18930961.542
       241.000         206.000
 -19372997.21949 -15077949.96047  18933739.757    18933739.348    18933747.512
       242.000         208.000
 -26809980.00049 -20877567.46747  20159928.029    20159927.301    20159937.785
       236.000         194.000
   2568390.41549   2002590.30746  21529070.489    21529069.176    21529080.795
       228.000         180.000
 -16958432.81249 -13192978.08847  19938388.016    19938387.262    19938396.006
       245.000         208.000
 00  5  3 17 24 29.9940000  0  8G16G 2G30G24G 4G 5G 7G 9
 -14413483.21449 -11207862.76646  22719215.004    22719214.228    22719226.043
       217.000         164.000
   3968672.76749   3093816.75445  22641207.197    22641205.511    22641221.222
       215.000         152.000
  -1252797.87849   -954929.06045  23222110.453    23222110.125    23222126.363
       215.000         146.000
 -32109058.81649 -25001659.81547  18914318.343    18914317.725    18914327.170
       242.000         207.000
 -19379611.49449 -15083103.99547  18932481.149    18932480.737    18932488.897
       243.000         208.000
 -26927969.06149 -20969506.93647  20137475.449    20137474.696    20137485.142
       235.000         195.000
   2588352.61849   2018145.21746  21532869.222    21532867.906    21532879.554
       228.000         180.000
 -16959753.97349 -13194007.63547  19938136.646    19938135.894    19938144.685
       245.000         209.000
 00  5  3 17 24 59.9940000  0  8G16G 2G30G24G 4G 5G 7G 9
 -14450297.60449 -11236549.25946  22712209.324    22712208.621    22712220.447
       215.000         164.000
   4013505.09849   3128750.77845  22649738.863    22649737.026    22649752.797
       215.000         159.000
  -1397852.82249  -1067958.79145  23194507.153    23194507.053    23194523.273
       213.000         145.000
 -32195981.83449 -25069392.02347  18897777.441    18897776.812    18897786.262
       241.000         207.000
 -19385724.25249 -15087867.24647  18931317.997    18931317.563    18931325.719
       242.000         208.000
 -27045777.98749 -21061306.03847  20115057.080    20115056.333    20115066.795
       236.000         195.000
   2608331.84749   2033713.36046  21536671.151    21536669.860    21536681.559
       228.000         180.000
 -16960605.58149 -13194671.30147  19937974.658    19937973.901    19937982.702
       245.000         208.000
 00  5  3 17 25 29.9940000  0  9G16G 2G30G24G 4G 5G 7G10G 9
 -14486602.33149 -11264838.60645  22705300.733    22705300.064    22705311.818
       217.000         162.000
   4058523.89849   3163830.13345  22658305.859    22658304.052    22658319.831
       210.000         157.000
  -1542958.84349  -1181028.38745  23166894.242    23166894.252    23166910.498
       212.000         137.000
 -32282415.06249 -25136742.57347  18881329.707    18881329.104    18881338.558
       241.000         206.000
 -19391339.70949 -15092242.98547  18930249.425    18930249.003    18930257.171
       242.000         208.000
 -27163407.12349 -21152965.04547  20092672.946    20092672.186    20092682.652
       236.000         195.000
   2628325.67049   2049292.89146  21540475.875    21540474.596    21540486.353
       228.000         181.000
   -516014.01659   -377089.01755  23533606.588    23533606.226    23533625.487
       197.000         133.000
 -16960991.75149 -13194972.28247  19937901.266    19937900.474    19937909.280
       246.000         208.000
 00  5  3 17 25 59.9940000  0  9G16G 2G30G24G 4G 5G 7G10G 9
 -14522394.33449 -11292728.43945  22698489.675    22698489.027    22698500.745
       218.000         162.000
   4103730.62249   3199055.86345  22666908.522    22666906.798    22666922.708
       210.000         154.000
  -1688112.39549  -1294134.94145  23139272.526    23139272.371    23139288.729
       209.000         141.000
 -32368355.04049 -25203708.77247  18864975.848    18864975.258    18864984.716
       241.000         207.000
 -19396456.96349 -15096230.51247  18929275.665    18929275.262    18929283.429
       243.000         208.000
 -27280851.70549 -21244480.23847  20070323.927    20070323.182    20070333.637
       237.000         196.000
   2648336.27949   2064885.48546  21544283.853    21544282.567    21544294.330
       229.000         179.000
   -656252.13759   -486365.50354  23506920.121    23506919.234    23506938.721
       202.000         129.000
 -16960912.02549 -13194910.23247  19937916.476    19937915.688    19937924.528
       245.000         208.000
 00  5  3 17 26 29.9940000  0  9G16G 2G30G24G 4G 5G 7G10G 9
 -14557654.23949 -11320203.63246  22691780.053    22691779.265    22691790.960
       218.000         164.000
   4149143.27849   3234442.11345  22675550.391    22675548.746    22675564.686
       209.000         150.000
  -1833292.65349  -1407262.29745  23111645.453    23111645.382    23111661.714
       210.000         139.000
 -32453782.19849 -25270275.36947  18848719.614    18848718.992    18848728.466
       241.000         206.000
 -19401059.01149 -15099816.57947  18928399.966    18928399.561    18928407.718
       243.000         208.000
 -27398090.78049 -21335835.28647  20048013.971    20048013.267    20048023.759
       237.000         196.000
   2668382.66049   2080505.98046  21548098.631    21548097.339    21548109.108
       228.000         180.000
   -796653.36458   -595768.85654  23480202.561    23480200.548    23480219.651
       193.000         113.000
 -16960349.06549 -13194471.62947  19938023.665    19938022.867    19938031.726
       245.000         208.000
 00  5  3 17 26 59.9940000  0  9G16G 2G30G24G 4G 5G 7G10G 9
 -14592391.14349 -11347271.25845  22685169.843    22685169.040    22685180.613
       219.000         161.000
   4194751.43649   3269980.70045  22684229.337    22684227.787    22684243.790
       207.000         147.000
  -1978507.69449  -1520416.76345  23084011.837    23084011.787    23084028.134
       215.000         149.000
 -32538705.04149 -25336448.99747  18832559.321    18832558.705    18832568.186
       241.000         206.000
 -19405157.18449 -15103010.01047  18927620.151    18927619.745    18927627.902
       242.000         208.000
 -27515131.74249 -21427035.96847  20025741.772    20025741.070    20025751.562
       237.000         196.000
   2688455.14849   2096146.79546  21551918.383    21551917.090    21551928.883
       228.000         179.000
   -937224.51049   -705304.60344  23453452.912    23453450.299    23453470.427
       202.000         122.000
 -16959314.12649 -13193665.25247  19938220.662    19938219.854    19938228.740
       245.000         208.000
 00  5  3 17 27 29.9940000  0  9G16G 2G30G24G 4G 5G 7G10G 9
 -14626620.14749 -11373943.14745  22678656.301    22678655.446    22678666.892
       215.000         158.000
   4240538.38549   3305658.57545  22692942.483    22692940.937    22692957.004
       206.000         149.000
  -2123771.29949  -1633609.08145  23056369.070    23056369.027    23056385.424
       217.000         149.000
 -32623138.30249 -25402241.13047  18816492.189    18816491.582    18816501.061
       241.000         206.000
 -19408769.02849 -15105824.49347  18926932.867    18926932.459    18926940.646
       243.000         208.000
 -27631987.96949 -21518092.70047  20003504.719    20003503.997    20003514.520
       237.000         196.000
   2708538.00949   2111795.69946  21555740.087    21555738.816    21555750.637
       229.000         180.000
  -1077978.59948   -814982.90044  23426668.447    23426666.099    23426686.130
       191.000         121.000
 -16957824.50649 -13192504.58647  19938504.168    19938503.371    19938512.281
       245.000         208.000
 00  5  3 17 27 59.9940000  0  9G16G 2G30G24G 4G 5G 7G10G 9
 -14660328.45749 -11400209.28945  22672241.894    22672240.955    22672252.315
       218.000         161.000
   4286515.64849   3341484.76245  22701691.935    22701690.303    22701706.430
       206.000         145.000
  -2269069.39749  -1746828.24945  23028719.832    23028719.694    23028736.190
       218.000         148.000
 -32707068.60349 -25467641.35047  18800520.768    18800520.164    18800529.632
       241.000         206.000
 -19411883.59549 -15108251.48047  18926340.239    18926339.817    18926348.006
       243.000         208.000
 -27748644.90449 -21608994.13547  19981305.617    19981304.885    19981315.406
       238.000         197.000
   2728643.72849   2127462.44746  21559566.190    21559564.874    21559576.680
       228.000         179.000
  -1218900.70549   -924792.30044  23399851.536    23399849.560    23399869.464
       199.000         123.000
 -16955869.47049 -13190981.25347  19938876.266    19938875.448    19938884.373
       245.000         208.000
 00  5  3 17 28 29.9940000  0  9G16G 2G30G24G 4G 5G 7G10G 9
 -14693519.81349 -11426072.65146  22665925.730    22665924.791    22665936.242
       218.000         163.000
   4332677.86749   3377455.04145  22710476.632    22710474.903    22710491.166
       203.000         138.000
  -2414405.03149  -1860076.65245  23001063.343    23001063.164    23001079.746
       214.000         145.000
 -32790499.71149 -25532652.58847  18784644.348    18784643.756    18784653.204
       241.000         206.000
 -19414507.34049 -15110296.00547  18925841.031    18925840.583    18925848.782
       243.000         208.000
 -27865104.83949 -21699742.07547  19959143.970    19959143.241    19959153.759
       237.000         197.000
   2748767.78249   2143143.44746  21563395.782    21563394.407    21563406.209
       228.000         178.000
  -1359992.48648  -1034733.76544  23373002.803    23373000.745    23373020.724
       193.000         129.000
 -16953455.43049 -13189100.25447  19939335.725    19939334.897    19939343.815
       245.000         208.000
 00  5  3 17 28 59.9940000  0  9G16G 2G30G24G 4G 5G 7G10G 9
 -14726189.16449 -11451529.26445  22659708.719    22659707.911    22659719.426
       216.000         160.000
   4379028.69449   3413572.32345  22719297.275    22719295.396    22719311.762
       206.000         142.000
  -2559771.49549  -1973349.11345  22973400.820    22973400.729    22973417.285
       209.000         144.000
 -32873426.00649 -25597270.46447  18768863.997    18768863.390    18768872.839
       241.000         206.000
 -19416637.14949 -15111955.64447  18925435.804    18925435.344    18925443.552
       243.000         209.000
 -27981360.65549 -21790330.96947  19937021.231    19937020.450    19937030.932
       239.000         197.000
   2768914.80549   2158842.36146  21567229.692    21567228.319    21567240.124
       227.000         178.000
  -1501246.09749  -1144801.39744  23346123.095    23346121.131    23346141.002
       204.000         131.000
 -16950579.30749 -13186859.19547  19939883.074    19939882.252    19939891.181
       245.000         207.000
 00  5  3 17 29 29.9940000  0  9G16G 2G30G24G 4G 5G 7G10G 9
 -14758339.94549 -11476581.75245  22653590.373    22653589.724    22653601.289
       213.000         157.000
   4425563.40049   3449832.87545  22728152.735    22728150.815    22728167.164
       207.000         138.000
  -2705171.08649  -2086647.31445  22945732.024    22945731.957    22945748.520
       211.000         148.000
 -32955850.46349 -25661497.30047  18753179.146    18753178.536    18753187.982
       241.000         206.000
 -19418279.00649 -15113235.06147  18925123.388    18925122.941    18925131.165
       243.000         208.000
 -28097413.95349 -21880762.04147  19914937.017    19914936.203    19914946.646
       238.000         196.000
   2789080.87049   2174556.11346  21571067.195    21571065.854    21571077.654
       228.000         177.000
  -1642662.66349  -1254996.03345  23319212.488    23319210.623    23319230.298
       204.000         135.000
 -16947246.70549 -13184262.43347  19940517.300    19940516.475    19940525.418
       245.000         207.000
 00  5  3 17 29 59.9940000  0  9G16G 2G30G24G 4G 5G 7G10G 9
 -14789974.18749 -11501231.73445  22647570.541    22647569.855    22647581.351
       213.000         157.000
   4472278.95349   3486234.31745  22737042.650    22737040.852    22737056.949
       208.000         139.000
  -2850604.15149  -2199971.59045  22918056.555    22918056.758    22918073.391
       210.000         152.000
 -33037774.51049 -25725334.20147  18737589.516    18737588.906    18737598.322
       241.000         206.000
 -19419436.85049 -15114137.31647  18924903.077    18924902.646    18924910.883
       243.000         209.000
 -28213264.73149 -21971035.30347  19892891.297    19892890.490    19892900.898
       238.000         197.000
   2809263.79049   2190283.01746  21574907.957    21574906.582    21574918.398
       227.000         177.000
  -1784241.44049  -1365317.01945  23292270.884    23292269.136    23292288.723
       199.000         136.000
 -16943461.68149 -13181313.13947  19941237.621    19941236.790    19941245.756
       245.000         207.000
 00  5  3 17 30 29.9940000  0  9G16G 2G30G24G 4G 5G 7G10G 9
 -14821093.16249 -11525480.23446  22641648.695    22641648.068    22641659.520
       218.000         163.000
   4519172.36949   3522774.37245  22745966.159    22745964.604    22745980.719
       206.000         136.000
  -2996071.18849  -2313322.33345  22890374.953    22890375.196    22890391.904
       215.000         159.000
 -33119199.35049 -25788782.11347  18722094.870    18722094.258    18722103.676
       240.000         206.000
 -19420114.37449 -15114665.30147  18924774.192    18924773.759    18924782.008
       243.000         209.000
 -28328912.81549 -22061150.63347  19870884.173    19870883.351    19870893.733
       238.000         197.000
   2829461.66449   2206021.55546  21578751.569    21578750.172    21578762.017
       228.000         177.000
  -1925981.80549  -1475763.88945  23265298.430    23265296.737    23265316.479
       198.000         140.000
 -16939227.90749 -13178014.16047  19942043.347    19942042.513    19942051.477
       244.000         206.000
 00  5  3 17 30 59.9940000  0  9G16G 2G30G24G 4G 5G 7G10G 9
 -14851697.70249 -11549327.87145  22635824.825    22635824.174    22635835.644
       215.000         161.000
   4566241.46449   3559451.38745  22754923.378    22754921.752    22754937.828
       208.000         134.000
  -3141571.68849  -2426699.15146  22862687.168    22862687.323    22862704.002
       217.000         163.000
 -33200125.38549 -25851841.35147  18706695.160    18706694.546    18706703.946
       240.000         206.000
 -19420314.54449 -15114821.32447  18924736.128    18924735.702    18924743.968
       243.000         208.000
 -28444356.82449 -22151106.94147  19848915.888    19848915.041    19848925.388
       239.000         197.000
   2849673.32549   2221770.84146  21582597.729    21582596.358    21582608.261
       227.000         177.000
  -2067881.83749  -1586335.17245  23238295.518    23238294.035    23238313.841
       199.000         134.000
 -16934548.45049 -13174367.90647  19942933.849    19942933.027    19942941.989
       245.000         206.000
 00  5  3 17 31 29.9940000  0  9G16G 2G30G24G 4G 5G 7G10G 9
 -14881781.54749 -11572769.76446  22630100.037    22630099.308    22630110.906
       218.000         165.000
   4613491.81149   3596269.59145  22763914.964    22763913.244    22763929.649
       207.000         134.000
  -3287097.52049  -2540095.70346  22834994.344    22834994.565    22835011.257
       217.000         165.000
 -33280545.42849 -25914506.29747  18691391.756    18691391.113    18691400.500
       240.000         205.000
 -19420033.00449 -15114601.98647  18924789.723    18924789.309    18924797.599
       243.000         209.000
 -28559588.45549 -22240897.75547  19826987.990    19826987.144    19826997.457
       239.000         197.000
   2869905.08049   2237535.79146  21586447.721    21586446.388    21586458.320
       227.000         177.000
  -2209932.65249  -1697023.96045  23211263.908    23211262.509    23211282.496
       196.000         133.000
 -16929418.72549 -13170370.77847  19943910.066    19943909.243    19943918.188
       245.000         206.000
 00  5  3 17 31 59.9940000  0  9G16G 2G30G24G 4G 5G 7G10G 9
 -14911329.40349 -11595794.02646  22624477.336    22624476.568    22624488.178
       217.000         167.000
   4660936.98949   3633239.66145  22772943.853    22772942.113    22772958.457
       210.000         147.000
  -3432631.96549  -2653498.98146  22807300.025    22807300.221    22807316.893
       223.000         169.000
 -33360444.10049 -25976764.98647  18676187.522    18676186.884    18676196.269
       240.000         205.000
 -19419257.08549 -15113997.42547  18924937.418    18924936.996    18924945.299
       243.000         209.000
 -28674590.71649 -22330509.85047  19805103.747    19805102.905    19805113.175
       239.000         198.000
   2890171.78549   2253327.98846  21590304.417    21590303.078    21590315.019
       225.000         176.000
  -2352116.52049  -1807816.48644  23184207.126    23184205.837    23184225.687
       200.000         131.000
 -16923826.12649 -13166012.97947  19944974.376    19944973.534    19944982.505
       245.000         206.000
 00  5  3 17 32 29.9940000  0  9G16G 2G30G24G 4G 5G 7G10G 9
 -14940339.74249 -11618399.45246  22618956.829    22618956.081    22618967.661
       217.000         163.000
   4708577.09949   3670361.58345  22782009.816    22782007.953    22782024.395
       213.000         153.000
  -3578172.28049  -2766906.82046  22779604.722    22779604.755    22779621.390
       223.000         172.000
 -33439819.60249 -26038616.00647  18661082.881    18661082.225    18661091.591
       240.000         205.000
 -19417987.34949 -15113008.06847  18925179.081    18925178.655    18925186.970
       243.000         208.000
 -28789359.99849 -22419940.39547  19783263.833    19783263.011    19783273.252
       238.000         198.000
   2910474.59949   2269148.30446  21594167.962    21594166.627    21594178.586
       224.000         174.000
  -2494429.48949  -1918709.52745  23157125.890    23157124.451    23157144.328
       204.000         137.000
 -16917771.20849 -13161294.92547  19946126.632    19946125.809    19946134.815
       245.000         206.000
 00  5  3 17 32 59.9940000  0  9G16G 2G30G24G 4G 5G 7G10G 9
 -14968829.87849 -11640599.51346  22613535.467    22613534.589    22613546.109
       219.000         164.000
   4756393.72349   3707621.04745  22791109.259    22791107.342    22791123.915
       213.000         155.000
  -3723734.00349  -2880331.35246  22751905.237    22751905.205    22751921.837
       224.000         171.000
 -33518688.56049 -26100072.31747  18646074.613    18646073.960    18646083.308
       240.000         205.000
 -19416243.13949 -15111648.99547  18925511.012    18925510.597    18925518.932
       243.000         208.000
 -28903911.69449 -22509201.38947  19761465.289    19761464.475    19761474.708
       238.000         198.000
   2930796.10649   2284983.19546  21598034.986    21598033.727    21598045.715
       223.000         175.000
  -2636885.61749  -2029714.15445  23130017.183    23130015.878    23130035.808
       200.000         137.000
 -16911273.14849 -13156231.56747  19947363.215    19947362.402    19947371.405
       245.000         206.000
 00  5  3 17 33 29.9940000  0  9G16G 2G30G24G 4G 5G 7G10G 9
 -14996797.44649 -11662392.36046  22608213.555    22608212.549    22608223.996
       220.000         165.000
   4804388.27149   3745019.10545  22800242.642    22800240.660    22800257.208
       213.000         150.000
  -3869313.26849  -2993769.55646  22724202.335    22724202.356    22724218.871
       226.000         172.000
 -33597048.27649 -26161131.81747  18631163.203    18631162.573    18631171.933
       239.000         205.000
 -19414024.19349 -15109919.99747  18925933.285    18925932.878    18925941.237
       243.000         208.000
 -29018241.09749 -22598289.17447  19739709.104    19739708.282    19739718.460
       238.000         198.000
   2951138.43349   2300834.30746  21601906.051    21601904.765    21601916.775
       224.000         176.000
  -2779479.97349  -2140826.44945  23102882.507    23102881.090    23102900.764
       208.000         138.000
 -16904331.43749 -13150822.50847  19948684.277    19948683.433    19948692.401
       245.000         205.000
 00  5  3 17 33 59.9940000  0  9G16G 2G30G24G 4G 5G 7G10G 9
 -15024223.85249 -11683763.53946  22602994.584    22602993.489    22603004.998
       219.000         167.000
   4852577.86749   3782569.15945  22809412.719    22809410.946    22809427.675
       209.000         146.000
  -4014889.92049  -3107205.72546  22696499.936    22696499.936    22696516.455
       226.000         169.000
 -33674879.44149 -26221779.46047  18616352.402    18616351.773    18616361.140
       239.000         205.000
 -19411313.99449 -15107808.20347  18926449.050    18926448.642    18926457.013
       242.000         208.000
 -29132327.72349 -22687187.77747  19717999.057    19717998.256    19718008.413
       238.000         198.000
   2971520.06949   2316716.05946  21605784.625    21605783.334    21605795.301
       225.000         175.000
  -2922191.27449  -2252029.89845  23075725.268    23075723.991    23075743.639
       208.000         142.000
 -16896930.03849 -13145055.23947  19950092.798    19950091.936    19950100.883
       245.000         206.000
 00  5  3 17 34 29.9940000  0  9G16G 2G30G24G 4G 5G 7G10G 9
 -15051112.45449 -11704715.64346  22597877.860    22597876.750    22597888.243
       217.000         164.000
   4900957.55849   3820267.39145  22818619.177    22818617.500    22818634.231
       209.000         153.000
  -4160465.90249  -3220641.35946  22668797.691    22668797.661    22668814.141
       225.000         167.000
 -33752185.59249 -26282017.99447  18601641.498    18601640.883    18601650.251
       239.000         205.000
 -19408118.46949 -15105318.23347  18927057.175    18927056.770    18927065.150
       243.000         208.000
 -29246173.31449 -22775898.55847  19696334.975    19696334.121    19696344.247
       238.000         199.000
   2991937.31349   2332625.54746  21609669.986    21609668.649    21609680.619
       224.000         174.000
  -3065020.69249  -2363325.37545  23048545.754    23048544.441    23048564.040
       208.000         142.000
 -16889074.69949 -13138934.25647  19951587.663    19951586.813    19951595.782
       245.000         207.000
 00  5  3 17 34 59.9940000  0  9G16G 2G30G24G 4G 5G 7G10G 9
 -15077456.92749 -11725243.78046  22592864.404    22592863.508    22592874.944
       217.000         164.000
   4949533.06749   3858118.22245  22827863.106    22827861.341    22827878.047
       210.000         157.000
  -4306032.87649  -3334069.96646  22641097.014    22641097.079    22641113.490
       222.000         163.000
 -33828959.26149 -26341841.61247  18587031.932    18587031.345    18587040.691
       240.000         204.000
 -19404432.87549 -15102446.39347  18927758.571    18927758.144    18927766.532
       243.000         208.000
 -29359768.70449 -22864414.36847  19674718.447    19674717.589    19674727.720
       239.000         198.000
   3012396.88449   2348568.02446  21613563.328    21613562.018    21613574.024
       224.000         175.000
  -3207958.63249  -2474705.45445  23021345.425    23021344.272    23021363.673
       200.000         135.000
 -16880760.85749 -13132456.00747  19953169.794    19953168.947    19953177.931
       245.000         206.000
 00  5  3 17 35 29.9940000  0  9G16G 2G30G24G 4G 5G 7G10G 9
 -15103273.67049 -11745360.69646  22587951.578    22587950.706    22587962.189
       216.000         164.000
   4998286.46649   3896107.59245  22837140.696    22837138.980    22837155.831
       208.000         155.000
  -4451605.86849  -3447503.24645  22613395.175    22613395.347    22613411.699
       219.000         155.000
 -33905216.96249 -26401263.17847  18572520.528    18572519.963    18572529.317
       240.000         204.000
 -19400276.08649 -15099207.38547  18928549.632    18928549.187    18928557.592
       243.000         208.000
 -29473128.66349 -22952746.73847  19653146.730    19653145.866    19653155.958
       239.000         199.000
   3032881.80349   2364530.24046  21617461.531    21617460.221    21617472.253
       225.000         175.000
  -3351019.05749  -2586180.87845  22994121.706    22994120.604    22994140.105
       207.000         134.000
 -16872007.31049 -13125635.12547  19954835.585    19954834.747    19954843.734
       245.000         206.000
 00  5  3 17 35 59.9940000  0  9G16G 2G30G24G 4G 5G 7G10G 9
 -15128559.70749 -11765064.05245  22583139.628    22583138.825    22583150.371
       213.000         160.000
   5047219.95349   3934237.28345  22846452.405    22846450.824    22846467.922
       201.000         150.000
  -4597179.70649  -3560937.20645  22585693.283    22585693.438    22585709.797
       218.000         141.000
 -33980954.88449 -26460279.71947  18558108.061    18558107.489    18558116.855
       240.000         204.000
 -19395646.96749 -15095600.31947  18929430.537    18929430.112    18929438.537
       243.000         208.000
 -29586247.57649 -23040891.27747  19631620.819    19631619.993    19631630.077
       239.000         199.000
   3053395.36949   2380514.78446  21621365.075    21621363.835    21621375.893
       224.000         174.000
  -3494195.63449  -2697746.88345  22966876.190    22966874.992    22966894.342
       207.000         137.000
 -16862812.74249 -13118470.59147  19956585.267    19956584.462    19956593.464
       245.000         206.000
 00  5  3 17 36 29.9940000  0  9G16G 2G30G24G 4G 5G 7G10G 9
 -15153312.70349 -11784352.04945  22578429.401    22578428.408    22578439.918
       214.000         162.000
   5096334.73249   3972508.18645  22855798.867    22855797.173    22855814.461
       203.000         146.000
  -4742750.87049  -3674369.12044  22557991.843    22557991.982    22558008.194
       214.000         131.000
 -34056170.41249 -26518889.20847  18543795.025    18543794.433    18543803.803
       240.000         204.000
 -19390545.46349 -15091625.16647  18930401.347    18930400.911    18930409.370
       242.000         208.000
 -29699120.91149 -23128844.45847  19610141.681    19610140.866    19610150.939
       239.000         199.000
   3073939.67449   2396523.28246  21625274.518    21625273.318    21625285.365
       225.000         173.000
  -3637483.40349  -2809399.44845  22939609.254    22939608.192    22939627.370
       205.000         142.000
 -16853176.78149 -13110962.11947  19958418.998    19958418.191    19958427.195
       245.000         207.000
 00  5  3 17 36 59.9940000  0  9G16G 2G30G24G 4G 5G 7G10G 9
 -15177542.81649 -11803232.59145  22573818.701    22573817.566    22573829.050
       216.000         161.000
   5145619.33749   4010911.47445  22865177.650    22865175.998    22865193.291
       203.000         142.000
  -4888327.56849  -3787805.39044  22530289.588    22530289.566    22530305.229
       211.000         125.000
 -34130873.39649 -26577099.31247  18529579.520    18529578.912    18529588.288
       240.000         204.000
 -19384983.64149 -15087291.32247  18931459.748    18931459.322    18931467.802
       243.000         208.000
 -29811756.84149 -23216612.64547  19588707.693    19588706.903    19588716.974
       239.000         199.000
   3094504.76549   2412547.96446  21629188.038    21629186.767    21629198.800
       224.000         173.000
  -3780889.51249  -2921144.21545  22912319.905    22912318.877    22912338.013
       201.000         138.000
 -16843112.08549 -13103119.56647  19960334.303    19960333.491    19960342.538
       245.000         207.000
 00  5  3 17 37 29.9940000  0  9G16G 2G30G24G 4G 5G 7G10G 9
 -15201240.57449 -11821698.34645  22569309.229    22569308.004    22569319.445
       215.000         160.000
   5195082.12049   4049453.65645  22874590.553    22874588.693    22874606.005
       203.000         140.000
  -5033898.43749  -3901237.07544  22502587.994    22502587.993    22502603.813
       212.000         130.000
 -34205053.76349 -26634902.17847  18515463.420    18515462.847    18515472.213
       240.000         204.000
 -19378954.26849 -15082593.15147  18932607.137    18932606.705    18932615.198
       243.000         207.000
 -29924143.57949 -23304186.66347  19567321.114    19567320.353    19567330.408
       239.000         200.000
   3115099.94449   2428596.09246  21633107.219    21633105.936    21633117.983
       225.000         174.000
  -3924401.70949  -3032971.60945  22885010.033    22885009.041    22885028.322
       206.000         136.000
 -16832611.09249 -13094937.04647  19962332.627    19962331.809    19962340.889
       245.000         207.000
 00  5  3 17 37 59.9940000  0  9G16G 2G30G24G 4G 5G 7G10G 9
 -15224425.23749 -11839764.25145  22564897.177    22564896.110    22564907.407
       216.000         161.000
   5244702.97348   4088118.99144  22884033.313    22884031.583    22884048.738
       193.000         127.000
  -5179480.73449  -4014677.58445  22474884.173    22474884.392    22474900.176
       215.000         144.000
 -34278730.07049 -26692312.27247  18501443.283    18501442.689    18501452.070
       240.000         204.000
 -19372478.51049 -15077547.13647  18933839.445    18933839.026    18933847.530
       243.000         207.000
 -30036297.95149 -23391579.61347  19545978.830    19545978.044    19545988.080
       240.000         200.000
   3135706.30449   2444652.92846  21637028.547    21637027.266    21637039.332
       224.000         175.000
  -4068035.94649  -3144894.15345  22857677.265    22857676.157    22857695.421
       210.000         139.000
 -16821695.02449 -13086431.08347  19964409.928    19964409.111    19964418.243
       245.000         207.000
 00  5  3 17 38 29.9940000  0  9G16G 2G30G24G 4G 5G 7G10G 9
 -15247087.94849 -11857423.46745  22560584.346    22560583.487    22560594.863
       212.000         162.000
   5294489.68049   4126913.47545  22893507.570    22893505.732    22893523.146
       201.000         139.000
  -5325063.73649  -4128118.67845  22447180.639    22447180.793    22447196.510
       220.000         157.000
 -34351893.25849 -26749322.53647  18487520.796    18487520.186    18487529.564
       240.000         204.000
 -19365549.54649 -15072147.97947  18935157.976    18935157.587    18935166.108
       243.000         207.000
 -30148208.96249 -23478782.93347  19524682.874    19524682.032    19524692.078
       239.000         200.000
   3156332.76649   2460725.43946  21640953.768    21640952.415    21640964.495
       225.000         173.000
  -4211780.51549  -3256902.62245  22830323.445    22830322.409    22830341.550
       208.000         139.000
 -16810357.06649 -13077596.38147  19966567.543    19966566.711    19966575.865
       245.000         207.000
 00  5  3 17 38 59.9930000  0  9G16G 2G30G24G 4G 5G 7G10G 9
 -15269214.07549 -11874664.56945  22556373.667    22556372.964    22556384.380
       215.000         160.000
   5344453.15649   4165845.78745  22903015.685    22903013.710    22903030.969
       206.000         135.000
  -5470626.83749  -4241544.27145  22419480.657    22419480.866    22419496.679
       222.000         162.000
 -34424526.52749 -26805919.88047  18473699.155    18473698.539    18473707.912
       240.000         204.000
 -19358155.74449 -15066386.60847  18936565.026    18936564.602    18936573.140
       243.000         207.000
 -30259856.43749 -23565780.90847  19503437.017    19503436.180    19503446.195
       240.000         200.000
   3176992.64949   2476824.00446  21644885.118    21644883.885    21644896.015
       224.000         175.000
  -4355613.59349  -3368980.00845  22802952.772    22802951.770    22802970.778
       203.000         135.000
 -16798585.90149 -13068424.11047  19968807.559    19968806.740    19968815.937
       245.000         207.000
 00  5  3 17 39 29.9930000  0  9G16G 2G30G24G 4G 5G 7G10G 9
 -15290819.81249 -11891500.18646  22552262.304    22552261.556    22552272.908
       218.000         163.000
   5394580.96349   4204906.12145  22912554.903    22912553.026    22912570.206
       210.000         139.000
  -5616192.23549  -4354971.66846  22391780.335    22391780.565    22391796.373
       223.000         164.000
 -34496648.93349 -26862119.14747  18459974.718    18459974.112    18459983.459
       240.000         204.000
 -19350313.47449 -15060275.78147  18938057.365    18938056.952    18938065.511
       243.000         207.000
 -30371260.29449 -23652589.04447  19482237.513    19482236.677    19482246.694
       239.000         201.000
   3197672.72449   2492938.30246  21648820.411    21648819.210    21648831.371
       224.000         173.000
  -4499556.57649  -3481143.09045  22775560.915    22775560.039    22775578.963
       208.000         132.000
 -16786397.52449 -13058926.74347  19971126.947    19971126.149    19971135.388
       244.000         206.000
 00  5  3 17 39 59.9930000  0  9G16G 2G30G24G 4G 5G 7G10G 9
 -15311919.80049 -11907941.64745  22548247.294    22548246.421    22548257.610
       215.000         157.000
   5444855.40149   4244080.83945  22922122.084    22922120.223    22922137.253
       212.000         141.000
  -5761768.40949  -4468407.46046  22364078.145    22364078.243    22364094.022
       222.000         165.000
 -34568272.80949 -26917929.94547  18446345.181    18446344.536    18446353.884
       240.000         204.000
 -19342039.91049 -15053828.88147  18939631.803    18939631.396    18939639.948
       242.000         207.000
 -30482429.72649 -23739214.51547  19461082.679    19461081.810    19461091.811
       240.000         201.000
   3218357.20749   2509056.02446  21652756.556    21652755.374    21652767.580
       224.000         172.000
  -4643616.75949  -3593397.55345  22748146.865    22748146.120    22748164.868
       203.000         136.000
 -16773809.47549 -13049117.94147  19973522.396    19973521.613    19973530.883
       244.000         206.000
 00  5  3 17 40 29.9930000  0  9G16G 2G30G24G 4G 5G 7G10G 9
 -15332501.96249 -11923979.65245  22544330.578    22544329.644    22544340.884
       212.000         155.000
   5495287.45849   4283378.04244  22931719.346    22931717.299    22931734.765
       205.000         114.000
  -5907341.71549  -4581841.02945  22336376.429    22336376.472    22336392.181
       217.000         162.000
 -34639385.86349 -26973342.70547  18432812.844    18432812.191    18432821.495
       240.000         204.000
 -19333325.48149 -15047038.45147  18941290.137    18941289.732    18941298.255
       244.000         207.000
 -30593350.33649 -23825646.10447  19439975.104    19439974.260    19439984.262
       239.000         201.000
   3239058.46949   2525186.82146  21656695.934    21656694.746    21656706.980
       224.000         174.000
  -4787779.26449  -3705731.63345  22720713.283    22720712.720    22720731.441
       202.000         138.000
 -16760812.01149 -13038990.11947  19975995.754    19975994.975    19976004.300
       244.000         206.000
 00  5  3 17 40 59.9930000  0  9G16G 2G30G24G 4G 5G 7G10G 9
 -15352556.24949 -11939606.34645  22540514.159    22540513.353    22540524.607
       212.000         157.000
                   4322805.44145  22941348.007
       208.000         137.000
  -6052899.86949  -4695262.76245  22308677.482    22308677.538    22308693.229
       214.000         157.000
 -34709977.62749 -27028349.27147  18419379.694    18419379.034    18419388.325
       240.000         204.000
 -19324161.96949 -15039898.08947  18943033.935    18943033.504    18943042.056
       243.000         208.000
 -30704009.63849 -23911874.07547  19418917.276    19418916.440    19418926.460
       239.000         201.000
   3259786.52449   2541338.48746  21660640.424    21660639.231    21660651.468
       224.000         172.000
  -4932030.70849  -3818135.03445  22693263.007    22693262.384    22693281.206
       204.000         141.000
 -16747397.06049 -13028536.97947  19978548.597    19978547.801    19978557.182
       244.000         206.000
 00  5  3 17 41 29.9930000  0  9G16G 2G30G24G 4G 5G 7G10G 9
 -15372090.40849 -11954827.74445  22536796.899    22536796.084    22536807.339
       208.000         157.000
   5596642.11349   4362355.47744  22951006.690    22951004.897    22951022.785
       216.000         130.000
  -6198448.39149  -4808676.99245  22280980.119    22280980.308    22280996.083
       214.000         153.000
 -34780055.26849 -27082955.21447  18406044.384    18406043.701    18406052.987
       240.000         204.000
 -19314558.99249 -15032415.28647  18944861.313    18944860.920    18944869.484
       243.000         207.000
 -30814412.85849 -23997902.50447  19397908.238    19397907.371    19397917.373
       240.000         201.000
   3280534.14149   2557505.41046  21664588.582    21664587.389    21664599.621
       224.000         172.000
  -5076375.32649  -3930611.10745  22665795.264    22665794.429    22665813.201
       202.000         135.000
 -16733574.08949 -13017765.90747  19981179.062    19981178.263    19981187.684
       244.000         206.000
 00  5  3 17 41 59.9930000  0  9G16G 2G30G24G 4G 5G 7G10G 9
 -15391108.25349 -11969646.82445  22533177.693    22533177.006    22533188.398
       214.000         158.000
   5647551.49649   4402024.85145  22960694.636    22960692.802    22960710.701
       213.000         144.000
  -6343988.89549  -4922084.99345  22253284.592    22253284.770    22253300.492
       218.000         155.000
 -34849621.85649 -27137162.93547  18392806.294    18392805.643    18392814.893
       240.000         204.000
 -19304522.31349 -15024594.53847  18946771.270    18946770.868    18946779.433
       243.000         207.000
 -30924561.17649 -24083732.30447  19376947.699    19376946.818    19376956.786
       240.000         201.000
   3301297.97749   2573684.96046  21668539.903    21668538.674    21668550.858
       225.000         171.000
  -5220814.20749  -4043160.59545  22638309.218    22638308.324    22638326.953
       204.000         139.000
 -16719348.59949 -13006681.17947  19983886.122    19983885.331    19983894.756
       244.000         205.000
 00  5  3 17 42 29.9930000  0  9G16G 2G30G24G 4G 5G 7G10G 9
 -15409613.24049 -11984066.23745  22529656.414    22529655.606    22529666.942
       209.000         153.000
   5698609.55649   4441810.09145  22970410.954    22970409.061    22970427.012
       209.000         143.000
  -6489522.73649  -5035487.81345  22225590.307    22225590.465    22225606.168
       221.000         157.000
 -34918680.58349 -27190974.92147  18379664.847    18379664.188    18379673.451
       239.000         204.000
 -19294057.32449 -15016440.04147  18948762.752    18948762.314    18948770.884
       243.000         207.000
 -31034455.69949 -24169364.34247  19356035.400    19356034.548    19356044.504
       240.000         201.000
   3322074.69649   2589874.56046  21672493.693    21672492.425    21672504.565
       224.000         171.000
  -5365347.12649  -4155783.34845  22610805.202    22610804.451    22610823.096
       207.000         144.000
 -16704726.55549 -12995287.45247  19986668.651    19986667.856    19986677.279
       243.000         204.000
 00  5  3 17 42 59.9930000  0  8G16G30G24G 4G 5G 7G10G 9
 -15427591.89149 -11998075.55145  22526235.020    22526234.292    22526245.632
       206.000         152.000
  -6635033.92549  -5148873.02246  22197900.404    22197900.502    22197916.061
       225.000         163.000
 -34987217.44649 -27244380.26147  18366622.719    18366622.066    18366631.325
       239.000         204.000
 -19283152.24749 -15007942.61847  18950837.915    18950837.516    18950846.102
       243.000         208.000
 -31144080.17149 -24254785.95947  19335174.544    19335173.667    19335183.609
       240.000         202.000
   3342878.28449   2606085.07246  21676452.509    21676451.274    21676463.451
       223.000         170.000
  -5509957.10449  -4268466.16845  22583286.619    22583285.971    22583304.600
       211.000         143.000
 -16689696.27349 -12983575.61947  19989528.849    19989528.074    19989537.499
       242.000         205.000
 00  5  3 17 43 29.9930000  0  8G16G30G24G 4G 5G 7G10G 9
 -15445037.00949 -12011669.11945  22522915.289    22522914.561    22522925.996
       210.000         155.000
  -6780513.49349  -5262233.56646  22170216.517    22170216.599    22170232.026
       227.000         169.000
 -35055224.83549 -27297373.02547  18353681.336    18353680.697    18353689.929
       240.000         203.000
 -19271802.19349 -14999098.46447  18952997.786    18952997.385    18953005.989
       243.000         208.000
 -31253425.06449 -24339989.71947  19314366.887    19314365.988    19314375.916
       239.000         202.000
   3363716.24349   2622322.37946  21680417.867    21680416.663    21680428.827
       223.000         171.000
  -5654634.09249  -4381201.25445  22555755.270    22555754.624    22555773.115
       212.000         144.000
 -16674252.48449 -12971541.58547  19992467.756    19992466.973    19992476.430
       242.000         204.000
 00  5  3 17 43 59.9930000  0  8G16G30G24G 4G 5G 7G10G 9
 -15461967.09649 -12024861.38945  22519693.531    22519692.745    22519704.307
       209.000         151.000
  -6925977.48449  -5375581.93446  22142535.577    22142535.624    22142551.029
       228.000         173.000
 -35122720.69149 -27349967.19247  18340837.301    18340836.670    18340845.908
       239.000         203.000
 -19260027.24549 -14989923.22347  18955238.538    18955238.119    18955246.741
       243.000         208.000
 -31362506.10949 -24424987.88247  19293609.385    19293608.506    19293618.426
       240.000         202.000
   3384570.58649   2638572.45046  21684386.440    21684385.186    21684397.387
       224.000         171.000
  -5799393.02149  -4494000.18745  22528208.497    22528207.792    22528226.227
       212.000         151.000
 -16658415.32949 -12959201.02647  19995481.499    19995480.717    19995490.214
       242.000         204.000
 00  5  3 17 44 29.9930000  0  8G16G30G24G 4G 5G 7G10G 9
 -15478354.56249 -12037630.82045  22516575.255    22516574.302    22516585.821
       209.000         153.000
  -7071396.19949  -5488895.02746  22114863.262    22114863.298    22114878.633
       226.000         172.000
 -35189676.94449 -27402140.89247  18328095.965    18328095.321    18328104.530
       240.000         203.000
 -19247801.73349 -14980396.89847  18957565.052    18957564.596    18957573.231
       243.000         208.000
 -31471293.03149 -24509756.86547  19272907.878    19272907.003    19272916.881
       240.000         202.000
   3405469.39549   2654857.16946  21688363.396    21688362.154    21688374.412
       223.000         171.000
  -5944202.78849  -4606838.68245  22500651.915    22500651.259    22500669.715
       213.000         151.000
 -16642159.47349 -12946534.21747  19998574.913    19998574.139    19998583.682
       242.000         203.000
 00  5  3 17 44 59.9930000  0  8G16G30G24G 4G 5G 7G10G 9
 -15494234.47149 -12050004.74445  22513553.513    22513552.486    22513563.865
       213.000         154.000
  -7216802.07149  -5602198.09046  22087193.290    22087193.356    22087208.651
       222.000         170.000
 -35256128.21549 -27453921.10347  18315450.648    18315450.031    18315459.263
       239.000         203.000
 -19235162.74749 -14970548.38347  18959970.192    18959969.760    18959978.397
       243.000         208.000
 -31579818.40549 -24594322.03847  19252256.144    19252255.274    19252265.124
       240.000         202.000
   3426378.02149   2671149.51546  21692342.146    21692340.953    21692353.261
       223.000         170.000
  -6089094.98849  -4719741.47245  22473079.860    22473079.036    22473097.419
       208.000         147.000
 -16625521.78449 -12933569.86847  20001741.022    20001740.234    20001749.803
       242.000         203.000
 00  5  3 17 45 29.9930000  0  8G16G30G24G 4G 5G 7G10G 9
 -15509583.62149 -12061965.04645  22510632.540    22510631.577    22510642.931
       210.000         153.000
  -7362169.97849  -5715471.56546  22059530.384    22059530.567    22059545.903
       216.000         165.000
 -35322050.90549 -27505289.43047  18302905.979    18302905.356    18302914.595
       239.000         203.000
 -19222088.77149 -14960360.92047  18962458.132    18962457.693    18962466.338
       244.000         208.000
 -31688056.53749 -24678663.39547  19231659.104    19231658.227    19231668.002
       240.000         202.000
   3447319.96749   2687467.84746  21696327.289    21696326.122    21696338.490
       222.000         170.000
  -6234043.19249  -4832687.92345  22445496.710    22445496.084    22445514.310
       210.000         147.000
 -16608481.18549 -12920291.56647  20004983.814    20004983.015    20004992.595
       242.000         203.000
 00  5  3 17 45 59.9930000  0  8G16G30G24G 4G 5G 7G10G 9
 -15524398.88549 -12073509.38945  22507813.309    22507812.361    22507823.637
       209.000         153.000
  -7507494.00449  -5828710.82445  22031876.005    22031876.106    22031891.557
       217.000         160.000
 -35387441.24149 -27556242.93447  18290462.584    18290461.959    18290471.204
       238.000         202.000
 -19208578.64149 -14949833.59647  18965029.086    18965028.621    18965037.276
       243.000         208.000
 -31796001.30549 -24762776.15247  19211117.875    19211116.984    19211126.741
       240.000         202.000
   3468299.22849   2703815.24346  21700319.618    21700318.439    21700330.778
       223.000         169.000
  -6379040.54449  -4945672.62745  22417904.633    22417903.880    22417922.017
       211.000         151.000
 -16591036.01649 -12906698.01847  20008303.578    20008302.781    20008312.381
       242.000         203.000
 00  5  3 17 46 29.9930000  0  8G16G30G24G 4G 5G 7G10G 9
 -15538713.07349 -12084663.28045  22505089.395    22505088.412    22505099.657
       206.000         151.000
  -7652804.45749  -5941939.50745  22004224.246    22004224.251    22004239.746
       217.000         157.000
 -35452331.35349 -27606806.65447  18278114.389    18278113.773    18278123.008
       237.000         202.000
 -19194666.65349 -14938993.13047  18967676.439    18967676.024    18967684.682
       243.000         208.000
 -31903682.72349 -24846683.69647  19190626.734    19190625.866    19190635.584
       240.000         202.000
   3489283.75049   2720166.74546  21704312.888    21704311.699    21704324.009
       222.000         167.000
  -6524116.16949  -5058718.33045  22390297.517    22390296.754    22390314.865
       207.000         148.000
 -16573220.86649 -12892816.17047  20011693.729    20011692.932    20011702.556
       241.000         202.000
 00  5  3 17 46 59.9930000  0  8G16G30G24G 4G 5G 7G10G 9
 -15552492.60449 -12095400.53445  22502467.056    22502466.115    22502477.516
       209.000         149.000
  -7798065.31649  -6055129.59145  21976581.713    21976581.879    21976597.324
       221.000         153.000
 -35516687.30149 -27656954.14247  18265867.864    18265867.239    18265876.466
       237.000         202.000
 -19180321.06549 -14927814.80547  18970406.365    18970405.937    18970414.608
       243.000         208.000
 -32011064.34649 -24930357.63747  19170192.650    19170191.776    19170201.479
       240.000         202.000
   3510307.45849   2736548.78646  21708313.511    21708312.392    21708324.748
       220.000         167.000
  -6669233.15649  -5171796.31045  22362682.397    22362681.639    22362699.780
       213.000         150.000
 -16555004.12449 -12878621.39847  20015160.306    20015159.499    20015169.148
       241.000         202.000
 00  5  3 17 47 29.9930000  0  8G16G30G24G 4G 5G 7G10G 9
 -15565780.30049 -12105754.51545  22499938.513    22499937.497    22499948.680
       210.000         150.000
  -7943316.68149  -6168312.31745  21948941.011    21948941.280    21948956.622
       221.000         151.000
 -35580551.51549 -27706718.46247  18253714.927    18253714.285    18253723.504
       237.000         202.000
 -19165586.51949 -14916333.39847  18973210.294    18973209.870    18973218.562
       243.000         208.000
 -32118186.33449 -25013829.26747  19149807.987    19149807.113    19149816.789
       240.000         202.000
   3531328.38149   2752928.64546  21712313.746    21712312.582    21712324.938
       221.000         168.000
  -6814430.59549  -5284936.99445  22335052.121    22335051.402    22335069.466
       211.000         152.000
 -16536430.58349 -12864148.60547  20018694.805    20018693.988    20018703.636
       242.000         202.000
 00  5  3 17 47 59.9930000  0  8G16G30G24G 4G 5G 7G10G 9
 -15578563.19649 -12115715.16845  22497505.851    22497504.969    22497516.220
       207.000         152.000
  -8088543.43449  -6281475.87645  21921305.284    21921305.421    21921320.589
       221.000         156.000
 -35643910.59249 -27756089.17347  18241658.081    18241657.454    18241666.654
       237.000         202.000
 -19150452.04449 -14904540.35547  18976090.352    18976089.904    18976098.616
       243.000         208.000
 -32225032.97749 -25097086.34447  19129475.720    19129474.836    19129484.498
       240.000         202.000
   3552359.80249   2769316.66846  21716315.956    21716314.750    21716327.147
       222.000         168.000
  -6959692.13249  -5398127.56845  22307409.565    22307408.846    22307426.869
       210.000         152.000
 -16517489.11249 -12849389.11247  20022299.325    20022298.490    20022308.160
       242.000         201.000
 00  5  3 17 48 29.9930000  0  8G16G30G24G 4G 5G 7G10G 9
 -15590827.95849 -12125272.12745  22495171.870    22495171.020    22495182.368
       208.000         154.000
  -8233729.70949  -6394607.84445  21893677.150    21893677.269    21893692.259
       221.000         157.000
 -35706750.79149 -27805055.56647  18229699.999    18229699.382    18229708.571
       237.000         202.000
 -19134906.16849 -14892426.74447  18979048.647    18979048.225    18979056.949
       243.000         208.000
 -32331588.26349 -25180116.39247  19109198.867    19109197.989    19109207.655
       239.000         202.000
   3573415.71749   2785723.79746  21720322.860    21720321.615    21720333.997
       221.000         167.000
  -7105000.72349  -5511354.92645  22279757.871    22279757.255    22279775.321
       207.000         143.000
 -16498168.26749 -12834334.00447  20025976.063    20025975.200    20025984.850
       242.000         201.000
 00  5  3 17 48 59.9930000  0  8G16G30G24G 4G 5G 7G10G 9
 -15602570.06949 -12134421.78645  22492937.343    22492936.566    22492947.868
       211.000         153.000
  -8378868.41949  -6507702.77245  21866057.951    21866058.111    21866073.062
       214.000         155.000
 -35769066.80649 -27853613.49647  18217841.640    18217841.023    18217850.225
       236.000         202.000
 -19118945.84849 -14879990.18847  18982085.825    18982085.407    18982094.143
       243.000         208.000
 -32437844.70849 -25262913.57447  19088978.909    19088978.021    19088987.656
       240.000         202.000
   3594501.53749   2802154.23046  21724335.417    21724334.181    21724346.556
       221.000         166.000
  -7250348.12349  -5624612.47145  22252098.630    22252098.225    22252116.328
       203.000         141.000
 -16478465.39949 -12818981.21847  20029725.480    20029724.605    20029734.247
       242.000         200.000
 00  5  3 17 49 29.9930000  0  8G16G30G24G 4G 5G 7G10G 9
 -15613807.44549 -12143178.13345  22490798.863    22490798.103    22490809.409
       206.000         151.000
  -8523974.63149  -6620772.36245  21838444.838    21838445.109    21838460.035
       216.000         159.000
 -35830875.89849 -27901776.42047  18206079.778    18206079.153    18206088.346
       236.000         202.000
 -19102590.51149 -14867245.82947  18985198.203    18985197.761    18985206.514
       244.000         208.000
 -32543817.12749 -25345489.44147  19068813.009    19068812.105    19068821.699
       240.000         202.000
   3615600.30349   2818594.73246  21728350.391    21728349.200    21728361.542
       221.000         165.000
  -7395748.25549  -5737911.08645  22224429.634    22224429.243    22224447.481
       207.000         144.000
 -16458399.91849 -12803345.87847  20033543.859    20033543.004    20033552.649
       242.000         200.000
 00  5  3 17 49 59.9930000  0  8G16G30G24G 4G 5G 7G10G 9
 -15624516.95849 -12151523.21745  22488760.917    22488760.067    22488771.514
       208.000         149.000
  -8669022.53749  -6733796.48846  21810843.068    21810843.261    21810858.198
       221.000         165.000
 -35892154.70849 -27949526.13747  18194418.785    18194418.178    18194427.363
       236.000         202.000
 -19085818.97249 -14854177.15447  18988389.764    18988389.321    18988398.062
       244.000         208.000
 -32649480.06449 -25427824.14847  19048705.938    19048705.063    19048714.663
       240.000         202.000
   3636735.67149   2835063.76446  21732372.331    21732371.198    21732383.570
       221.000         166.000
  -7541174.45449  -5851230.14245  22196756.022    22196755.476    22196773.496
       210.000         143.000
 -16437950.87749 -12787411.66247  20037435.272    20037434.403    20037444.041
       242.000         200.000
 00  5  3 17 50 29.9930000  0  8G16G30G24G 4G 5G 7G10G 9
 -15634715.78449 -12159470.29245  22486820.060    22486819.253    22486830.533
       208.000         145.000
  -8814026.65449  -6846786.56746  21783249.632    21783249.824    21783264.677
       222.000         166.000
 -35952919.87249 -27996875.61547  18182855.580    18182854.944    18182864.121
       235.000         201.000
 -19068650.03149 -14840798.81547  18991656.994    18991656.521    18991665.248
       244.000         208.000
 -32754847.55749 -25509928.64147  19028655.116    19028654.250    19028663.835
       240.000         202.000
   3657891.40249   2851548.63946  21736398.311    21736397.075    21736409.441
       221.000         167.000
  -7686639.90649  -5964579.68845  22169074.844    22169074.219    22169092.180
       214.000         149.000
 -16417136.99649 -12771193.15447  20041396.123    20041395.223    20041404.888
       242.000         200.000
 00  5  3 17 50 59.9930000  0  9G16G30G24G 4G 5G 7G10G 9G 6
 -15644398.73849 -12167015.44845  22484977.465    22484976.549    22484987.922
       210.000         152.000
  -8958979.12649  -6959736.38246  21755665.788    21755666.137    21755680.944
       225.000         167.000
 -36013165.54149 -28043820.29147  18171391.147    18171390.549    18171399.756
       235.000         201.000
 -19051080.21849 -14827108.10947  18995000.459    18994999.987    18995008.709
       244.000         207.000
 -32859911.13249 -25591796.31947  19008662.162    19008661.284    19008670.850
       240.000         202.000
   3679073.48449   2868054.06446  21740429.322    21740427.996    21740440.311
       221.000         166.000
  -7832135.71349  -6077952.90345  22141387.995    22141387.222    22141405.107
       210.000         147.000
 -16395954.78149 -12754687.63947  20045427.047    20045426.148    20045435.821
       242.000         200.000
  -1456007.05759  -1089376.60255  23357404.257    23357403.736    23357421.072
       208.000         154.000
 00  5  3 17 51 29.9930000  0  9G16G30G24G 4G 5G 7G10G 9G 6
 -15653577.86349 -12174168.00045  22483230.824    22483229.867    22483241.222
       210.000         152.000
  -9103889.21149  -7072653.19946  21728090.258    21728090.556    21728105.193
       226.000         167.000
 -36072903.34649 -28090369.23147  18160023.407    18160022.825    18160032.018
       235.000         201.000
 -19033123.11149 -14813115.60947  18998417.664    18998417.167    18998425.873
       244.000         207.000
 -32964680.08449 -25673434.42447  18988725.257    18988724.378    18988733.937
       240.000         202.000
   3700270.76549   2884571.31546  21744463.160    21744461.804    21744474.157
       221.000         163.000
  -7977669.92149  -6191356.11545  22113693.757    22113692.838    22113710.532
       212.000         146.000
 -16374417.97849 -12737905.82147  20049525.462    20049524.549    20049534.218
       242.000         200.000
  -1575769.65449  -1182698.04245  23334614.139    23334613.594    23334631.068
       202.000         145.000
 00  5  3 17 51 59.9930000  0  9G16G30G24G 4G 5G 7G10G 9G 6
 -15662243.64149 -12180920.53345  22481581.708    22481580.811    22481592.216
       212.000         149.000
  -9248744.71349  -7185527.46646  21700525.183    21700525.390    21700539.880
       224.000         165.000
 -36132123.31949 -28136514.66447  18148754.225    18148753.639    18148762.831
       235.000         201.000
 -19014770.99149 -14798815.31547  19001909.998    19001909.516    19001918.213
       244.000         208.000
 -33069142.09049 -25754833.34847  18968846.732    18968845.875    18968855.424
       239.000         202.000
   3721493.46249   2901108.37746  21748501.819    21748500.431    21748512.721
       223.000         165.000
  -8123229.47149  -6304779.00445  22085994.576    22085993.687    22086011.223
       211.000         148.000
 -16352518.90849 -12720841.72747  20053692.791    20053691.875    20053701.558
       242.000         200.000
  -1695508.44049  -1276000.91245  23311828.502    23311828.037    23311845.496
       202.000         145.000
 00  5  3 17 52 29.9930000  0  9G16G30G24G 4G 5G 7G10G 9G 6
 -15670403.64549 -12187278.94745  22480028.968    22480028.113    22480039.228
       215.000         152.000
  -9393549.74749  -7298362.42046  21672969.675    21672969.779    21672984.237
       225.000         167.000
 -36190832.40149 -28182262.00147  18137582.272    18137581.663    18137590.867
       235.000         201.000
 -18996032.92649 -14784214.28347  19005475.778    19005475.299    19005484.001
       244.000         207.000
 -33173301.40949 -25835996.41547  18949025.840    18949024.983    18949034.513
       240.000         202.000
   3742735.22949   2917660.30546  21752543.901    21752542.575    21752554.930
       222.000         165.000
  -8268817.68749  -6418224.22145  22058290.011    22058289.036    22058306.494
       214.000         147.000
 -16330266.41749 -12703502.24647  20057927.388    20057926.470    20057936.150
       241.000         200.000
  -1815230.20149  -1369290.56045  23289046.232    23289045.732    23289063.248
       197.000         140.000
 00  5  3 17 52 59.9930000  0  9G16G30G24G 4G 5G 7G10G 9G 6
 -15678054.18149 -12193240.37645  22478573.349    22478572.325    22478583.398
       217.000         153.000
  -9538298.55549  -7411153.54646  21645424.733    21645424.868    21645439.271
       220.000         168.000
 -36249026.34349 -28227607.93147  18126508.306    18126507.704    18126516.925
       234.000         201.000
 -18976906.66349 -14769310.76947  19009115.444    19009114.944    19009123.664
       244.000         207.000
 -33277151.46949 -25916918.50747  18929263.770    18929262.922    18929272.444
       239.000         202.000
   3764000.33349   2934230.39245  21756590.484    21756589.230    21756601.741
       217.000         160.000
  -8414427.24449  -6531686.13045  22030581.395    22030580.384    22030597.658
       214.000         149.000
 -16307658.93649 -12685886.15447  20062229.530    20062228.610    20062238.308
       242.000         199.000
  -1934930.41849  -1462563.39345  23266267.946    23266267.491    23266284.895
       202.000         142.000
 00  5  3 17 53 29.9930000  0  9G16G30G24G 4G 5G 7G10G 9G 6
 -15685203.23349 -12198811.02845  22477213.092    22477211.960    22477222.993
       215.000         148.000
  -9682995.63649  -7523904.33546  21617889.671    21617889.800    21617904.194
       224.000         170.000
 -36306712.78649 -28272558.40547  18115530.909    18115530.335    18115539.548
       235.000         201.000
 -18957402.01149 -14754112.39847  19012827.081    19012826.609    19012835.337
       243.000         207.000
 -33380697.12149 -25997603.38947  18909559.618    18909558.801    18909568.315
       240.000         202.000
   3785281.93149   2950813.32045  21760640.172    21760639.035    21760651.634
       219.000         162.000
  -8560062.28449  -6645167.82745  22002867.784    22002866.863    22002884.063
       215.000         152.000
 -16284706.31549 -12668001.11647  20066597.366    20066596.433    20066606.136
       242.000         199.000
  -2054616.25449  -1555825.02945  23243492.415    23243491.971    23243509.438
       210.000         146.000
 00  5  3 17 53 59.9930000  0  9G16G30G24G 4G 5G 7G10G 9G 6
 -15691847.24649 -12203988.16545  22475948.739    22475947.602    22475958.519
       207.000         145.000
  -9827634.93549  -7636610.14546  21590365.604    21590365.763    21590380.090
       223.000         170.000
 -36363887.56549 -28317110.18447  18104650.897    18104650.337    18104659.546
       234.000         201.000
 -18937517.05649 -14738617.69947  19016611.126    19016610.635    19016619.379
       244.000         207.000
 -33483931.77849 -26078045.94547  18889914.656    18889913.853    18889923.347
       240.000         202.000
   3806584.56849   2967412.68645  21764694.085    21764692.899    21764705.451
       218.000         162.000
  -8705714.93449  -6758663.28545  21975150.858    21975149.970    21975167.120
       213.000         148.000
 -16261406.63349 -12649845.64947  20071031.188    20071030.284    20071039.992
       241.000         199.000
  -2174283.34349  -1649072.10145  23220720.641    23220720.164    23220737.470
       214.000         149.000
 00  5  3 17 54 29.9930000  0  9G16G30G24G 4G 5G 7G10G 9G 6
 -15698006.91449 -12208787.91845  22474776.306    22474775.396    22474786.368
       212.000         153.000
  -9972233.89949  -7749284.49946  21562849.139    21562849.321    21562863.663
       225.000         170.000
 -36420570.79349 -28361278.93447  18093864.427    18093863.864    18093873.092
       234.000         201.000
 -18917273.82849 -14722843.82747  19020463.317    19020462.829    19020471.606
       244.000         207.000
 -33586873.21649 -26158260.02147  18870325.512    18870324.707    18870334.191
       240.000         202.000
   3827888.55549   2984013.05745  21768748.277    21768746.982    21768759.637
       218.000         160.000
  -8851401.82049  -6872185.36045  21947427.442    21947426.502    21947443.718
       214.000         154.000
 -16237782.17149 -12631437.12047  20075526.870    20075525.961    20075535.679
       242.000         199.000
  -2293951.56249  -1742320.03745  23197948.533    23197948.044    23197965.401
       212.000         145.000
 00  5  3 17 54 59.9930000  0  9G16G30G24G 4G 5G 7G10G 9G 6
 -15703655.90749 -12213189.74545  22473701.194    22473700.379    22473711.494
       213.000         154.000
 -10116763.41649  -7861904.75546  21535345.940    21535346.165    21535360.424
       224.000         167.000
 -36476735.74449 -28405043.83447  18083176.586    18083176.019    18083185.243
       234.000         200.000
 -18896647.82949 -14706771.69447  19024388.346    19024387.879    19024396.656
       244.000         206.000
 -33689491.77649 -26238222.50247  18850797.835    18850796.999    18850806.482
       239.000         201.000
   3849221.22849   3000635.78346  21772807.872    21772806.525    21772819.239
       219.000         163.000
  -8997092.68949  -6985710.52845  21919703.240    21919702.352    21919719.526
       209.000         150.000
 -16213808.47249 -12612756.45647  20080088.990    20080088.098    20080097.846
       242.000         199.000
  -2413593.81849  -1835547.77345  23175181.371    23175180.843    23175198.170
       215.000         144.000
 00  5  3 17 55 29.9930000  0  9G16G30G24G 4G 5G 7G10G 9G 6
 -15708784.58649 -12217186.09545  22472725.290    22472724.412    22472735.525
       214.000         152.000
 -10261210.65349  -7974460.88446  21507858.355    21507858.659    21507872.909
       223.000         165.000
 -36532372.12049 -28448396.85247  18072589.366    18072588.782    18072597.995
       234.000         200.000
 -18875630.50049 -14690394.62147  19028387.863    19028387.388    19028396.187
       243.000         206.000
 -33791774.73649 -26317923.47347  18831334.013    18831333.175    18831342.647
       239.000         201.000
   3870593.42549   3017289.32445  21776874.989    21776873.615    21776886.298
       217.000         160.000
  -9142773.64949  -7099227.97645  21891981.002    21891980.083    21891997.263
       209.000         152.000
 -16189477.11149 -12593797.10447  20084719.171    20084718.281    20084728.078
       241.000         199.000
  -2533199.46749  -1928746.97145  23152421.042    23152420.583    23152437.982
       211.000         137.000
 00  5  3 17 55 59.9920000  0  9G16G30G24G 4G 5G 7G10G 9G 6
 -15713399.18449 -12220781.85645  22471847.196    22471846.293    22471857.419
       215.000         147.000
 -10405574.06949  -8086951.70346  21480386.901    21480387.122    21480401.366
       223.000         165.000
 -36587483.98849 -28491341.16647  18062101.935    18062101.341    18062110.558
       234.000         201.000
 -18854230.69049 -14673719.51847  19032460.155    19032459.687    19032468.494
       244.000         206.000
 -33893722.04549 -26397362.90647  18811934.093    18811933.220    18811942.697
       240.000         202.000
   3891998.90049   3033968.77345  21780948.450    21780947.041    21780959.645
       218.000         161.000
  -9288442.30549  -7212735.81645  21864260.951    21864260.061    21864277.369
       211.000         153.000
 -16164797.31049 -12574566.23547  20089415.633    20089414.757    20089424.611
       240.000         198.000
  -2652770.10249  -2021918.91045  23129667.504    23129666.920    23129684.437
       215.000         139.000
 00  5  3 17 56 29.9920000  0  9G16G30G24G 4G 5G 7G10G 9G 6
 -15717520.00649 -12223992.84745  22471062.962    22471062.120    22471073.326
       213.000         143.000
 -10549880.41249  -8199398.04746  21452926.274    21452926.397    21452940.643
       226.000         166.000
 -36642094.43749 -28533894.76747  18051709.943    18051709.324    18051718.531
       234.000         201.000
 -18832468.45549 -14656762.00647  19036601.422    19036600.952    19036609.773
       243.000         206.000
 -33995357.28249 -26476559.16547  18792593.489    18792592.635    18792602.128
       239.000         202.000
   3913420.43349   3050660.73345  21785024.951    21785023.528    21785036.177
       218.000         160.000
  -9434124.07449  -7326253.87445  21836538.531    21836537.640    21836554.941
       214.000         154.000
 -16139788.66849 -12555079.12347  20094174.686    20094173.824    20094183.701
       240.000         197.000
  -2772332.70449  -2115084.55845  23106915.521    23106914.831    23106932.372
       214.000         141.000
 00  5  3 17 56 59.9920000  0  9G16G30G24G 4G 5G 7G10G 9G 6
 -15721124.04349 -12226801.16745  22470377.153    22470376.270    22470387.390
       213.000         141.000
 -10694098.78249  -8311775.83846  21425482.401    21425482.450    21425496.590
       229.000         170.000
 -36696178.22249 -28576037.97747  18041418.162    18041417.536    18041426.738
       234.000         200.000
 -18810322.99049 -14639505.87647  19040815.630    19040815.151    19040823.995
       243.000         206.000
 -34096650.88549 -26555489.22347  18773317.899    18773317.068    18773326.563
       239.000         202.000
   3934881.36149   3067383.38245  21789108.832    21789107.489    21789120.190
       215.000         159.000
  -9579787.05949  -7439757.30345  21808819.792    21808818.771    21808836.102
       208.000         156.000
 -16114430.76449 -12535319.86147  20099000.229    20098999.345    20099009.234
       240.000         198.000
  -2891859.10749  -2208221.99745  23084170.438    23084169.792    23084187.116
       214.000         146.000
 00  5  3 17 57 29.9920000  0  9G16G30G24G 4G 5G 7G10G 9G 6
 -15724225.20249 -12229217.61245  22469787.173    22469786.130    22469797.191
       212.000         143.000
 -10838240.29349  -8424093.74046  21398053.125    21398053.130    21398067.182
       230.000         170.000
 -36749749.02449 -28617781.46847  18031223.999    18031223.358    18031232.555
       234.000         200.000
 -18787809.92649 -14621963.30247  19045099.793    19045099.299    19045108.151
       243.000         206.000
 -34197613.85549 -26634161.64247  18754105.301    18754104.426    18754113.924
       239.000         202.000
   3956368.64049   3084126.58945  21793197.956    21793196.504    21793209.213
       216.000         157.000
  -9725441.30949  -7553253.87245  21781102.604    21781101.622    21781118.998
       214.000         157.000
 -16088739.50449 -12515300.84347  20103889.241    20103888.335    20103898.225
       240.000         198.000
  -3011362.75649  -2301341.66945  23061429.577    23061428.947    23061446.330
       211.000         145.000
 00  5  3 17 57 59.9920000  0  9G16G30G24G 4G 5G 7G10G 9G 6
 -15726825.88849 -12231244.16445  22469292.276    22469291.231    22469302.290
       212.000         144.000
 -10982303.62449  -8536350.70146  21370638.658    21370638.682    21370652.695
       229.000         170.000
 -36802808.40549 -28659126.44247  18021127.098    18021126.495    18021135.690
       234.000         200.000
 -18764932.75449 -14604137.01047  19049453.220    19049452.725    19049461.598
       242.000         206.000
 -34298245.11449 -26712575.58847  18734955.799    18734954.909    18734964.413
       239.000         202.000
   3977881.32649   3100889.57545  21797291.735    21797290.331    21797303.124
       217.000         159.000
  -9871085.04949  -7666742.32345  21753387.376    21753386.397    21753403.692
       216.000         153.000
 -16062718.47249 -12495024.86247  20108841.004    20108840.087    20108850.005
       240.000         198.000
  -3130844.96849  -2394444.60145  23038692.626    23038692.083    23038709.613
       212.000         141.000
 00  5  3 17 58 29.9920000  0  9G16G30G24G 4G 5G 7G10G 9G 6
 -15728905.10949 -12232864.36045  22468896.400    22468895.469    22468906.564
       212.000         143.000
 -11126265.01249  -8648528.25646  21343243.626    21343243.654    21343257.592
       225.000         169.000
 -36855334.96449 -28700056.23547  18011131.638    18011131.025    18011140.233
       233.000         200.000
 -18741672.15449 -14586011.94447  19053879.596    19053879.114    19053888.018
       242.000         206.000
 -34398520.51549 -26790712.23747  18715874.004    18715873.126    18715882.610
       239.000         203.000
   3999441.51749   3117689.57445  21801394.468    21801393.088    21801405.970
       218.000         158.000
 -10016692.53549  -7780202.49645  21725679.297    21725678.264    21725695.445
       218.000         162.000
 -16036348.72849 -12474477.16447  20113859.143    20113858.195    20113868.155
       239.000         197.000
  -3250283.74649  -2487513.80745  23015964.200    23015963.634    23015981.064
       216.000         146.000
 00  5  3 17 58 59.9920000  0  9G16G30G24G 4G 5G 7G10G 9G 6
 -15730483.37549 -12234094.18145  22468595.967    22468595.155    22468606.152
       217.000         147.000
 -11270141.47749  -8760639.63746  21315864.665    21315864.747    21315878.686
       225.000         169.000
 -36907348.63349 -28740586.37747  18001233.773    18001233.148    18001242.346
       233.000         200.000
 -18718049.95949 -14567605.11347  19058374.770    19058374.307    19058383.251
       242.000         205.000
 -34498457.23149 -26868584.98247  18696856.662    18696855.774    18696865.269
       240.000         203.000
   4021029.98549   3134511.59945  21805502.820    21805501.408    21805514.293
       220.000         162.000
 -10162280.08949  -7893647.15445  21697974.753    21697973.756    21697990.799
       216.000         155.000
 -16009651.83449 -12453674.53947  20118939.535    20118938.550    20118948.537
       239.000         197.000
  -3369698.47349  -2580564.21145  22993240.372    22993239.782    22993257.127
       217.000         154.000
 00  5  3 17 59 29.9920000  0  9G16G30G24G 4G 5G 7G10G 9G 6
 -15731564.18549 -12234936.41345  22468390.536    22468389.483    22468400.410
       216.000         149.000
 -11413933.33049  -8872685.07746  21288501.820    21288501.963    21288515.891
       225.000         170.000
 -36958852.22449 -28780719.05947  17991432.946    17991432.333    17991441.541
       233.000         199.000
 -18694070.78949 -14548920.12847  19062937.891    19062937.433    19062946.417
       242.000         205.000
 -34598055.52749 -26946194.02947  18677903.745    18677902.837    18677912.327
       240.000         203.000
   4042644.55149   3151353.98246  21809616.031    21809614.602    21809627.533
       217.000         163.000
 -10307846.89749  -8007075.66445  21670274.291    21670273.284    21670290.224
       216.000         160.000
 -15982632.99749 -12432621.05947  20124081.158    20124080.171    20124090.170
       240.000         197.000
  -3489091.55949  -2673597.74345  22970520.692    22970520.043    22970537.428
       217.000         155.000
 00  5  3 17 59 59.9920000  0  9G16G30G24G 4G 5G 7G10G 9G 6
 -15732162.54649 -12235402.68845  22468276.713    22468275.637    22468286.686
       217.000         151.000
 -11557652.45749  -8984673.84346  21261152.818    21261152.993    21261166.905
       226.000         170.000
 -37009860.29749 -28820465.62047  17981726.435    17981725.818    17981735.026
       233.000         199.000
 -18669751.28749 -14529969.94247  19067565.790    19067565.321    19067574.327
       242.000         205.000
 -34697327.13149 -27023548.50747  18659012.971    18659012.073    18659021.561
       240.000         203.000
   4064271.42349   3168205.94245  21813731.720    21813730.194    21813743.179
       218.000         162.000
 -10453403.77649  -8120496.41545  21642575.484    21642574.535    21642591.510
       220.000         155.000
 -15955309.00349 -12411329.79847  20129280.790    20129279.835    20129289.902
       239.000         197.000
  -3608477.08249  -2766625.32245  22947802.286    22947801.700    22947819.106
       212.000         148.000
 00  5  3 18  0 29.9920000  0  9G16G30G24G 4G 5G 7G10G 9G 6
 -15732257.12249 -12235476.34145  22468258.642    22468257.674    22468268.618
       214.000         147.000
 -11701273.97149  -9096586.55346  21233822.426    21233822.589    21233836.500
       226.000         172.000
 -37060350.97249 -28859809.01947  17972118.347    17972117.758    17972126.970
       233.000         199.000
 -18645071.45249 -14510738.98147  19072262.271    19072261.776    19072270.816
       242.000         205.000
 -34796247.44649 -27100629.25747  18640189.091    18640188.147    18640197.620
       240.000         204.000
   4085933.33649   3185085.20546  21817853.876    21817852.421    21817865.418
       219.000         164.000
 -10598924.89749  -8233889.35845  21614883.578    21614882.732    21614899.550
       216.000         156.000
 -15927659.65849 -12389785.02047  20134542.366    20134541.445    20134551.536
       239.000         197.000
  -3727832.60949  -2859629.62545  22925089.621    22925089.066    22925106.492
       213.000         149.000
 00  5  3 18  0 59.9920000  0  9G16G30G24G 4G 5G 7G10G 9G 6
 -15731835.37249 -12235147.72145  22468339.012    22468338.016    22468348.891
       214.000         151.000
 -11844782.14849  -9208410.93546  21206513.550    21206513.735    21206527.623
       223.000         171.000
 -37110311.47549 -28898739.30047  17962611.179    17962610.602    17962619.824
       233.000         199.000
 -18620020.00249 -14491218.44847  19077029.450    19077028.967    19077038.024
       242.000         205.000
 -34894800.48949 -27177423.81847  18621435.072    18621434.125    18621443.588
       240.000         204.000
   4107643.93249   3202002.39846  21821985.334    21821983.899    21821996.962
       221.000         163.000
 -10744393.47349  -8347241.32945  21587201.732    21587200.853    21587217.573
       219.000         150.000
 -15899674.03849 -12367978.20747  20139868.017    20139867.055    20139877.155
       239.000         197.000
  -3847144.46849  -2952599.87645  22902385.307    22902384.754    22902402.181
       213.000         150.000
